<?xml version="1.0" encoding="UTF-8" standalone="no" ?>
<gpx xmlns="http://www.topografix.com/GPX/1/1" xmlns:xsi="http://www.w3.org/2001/XMLSchema-instance" xsi:schemaLocation="http://www.topografix.com/GPX/1/1 http://www.topografix.com/GPX/1/1/gpx.xsd" version="1.1" creator="VisuGPX - https://www.visugpx.com">
  <metadata>
    <name>2021-07-19 11:52:49</name>
  </metadata>
  <trk>
    <name><![CDATA[2021-07-19 11:52:49]]></name>
    <extensions>
      <line xmlns="http://www.topografix.com/GPX/gpx_style/0/2">
        <color>0000FF</color>
        <width>4</width>
      </line>
    </extensions>
    <trkseg>
      <trkpt lat="44.72581" lon="4.00324">
        <ele>1143.72</ele>
        <time>2021-07-19T06:19:58Z</time>
      </trkpt>
      <trkpt lat="44.72581" lon="4.00324">
        <ele>1143.72</ele>
        <time>2021-07-19T06:19:59Z</time>
      </trkpt>
      <trkpt lat="44.72581" lon="4.00376">
        <ele>1142.05</ele>
        <time>2021-07-19T06:22:09Z</time>
      </trkpt>
      <trkpt lat="44.72574" lon="4.00388">
        <ele>1142.09</ele>
        <time>2021-07-19T06:22:17Z</time>
      </trkpt>
      <trkpt lat="44.72568" lon="4.00396">
        <ele>1141.93</ele>
        <time>2021-07-19T06:22:23Z</time>
      </trkpt>
      <trkpt lat="44.72576" lon="4.00409">
        <ele>1142.1</ele>
        <time>2021-07-19T06:22:30Z</time>
      </trkpt>
      <trkpt lat="44.72578" lon="4.00409">
        <ele>1142.14</ele>
        <time>2021-07-19T06:22:31Z</time>
      </trkpt>
      <trkpt lat="44.72603" lon="4.00417">
        <ele>1143.95</ele>
        <time>2021-07-19T06:22:43Z</time>
      </trkpt>
      <trkpt lat="44.72641" lon="4.0041">
        <ele>1144.34</ele>
        <time>2021-07-19T06:22:58Z</time>
      </trkpt>
      <trkpt lat="44.72679" lon="4.0039">
        <ele>1145.37</ele>
        <time>2021-07-19T06:23:12Z</time>
      </trkpt>
      <trkpt lat="44.72712" lon="4.00366">
        <ele>1145.39</ele>
        <time>2021-07-19T06:23:26Z</time>
      </trkpt>
      <trkpt lat="44.72742" lon="4.00348">
        <ele>1146.67</ele>
        <time>2021-07-19T06:23:38Z</time>
      </trkpt>
      <trkpt lat="44.72762" lon="4.00339">
        <ele>1147.13</ele>
        <time>2021-07-19T06:23:48Z</time>
      </trkpt>
      <trkpt lat="44.72763" lon="4.00339">
        <ele>1147.16</ele>
        <time>2021-07-19T06:23:49Z</time>
      </trkpt>
      <trkpt lat="44.72766" lon="4.00342">
        <ele>1147.33</ele>
        <time>2021-07-19T06:23:52Z</time>
      </trkpt>
      <trkpt lat="44.72767" lon="4.00344">
        <ele>1147.49</ele>
        <time>2021-07-19T06:23:53Z</time>
      </trkpt>
      <trkpt lat="44.72767" lon="4.00347">
        <ele>1147.56</ele>
        <time>2021-07-19T06:23:54Z</time>
      </trkpt>
      <trkpt lat="44.72767" lon="4.0035">
        <ele>1147.64</ele>
        <time>2021-07-19T06:23:55Z</time>
      </trkpt>
      <trkpt lat="44.72766" lon="4.00353">
        <ele>1147.72</ele>
        <time>2021-07-19T06:23:56Z</time>
      </trkpt>
      <trkpt lat="44.72761" lon="4.0039">
        <ele>1148.25</ele>
        <time>2021-07-19T06:24:09Z</time>
      </trkpt>
      <trkpt lat="44.72752" lon="4.00421">
        <ele>1149.7</ele>
        <time>2021-07-19T06:24:20Z</time>
      </trkpt>
      <trkpt lat="44.72751" lon="4.00424">
        <ele>1149.89</ele>
        <time>2021-07-19T06:24:21Z</time>
      </trkpt>
      <trkpt lat="44.7275" lon="4.00427">
        <ele>1150.07</ele>
        <time>2021-07-19T06:24:22Z</time>
      </trkpt>
      <trkpt lat="44.72748" lon="4.00429">
        <ele>1150.23</ele>
        <time>2021-07-19T06:24:23Z</time>
      </trkpt>
      <trkpt lat="44.72747" lon="4.00432">
        <ele>1150.36</ele>
        <time>2021-07-19T06:24:24Z</time>
      </trkpt>
      <trkpt lat="44.72745" lon="4.00435">
        <ele>1150.46</ele>
        <time>2021-07-19T06:24:25Z</time>
      </trkpt>
      <trkpt lat="44.72744" lon="4.00438">
        <ele>1150.55</ele>
        <time>2021-07-19T06:24:26Z</time>
      </trkpt>
      <trkpt lat="44.72743" lon="4.00441">
        <ele>1150.63</ele>
        <time>2021-07-19T06:24:27Z</time>
      </trkpt>
      <trkpt lat="44.72742" lon="4.00444">
        <ele>1150.71</ele>
        <time>2021-07-19T06:24:28Z</time>
      </trkpt>
      <trkpt lat="44.72741" lon="4.00447">
        <ele>1150.78</ele>
        <time>2021-07-19T06:24:29Z</time>
      </trkpt>
      <trkpt lat="44.7274" lon="4.0045">
        <ele>1150.8</ele>
        <time>2021-07-19T06:24:30Z</time>
      </trkpt>
      <trkpt lat="44.72739" lon="4.00453">
        <ele>1150.8</ele>
        <time>2021-07-19T06:24:31Z</time>
      </trkpt>
      <trkpt lat="44.72737" lon="4.00456">
        <ele>1150.87</ele>
        <time>2021-07-19T06:24:32Z</time>
      </trkpt>
      <trkpt lat="44.72715" lon="4.00498">
        <ele>1151.23</ele>
        <time>2021-07-19T06:24:47Z</time>
      </trkpt>
      <trkpt lat="44.72695" lon="4.00545">
        <ele>1151.91</ele>
        <time>2021-07-19T06:25:03Z</time>
      </trkpt>
      <trkpt lat="44.72663" lon="4.00563">
        <ele>1153.03</ele>
        <time>2021-07-19T06:25:17Z</time>
      </trkpt>
      <trkpt lat="44.72628" lon="4.00546">
        <ele>1154.15</ele>
        <time>2021-07-19T06:25:33Z</time>
      </trkpt>
      <trkpt lat="44.72594" lon="4.00537">
        <ele>1156.83</ele>
        <time>2021-07-19T06:25:48Z</time>
      </trkpt>
      <trkpt lat="44.72562" lon="4.00567">
        <ele>1157.37</ele>
        <time>2021-07-19T06:26:03Z</time>
      </trkpt>
      <trkpt lat="44.72531" lon="4.00612">
        <ele>1158.56</ele>
        <time>2021-07-19T06:26:20Z</time>
      </trkpt>
      <trkpt lat="44.725" lon="4.00659">
        <ele>1159.82</ele>
        <time>2021-07-19T06:26:38Z</time>
      </trkpt>
      <trkpt lat="44.72479" lon="4.007">
        <ele>1160.94</ele>
        <time>2021-07-19T06:26:52Z</time>
      </trkpt>
      <trkpt lat="44.72463" lon="4.00738">
        <ele>1162.34</ele>
        <time>2021-07-19T06:27:05Z</time>
      </trkpt>
      <trkpt lat="44.7246" lon="4.00751">
        <ele>1162.65</ele>
        <time>2021-07-19T06:27:09Z</time>
      </trkpt>
      <trkpt lat="44.72462" lon="4.00754">
        <ele>1162.68</ele>
        <time>2021-07-19T06:27:10Z</time>
      </trkpt>
      <trkpt lat="44.72464" lon="4.00755">
        <ele>1162.72</ele>
        <time>2021-07-19T06:27:11Z</time>
      </trkpt>
      <trkpt lat="44.72467" lon="4.00754">
        <ele>1162.79</ele>
        <time>2021-07-19T06:27:12Z</time>
      </trkpt>
      <trkpt lat="44.72469" lon="4.00753">
        <ele>1163.03</ele>
        <time>2021-07-19T06:27:13Z</time>
      </trkpt>
      <trkpt lat="44.72471" lon="4.00751">
        <ele>1163.27</ele>
        <time>2021-07-19T06:27:14Z</time>
      </trkpt>
      <trkpt lat="44.72473" lon="4.00749">
        <ele>1163.5</ele>
        <time>2021-07-19T06:27:15Z</time>
      </trkpt>
      <trkpt lat="44.72474" lon="4.00746">
        <ele>1163.69</ele>
        <time>2021-07-19T06:27:16Z</time>
      </trkpt>
      <trkpt lat="44.72476" lon="4.00744">
        <ele>1163.89</ele>
        <time>2021-07-19T06:27:17Z</time>
      </trkpt>
      <trkpt lat="44.72478" lon="4.00741">
        <ele>1164.01</ele>
        <time>2021-07-19T06:27:18Z</time>
      </trkpt>
      <trkpt lat="44.72495" lon="4.00701">
        <ele>1164.5</ele>
        <time>2021-07-19T06:27:30Z</time>
      </trkpt>
      <trkpt lat="44.72529" lon="4.00683">
        <ele>1165.64</ele>
        <time>2021-07-19T06:27:45Z</time>
      </trkpt>
      <trkpt lat="44.7256" lon="4.00697">
        <ele>1166.7</ele>
        <time>2021-07-19T06:27:59Z</time>
      </trkpt>
      <trkpt lat="44.72597" lon="4.00724">
        <ele>1168.06</ele>
        <time>2021-07-19T06:28:14Z</time>
      </trkpt>
      <trkpt lat="44.72605" lon="4.00733">
        <ele>1168.31</ele>
        <time>2021-07-19T06:28:19Z</time>
      </trkpt>
      <trkpt lat="44.72607" lon="4.00741">
        <ele>1168.77</ele>
        <time>2021-07-19T06:28:33Z</time>
      </trkpt>
      <trkpt lat="44.72606" lon="4.00744">
        <ele>1169.03</ele>
        <time>2021-07-19T06:28:59Z</time>
      </trkpt>
      <trkpt lat="44.72604" lon="4.00741">
        <ele>1170.03</ele>
        <time>2021-07-19T06:29:31Z</time>
      </trkpt>
      <trkpt lat="44.72604" lon="4.00745">
        <ele>1169.35</ele>
        <time>2021-07-19T06:30:02Z</time>
      </trkpt>
      <trkpt lat="44.72607" lon="4.00737">
        <ele>1169.35</ele>
        <time>2021-07-19T06:30:44Z</time>
      </trkpt>
      <trkpt lat="44.72606" lon="4.00738">
        <ele>1169.47</ele>
        <time>2021-07-19T06:31:14Z</time>
      </trkpt>
      <trkpt lat="44.72601" lon="4.00729">
        <ele>1169.47</ele>
        <time>2021-07-19T06:31:44Z</time>
      </trkpt>
      <trkpt lat="44.726" lon="4.00728">
        <ele>1169.22</ele>
        <time>2021-07-19T06:32:29Z</time>
      </trkpt>
      <trkpt lat="44.726" lon="4.00722">
        <ele>1169.85</ele>
        <time>2021-07-19T06:33:05Z</time>
      </trkpt>
      <trkpt lat="44.72602" lon="4.00726">
        <ele>1169.38</ele>
        <time>2021-07-19T06:33:39Z</time>
      </trkpt>
      <trkpt lat="44.72597" lon="4.00719">
        <ele>1169.27</ele>
        <time>2021-07-19T06:34:13Z</time>
      </trkpt>
      <trkpt lat="44.72601" lon="4.00727">
        <ele>1169.02</ele>
        <time>2021-07-19T06:34:47Z</time>
      </trkpt>
      <trkpt lat="44.72602" lon="4.00728">
        <ele>1168.56</ele>
        <time>2021-07-19T06:35:21Z</time>
      </trkpt>
      <trkpt lat="44.726" lon="4.00726">
        <ele>1168.54</ele>
        <time>2021-07-19T06:35:52Z</time>
      </trkpt>
      <trkpt lat="44.72603" lon="4.00728">
        <ele>1168.91</ele>
        <time>2021-07-19T06:36:28Z</time>
      </trkpt>
      <trkpt lat="44.72603" lon="4.00732">
        <ele>1168.82</ele>
        <time>2021-07-19T06:37:06Z</time>
      </trkpt>
      <trkpt lat="44.72604" lon="4.00738">
        <ele>1168.74</ele>
        <time>2021-07-19T06:38:06Z</time>
      </trkpt>
      <trkpt lat="44.72603" lon="4.00739">
        <ele>1168.46</ele>
        <time>2021-07-19T06:39:06Z</time>
      </trkpt>
      <trkpt lat="44.72602" lon="4.00737">
        <ele>1168.59</ele>
        <time>2021-07-19T06:39:42Z</time>
      </trkpt>
      <trkpt lat="44.72608" lon="4.0074">
        <ele>1168.68</ele>
        <time>2021-07-19T06:40:39Z</time>
      </trkpt>
      <trkpt lat="44.72607" lon="4.00738">
        <ele>1168.66</ele>
        <time>2021-07-19T06:41:31Z</time>
      </trkpt>
      <trkpt lat="44.72606" lon="4.0074">
        <ele>1168.58</ele>
        <time>2021-07-19T06:42:36Z</time>
      </trkpt>
      <trkpt lat="44.72604" lon="4.00736">
        <ele>1168.57</ele>
        <time>2021-07-19T06:43:41Z</time>
      </trkpt>
      <trkpt lat="44.72603" lon="4.00737">
        <ele>1168.82</ele>
        <time>2021-07-19T06:44:34Z</time>
      </trkpt>
      <trkpt lat="44.72604" lon="4.00735">
        <ele>1168.68</ele>
        <time>2021-07-19T06:45:31Z</time>
      </trkpt>
      <trkpt lat="44.72604" lon="4.00737">
        <ele>1168.93</ele>
        <time>2021-07-19T06:46:09Z</time>
      </trkpt>
      <trkpt lat="44.72604" lon="4.00736">
        <ele>1168.62</ele>
        <time>2021-07-19T06:46:51Z</time>
      </trkpt>
      <trkpt lat="44.72602" lon="4.00737">
        <ele>1168.54</ele>
        <time>2021-07-19T06:47:46Z</time>
      </trkpt>
      <trkpt lat="44.72602" lon="4.00736">
        <ele>1168.7</ele>
        <time>2021-07-19T06:48:35Z</time>
      </trkpt>
      <trkpt lat="44.72599" lon="4.0073">
        <ele>1168.47</ele>
        <time>2021-07-19T06:49:20Z</time>
      </trkpt>
      <trkpt lat="44.72598" lon="4.00729">
        <ele>1168.35</ele>
        <time>2021-07-19T06:49:55Z</time>
      </trkpt>
      <trkpt lat="44.72599" lon="4.00731">
        <ele>1168.75</ele>
        <time>2021-07-19T06:50:30Z</time>
      </trkpt>
      <trkpt lat="44.72597" lon="4.00727">
        <ele>1168.75</ele>
        <time>2021-07-19T06:51:04Z</time>
      </trkpt>
      <trkpt lat="44.72595" lon="4.00721">
        <ele>1168.37</ele>
        <time>2021-07-19T06:51:22Z</time>
      </trkpt>
      <trkpt lat="44.72598" lon="4.00724">
        <ele>1168.61</ele>
        <time>2021-07-19T06:51:38Z</time>
      </trkpt>
      <trkpt lat="44.72602" lon="4.00726">
        <ele>1168.51</ele>
        <time>2021-07-19T06:51:42Z</time>
      </trkpt>
      <trkpt lat="44.72604" lon="4.00726">
        <ele>1168.47</ele>
        <time>2021-07-19T06:51:43Z</time>
      </trkpt>
      <trkpt lat="44.72606" lon="4.00727">
        <ele>1168.44</ele>
        <time>2021-07-19T06:51:44Z</time>
      </trkpt>
      <trkpt lat="44.72609" lon="4.00728">
        <ele>1168.41</ele>
        <time>2021-07-19T06:51:45Z</time>
      </trkpt>
      <trkpt lat="44.72611" lon="4.0073">
        <ele>1168.41</ele>
        <time>2021-07-19T06:51:46Z</time>
      </trkpt>
      <trkpt lat="44.72613" lon="4.00732">
        <ele>1168.41</ele>
        <time>2021-07-19T06:51:47Z</time>
      </trkpt>
      <trkpt lat="44.72616" lon="4.00734">
        <ele>1168.46</ele>
        <time>2021-07-19T06:51:48Z</time>
      </trkpt>
      <trkpt lat="44.72618" lon="4.00736">
        <ele>1168.61</ele>
        <time>2021-07-19T06:51:49Z</time>
      </trkpt>
      <trkpt lat="44.72651" lon="4.00757">
        <ele>1169.62</ele>
        <time>2021-07-19T06:52:02Z</time>
      </trkpt>
      <trkpt lat="44.72685" lon="4.00775">
        <ele>1171.71</ele>
        <time>2021-07-19T06:52:15Z</time>
      </trkpt>
      <trkpt lat="44.72716" lon="4.00778">
        <ele>1172.99</ele>
        <time>2021-07-19T06:52:30Z</time>
      </trkpt>
      <trkpt lat="44.72725" lon="4.00775">
        <ele>1173.44</ele>
        <time>2021-07-19T06:52:36Z</time>
      </trkpt>
      <trkpt lat="44.72754" lon="4.00751">
        <ele>1173.69</ele>
        <time>2021-07-19T06:52:51Z</time>
      </trkpt>
      <trkpt lat="44.72789" lon="4.00704">
        <ele>1174.66</ele>
        <time>2021-07-19T06:53:11Z</time>
      </trkpt>
      <trkpt lat="44.72813" lon="4.00673">
        <ele>1175.4</ele>
        <time>2021-07-19T06:53:25Z</time>
      </trkpt>
      <trkpt lat="44.72815" lon="4.00674">
        <ele>1175.41</ele>
        <time>2021-07-19T06:53:26Z</time>
      </trkpt>
      <trkpt lat="44.72817" lon="4.00675">
        <ele>1175.43</ele>
        <time>2021-07-19T06:53:27Z</time>
      </trkpt>
      <trkpt lat="44.72819" lon="4.00676">
        <ele>1175.45</ele>
        <time>2021-07-19T06:53:28Z</time>
      </trkpt>
      <trkpt lat="44.7282" lon="4.00678">
        <ele>1175.46</ele>
        <time>2021-07-19T06:53:29Z</time>
      </trkpt>
      <trkpt lat="44.7282" lon="4.0068">
        <ele>1175.5</ele>
        <time>2021-07-19T06:53:30Z</time>
      </trkpt>
      <trkpt lat="44.72821" lon="4.00682">
        <ele>1175.59</ele>
        <time>2021-07-19T06:53:31Z</time>
      </trkpt>
      <trkpt lat="44.72821" lon="4.00684">
        <ele>1175.73</ele>
        <time>2021-07-19T06:53:32Z</time>
      </trkpt>
      <trkpt lat="44.72822" lon="4.00687">
        <ele>1175.93</ele>
        <time>2021-07-19T06:53:33Z</time>
      </trkpt>
      <trkpt lat="44.72822" lon="4.0069">
        <ele>1176.18</ele>
        <time>2021-07-19T06:53:34Z</time>
      </trkpt>
      <trkpt lat="44.72822" lon="4.00692">
        <ele>1176.45</ele>
        <time>2021-07-19T06:53:35Z</time>
      </trkpt>
      <trkpt lat="44.72821" lon="4.00695">
        <ele>1176.69</ele>
        <time>2021-07-19T06:53:36Z</time>
      </trkpt>
      <trkpt lat="44.72821" lon="4.00698">
        <ele>1176.88</ele>
        <time>2021-07-19T06:53:37Z</time>
      </trkpt>
      <trkpt lat="44.7282" lon="4.00701">
        <ele>1177.04</ele>
        <time>2021-07-19T06:53:38Z</time>
      </trkpt>
      <trkpt lat="44.72804" lon="4.0072">
        <ele>1177.9</ele>
        <time>2021-07-19T06:53:48Z</time>
      </trkpt>
      <trkpt lat="44.72781" lon="4.0074">
        <ele>1179.67</ele>
        <time>2021-07-19T06:54:01Z</time>
      </trkpt>
      <trkpt lat="44.72757" lon="4.0077">
        <ele>1181.65</ele>
        <time>2021-07-19T06:54:16Z</time>
      </trkpt>
      <trkpt lat="44.72736" lon="4.00797">
        <ele>1183.2</ele>
        <time>2021-07-19T06:54:30Z</time>
      </trkpt>
      <trkpt lat="44.72724" lon="4.0084">
        <ele>1185.33</ele>
        <time>2021-07-19T06:54:45Z</time>
      </trkpt>
      <trkpt lat="44.72728" lon="4.00892">
        <ele>1187.86</ele>
        <time>2021-07-19T06:55:02Z</time>
      </trkpt>
      <trkpt lat="44.72743" lon="4.00931">
        <ele>1191</ele>
        <time>2021-07-19T06:55:19Z</time>
      </trkpt>
      <trkpt lat="44.72752" lon="4.00969">
        <ele>1191.91</ele>
        <time>2021-07-19T06:55:34Z</time>
      </trkpt>
      <trkpt lat="44.72729" lon="4.00984">
        <ele>1193.54</ele>
        <time>2021-07-19T06:55:48Z</time>
      </trkpt>
      <trkpt lat="44.72701" lon="4.00995">
        <ele>1195.64</ele>
        <time>2021-07-19T06:56:03Z</time>
      </trkpt>
      <trkpt lat="44.72679" lon="4.01026">
        <ele>1197.3</ele>
        <time>2021-07-19T06:56:19Z</time>
      </trkpt>
      <trkpt lat="44.72659" lon="4.01068">
        <ele>1199.22</ele>
        <time>2021-07-19T06:56:37Z</time>
      </trkpt>
      <trkpt lat="44.72634" lon="4.01103">
        <ele>1201.49</ele>
        <time>2021-07-19T06:56:53Z</time>
      </trkpt>
      <trkpt lat="44.72611" lon="4.01137">
        <ele>1203.08</ele>
        <time>2021-07-19T06:57:09Z</time>
      </trkpt>
      <trkpt lat="44.72595" lon="4.01169">
        <ele>1204.5</ele>
        <time>2021-07-19T06:57:23Z</time>
      </trkpt>
      <trkpt lat="44.72577" lon="4.01204">
        <ele>1206.44</ele>
        <time>2021-07-19T06:57:39Z</time>
      </trkpt>
      <trkpt lat="44.72563" lon="4.01251">
        <ele>1209.44</ele>
        <time>2021-07-19T06:57:57Z</time>
      </trkpt>
      <trkpt lat="44.72558" lon="4.01299">
        <ele>1210.98</ele>
        <time>2021-07-19T06:58:14Z</time>
      </trkpt>
      <trkpt lat="44.72561" lon="4.01343">
        <ele>1213.72</ele>
        <time>2021-07-19T06:58:30Z</time>
      </trkpt>
      <trkpt lat="44.72569" lon="4.01382">
        <ele>1215.6</ele>
        <time>2021-07-19T06:58:46Z</time>
      </trkpt>
      <trkpt lat="44.72584" lon="4.01419">
        <ele>1218.43</ele>
        <time>2021-07-19T06:59:03Z</time>
      </trkpt>
      <trkpt lat="44.72601" lon="4.01452">
        <ele>1220.18</ele>
        <time>2021-07-19T06:59:18Z</time>
      </trkpt>
      <trkpt lat="44.72588" lon="4.01482">
        <ele>1221.76</ele>
        <time>2021-07-19T06:59:31Z</time>
      </trkpt>
      <trkpt lat="44.72569" lon="4.01531">
        <ele>1224.34</ele>
        <time>2021-07-19T06:59:50Z</time>
      </trkpt>
      <trkpt lat="44.72568" lon="4.01577">
        <ele>1226.5</ele>
        <time>2021-07-19T07:00:05Z</time>
      </trkpt>
      <trkpt lat="44.72588" lon="4.01622">
        <ele>1229.1</ele>
        <time>2021-07-19T07:00:24Z</time>
      </trkpt>
      <trkpt lat="44.72617" lon="4.01623">
        <ele>1231.56</ele>
        <time>2021-07-19T07:00:40Z</time>
      </trkpt>
      <trkpt lat="44.72652" lon="4.01603">
        <ele>1233.7</ele>
        <time>2021-07-19T07:00:59Z</time>
      </trkpt>
      <trkpt lat="44.72654" lon="4.01604">
        <ele>1233.85</ele>
        <time>2021-07-19T07:01:00Z</time>
      </trkpt>
      <trkpt lat="44.72664" lon="4.01636">
        <ele>1236</ele>
        <time>2021-07-19T07:01:13Z</time>
      </trkpt>
      <trkpt lat="44.72649" lon="4.01676">
        <ele>1236.85</ele>
        <time>2021-07-19T07:01:26Z</time>
      </trkpt>
      <trkpt lat="44.72633" lon="4.01724">
        <ele>1238.16</ele>
        <time>2021-07-19T07:01:41Z</time>
      </trkpt>
      <trkpt lat="44.7261" lon="4.01787">
        <ele>1239.73</ele>
        <time>2021-07-19T07:02:00Z</time>
      </trkpt>
      <trkpt lat="44.72577" lon="4.01839">
        <ele>1241.4</ele>
        <time>2021-07-19T07:02:16Z</time>
      </trkpt>
      <trkpt lat="44.72544" lon="4.01898">
        <ele>1242.61</ele>
        <time>2021-07-19T07:02:33Z</time>
      </trkpt>
      <trkpt lat="44.7252" lon="4.01956">
        <ele>1244.14</ele>
        <time>2021-07-19T07:02:48Z</time>
      </trkpt>
      <trkpt lat="44.72508" lon="4.02019">
        <ele>1245.33</ele>
        <time>2021-07-19T07:03:04Z</time>
      </trkpt>
      <trkpt lat="44.72499" lon="4.02086">
        <ele>1247.22</ele>
        <time>2021-07-19T07:03:21Z</time>
      </trkpt>
      <trkpt lat="44.72475" lon="4.02135">
        <ele>1249.15</ele>
        <time>2021-07-19T07:03:35Z</time>
      </trkpt>
      <trkpt lat="44.72444" lon="4.02195">
        <ele>1250.2</ele>
        <time>2021-07-19T07:03:53Z</time>
      </trkpt>
      <trkpt lat="44.72409" lon="4.02253">
        <ele>1252.03</ele>
        <time>2021-07-19T07:04:11Z</time>
      </trkpt>
      <trkpt lat="44.72371" lon="4.02312">
        <ele>1255.23</ele>
        <time>2021-07-19T07:04:30Z</time>
      </trkpt>
      <trkpt lat="44.72332" lon="4.02381">
        <ele>1257.6</ele>
        <time>2021-07-19T07:04:50Z</time>
      </trkpt>
      <trkpt lat="44.72301" lon="4.02452">
        <ele>1259.65</ele>
        <time>2021-07-19T07:05:09Z</time>
      </trkpt>
      <trkpt lat="44.72294" lon="4.0251">
        <ele>1260.42</ele>
        <time>2021-07-19T07:05:23Z</time>
      </trkpt>
      <trkpt lat="44.72294" lon="4.02527">
        <ele>1260.54</ele>
        <time>2021-07-19T07:05:38Z</time>
      </trkpt>
      <trkpt lat="44.72296" lon="4.02526">
        <ele>1260.62</ele>
        <time>2021-07-19T07:06:04Z</time>
      </trkpt>
      <trkpt lat="44.72296" lon="4.02524">
        <ele>1261.55</ele>
        <time>2021-07-19T07:06:31Z</time>
      </trkpt>
      <trkpt lat="44.72294" lon="4.02525">
        <ele>1261.31</ele>
        <time>2021-07-19T07:07:00Z</time>
      </trkpt>
      <trkpt lat="44.72295" lon="4.02527">
        <ele>1260.58</ele>
        <time>2021-07-19T07:07:31Z</time>
      </trkpt>
      <trkpt lat="44.72295" lon="4.02525">
        <ele>1260.69</ele>
        <time>2021-07-19T07:08:05Z</time>
      </trkpt>
      <trkpt lat="44.72294" lon="4.02524">
        <ele>1260.64</ele>
        <time>2021-07-19T07:08:44Z</time>
      </trkpt>
      <trkpt lat="44.72292" lon="4.02545">
        <ele>1260.94</ele>
        <time>2021-07-19T07:09:07Z</time>
      </trkpt>
      <trkpt lat="44.72276" lon="4.02605">
        <ele>1261.35</ele>
        <time>2021-07-19T07:09:23Z</time>
      </trkpt>
      <trkpt lat="44.72257" lon="4.02632">
        <ele>1261.63</ele>
        <time>2021-07-19T07:09:34Z</time>
      </trkpt>
      <trkpt lat="44.72256" lon="4.02632">
        <ele>1262.89</ele>
        <time>2021-07-19T07:09:44Z</time>
      </trkpt>
      <trkpt lat="44.72233" lon="4.02653">
        <ele>1262.05</ele>
        <time>2021-07-19T07:09:54Z</time>
      </trkpt>
      <trkpt lat="44.7217" lon="4.02706">
        <ele>1260.18</ele>
        <time>2021-07-19T07:10:07Z</time>
      </trkpt>
      <trkpt lat="44.72093" lon="4.02787">
        <ele>1257.18</ele>
        <time>2021-07-19T07:10:19Z</time>
      </trkpt>
      <trkpt lat="44.72081" lon="4.02806">
        <ele>1256.53</ele>
        <time>2021-07-19T07:10:21Z</time>
      </trkpt>
      <trkpt lat="44.72076" lon="4.02816">
        <ele>1256.2</ele>
        <time>2021-07-19T07:10:22Z</time>
      </trkpt>
      <trkpt lat="44.72072" lon="4.02827">
        <ele>1255.85</ele>
        <time>2021-07-19T07:10:23Z</time>
      </trkpt>
      <trkpt lat="44.72068" lon="4.02839">
        <ele>1255.48</ele>
        <time>2021-07-19T07:10:24Z</time>
      </trkpt>
      <trkpt lat="44.72065" lon="4.02851">
        <ele>1255.11</ele>
        <time>2021-07-19T07:10:25Z</time>
      </trkpt>
      <trkpt lat="44.72048" lon="4.02906">
        <ele>1253.91</ele>
        <time>2021-07-19T07:10:30Z</time>
      </trkpt>
      <trkpt lat="44.72011" lon="4.02996">
        <ele>1253.76</ele>
        <time>2021-07-19T07:10:40Z</time>
      </trkpt>
      <trkpt lat="44.71981" lon="4.03041">
        <ele>1253.69</ele>
        <time>2021-07-19T07:10:47Z</time>
      </trkpt>
      <trkpt lat="44.71976" lon="4.03047">
        <ele>1253.61</ele>
        <time>2021-07-19T07:10:48Z</time>
      </trkpt>
      <trkpt lat="44.71905" lon="4.03126">
        <ele>1252</ele>
        <time>2021-07-19T07:11:01Z</time>
      </trkpt>
      <trkpt lat="44.71893" lon="4.03138">
        <ele>1251.52</ele>
        <time>2021-07-19T07:11:03Z</time>
      </trkpt>
      <trkpt lat="44.71887" lon="4.03143">
        <ele>1251.28</ele>
        <time>2021-07-19T07:11:04Z</time>
      </trkpt>
      <trkpt lat="44.71824" lon="4.03202">
        <ele>1249.63</ele>
        <time>2021-07-19T07:11:15Z</time>
      </trkpt>
      <trkpt lat="44.71789" lon="4.03229">
        <ele>1248.67</ele>
        <time>2021-07-19T07:11:21Z</time>
      </trkpt>
      <trkpt lat="44.71783" lon="4.03233">
        <ele>1248.55</ele>
        <time>2021-07-19T07:11:22Z</time>
      </trkpt>
      <trkpt lat="44.71777" lon="4.03238">
        <ele>1248.45</ele>
        <time>2021-07-19T07:11:23Z</time>
      </trkpt>
      <trkpt lat="44.71749" lon="4.03265">
        <ele>1247.91</ele>
        <time>2021-07-19T07:11:28Z</time>
      </trkpt>
      <trkpt lat="44.71745" lon="4.03272">
        <ele>1247.78</ele>
        <time>2021-07-19T07:11:29Z</time>
      </trkpt>
      <trkpt lat="44.71742" lon="4.03281">
        <ele>1247.68</ele>
        <time>2021-07-19T07:11:30Z</time>
      </trkpt>
      <trkpt lat="44.7174" lon="4.03288">
        <ele>1247.56</ele>
        <time>2021-07-19T07:11:31Z</time>
      </trkpt>
      <trkpt lat="44.71739" lon="4.03296">
        <ele>1247.44</ele>
        <time>2021-07-19T07:11:32Z</time>
      </trkpt>
      <trkpt lat="44.71739" lon="4.03305">
        <ele>1247.33</ele>
        <time>2021-07-19T07:11:33Z</time>
      </trkpt>
      <trkpt lat="44.7174" lon="4.03314">
        <ele>1247.23</ele>
        <time>2021-07-19T07:11:34Z</time>
      </trkpt>
      <trkpt lat="44.71742" lon="4.03322">
        <ele>1247.14</ele>
        <time>2021-07-19T07:11:35Z</time>
      </trkpt>
      <trkpt lat="44.71744" lon="4.0333">
        <ele>1247.08</ele>
        <time>2021-07-19T07:11:36Z</time>
      </trkpt>
      <trkpt lat="44.71747" lon="4.03336">
        <ele>1247</ele>
        <time>2021-07-19T07:11:37Z</time>
      </trkpt>
      <trkpt lat="44.7175" lon="4.03342">
        <ele>1246.89</ele>
        <time>2021-07-19T07:11:38Z</time>
      </trkpt>
      <trkpt lat="44.71753" lon="4.03347">
        <ele>1246.82</ele>
        <time>2021-07-19T07:11:39Z</time>
      </trkpt>
      <trkpt lat="44.71757" lon="4.03352">
        <ele>1246.75</ele>
        <time>2021-07-19T07:11:40Z</time>
      </trkpt>
      <trkpt lat="44.71761" lon="4.03356">
        <ele>1246.72</ele>
        <time>2021-07-19T07:11:41Z</time>
      </trkpt>
      <trkpt lat="44.71792" lon="4.03388">
        <ele>1247.07</ele>
        <time>2021-07-19T07:11:49Z</time>
      </trkpt>
      <trkpt lat="44.71806" lon="4.034">
        <ele>1247.33</ele>
        <time>2021-07-19T07:11:52Z</time>
      </trkpt>
      <trkpt lat="44.71811" lon="4.03404">
        <ele>1247.47</ele>
        <time>2021-07-19T07:11:53Z</time>
      </trkpt>
      <trkpt lat="44.71815" lon="4.03406">
        <ele>1247.62</ele>
        <time>2021-07-19T07:11:54Z</time>
      </trkpt>
      <trkpt lat="44.71819" lon="4.03407">
        <ele>1247.78</ele>
        <time>2021-07-19T07:11:55Z</time>
      </trkpt>
      <trkpt lat="44.71824" lon="4.03409">
        <ele>1247.94</ele>
        <time>2021-07-19T07:11:56Z</time>
      </trkpt>
      <trkpt lat="44.71829" lon="4.03409">
        <ele>1248.08</ele>
        <time>2021-07-19T07:11:57Z</time>
      </trkpt>
      <trkpt lat="44.71833" lon="4.0341">
        <ele>1248.25</ele>
        <time>2021-07-19T07:11:58Z</time>
      </trkpt>
      <trkpt lat="44.71838" lon="4.03411">
        <ele>1248.44</ele>
        <time>2021-07-19T07:11:59Z</time>
      </trkpt>
      <trkpt lat="44.71848" lon="4.03414">
        <ele>1248.8</ele>
        <time>2021-07-19T07:12:01Z</time>
      </trkpt>
      <trkpt lat="44.71853" lon="4.03415">
        <ele>1248.92</ele>
        <time>2021-07-19T07:12:02Z</time>
      </trkpt>
      <trkpt lat="44.71857" lon="4.03415">
        <ele>1249.01</ele>
        <time>2021-07-19T07:12:03Z</time>
      </trkpt>
      <trkpt lat="44.71901" lon="4.03415">
        <ele>1251.49</ele>
        <time>2021-07-19T07:12:15Z</time>
      </trkpt>
      <trkpt lat="44.71941" lon="4.03409">
        <ele>1253.07</ele>
        <time>2021-07-19T07:12:28Z</time>
      </trkpt>
      <trkpt lat="44.71952" lon="4.0341">
        <ele>1253.41</ele>
        <time>2021-07-19T07:12:31Z</time>
      </trkpt>
      <trkpt lat="44.71992" lon="4.03406">
        <ele>1253.36</ele>
        <time>2021-07-19T07:12:41Z</time>
      </trkpt>
      <trkpt lat="44.72021" lon="4.03406">
        <ele>1253.32</ele>
        <time>2021-07-19T07:12:48Z</time>
      </trkpt>
      <trkpt lat="44.72044" lon="4.0341">
        <ele>1253.35</ele>
        <time>2021-07-19T07:12:53Z</time>
      </trkpt>
      <trkpt lat="44.72069" lon="4.03419">
        <ele>1253.71</ele>
        <time>2021-07-19T07:12:58Z</time>
      </trkpt>
      <trkpt lat="44.72079" lon="4.03424">
        <ele>1253.69</ele>
        <time>2021-07-19T07:13:00Z</time>
      </trkpt>
      <trkpt lat="44.72084" lon="4.03429">
        <ele>1253.63</ele>
        <time>2021-07-19T07:13:01Z</time>
      </trkpt>
      <trkpt lat="44.72089" lon="4.03433">
        <ele>1253.55</ele>
        <time>2021-07-19T07:13:02Z</time>
      </trkpt>
      <trkpt lat="44.72159" lon="4.03507">
        <ele>1250.87</ele>
        <time>2021-07-19T07:13:14Z</time>
      </trkpt>
      <trkpt lat="44.72165" lon="4.03513">
        <ele>1250.6</ele>
        <time>2021-07-19T07:13:15Z</time>
      </trkpt>
      <trkpt lat="44.72172" lon="4.03518">
        <ele>1250.32</ele>
        <time>2021-07-19T07:13:16Z</time>
      </trkpt>
      <trkpt lat="44.7218" lon="4.03523">
        <ele>1249.99</ele>
        <time>2021-07-19T07:13:17Z</time>
      </trkpt>
      <trkpt lat="44.72189" lon="4.03527">
        <ele>1249.59</ele>
        <time>2021-07-19T07:13:18Z</time>
      </trkpt>
      <trkpt lat="44.72198" lon="4.03528">
        <ele>1249.17</ele>
        <time>2021-07-19T07:13:19Z</time>
      </trkpt>
      <trkpt lat="44.72207" lon="4.03528">
        <ele>1248.75</ele>
        <time>2021-07-19T07:13:20Z</time>
      </trkpt>
      <trkpt lat="44.72217" lon="4.03528">
        <ele>1248.31</ele>
        <time>2021-07-19T07:13:21Z</time>
      </trkpt>
      <trkpt lat="44.72283" lon="4.03521">
        <ele>1245.11</ele>
        <time>2021-07-19T07:13:27Z</time>
      </trkpt>
      <trkpt lat="44.72325" lon="4.03516">
        <ele>1241.51</ele>
        <time>2021-07-19T07:13:31Z</time>
      </trkpt>
      <trkpt lat="44.72368" lon="4.0351">
        <ele>1237.61</ele>
        <time>2021-07-19T07:13:35Z</time>
      </trkpt>
      <trkpt lat="44.72409" lon="4.03508">
        <ele>1233.92</ele>
        <time>2021-07-19T07:13:39Z</time>
      </trkpt>
      <trkpt lat="44.72419" lon="4.03511">
        <ele>1233.08</ele>
        <time>2021-07-19T07:13:40Z</time>
      </trkpt>
      <trkpt lat="44.72429" lon="4.03515">
        <ele>1232.25</ele>
        <time>2021-07-19T07:13:41Z</time>
      </trkpt>
      <trkpt lat="44.72468" lon="4.03539">
        <ele>1229.18</ele>
        <time>2021-07-19T07:13:45Z</time>
      </trkpt>
      <trkpt lat="44.72505" lon="4.03572">
        <ele>1226.08</ele>
        <time>2021-07-19T07:13:49Z</time>
      </trkpt>
      <trkpt lat="44.72542" lon="4.0362">
        <ele>1222.86</ele>
        <time>2021-07-19T07:13:54Z</time>
      </trkpt>
      <trkpt lat="44.72587" lon="4.03681">
        <ele>1219.24</ele>
        <time>2021-07-19T07:14:00Z</time>
      </trkpt>
      <trkpt lat="44.72621" lon="4.03732">
        <ele>1215.61</ele>
        <time>2021-07-19T07:14:05Z</time>
      </trkpt>
      <trkpt lat="44.72645" lon="4.0379">
        <ele>1212.55</ele>
        <time>2021-07-19T07:14:10Z</time>
      </trkpt>
      <trkpt lat="44.72659" lon="4.03829">
        <ele>1210.33</ele>
        <time>2021-07-19T07:14:14Z</time>
      </trkpt>
      <trkpt lat="44.72663" lon="4.03851">
        <ele>1209.39</ele>
        <time>2021-07-19T07:14:16Z</time>
      </trkpt>
      <trkpt lat="44.72664" lon="4.03862">
        <ele>1208.91</ele>
        <time>2021-07-19T07:14:17Z</time>
      </trkpt>
      <trkpt lat="44.72664" lon="4.03875">
        <ele>1208.28</ele>
        <time>2021-07-19T07:14:18Z</time>
      </trkpt>
      <trkpt lat="44.72663" lon="4.03887">
        <ele>1207.06</ele>
        <time>2021-07-19T07:14:19Z</time>
      </trkpt>
      <trkpt lat="44.72662" lon="4.039">
        <ele>1206.46</ele>
        <time>2021-07-19T07:14:20Z</time>
      </trkpt>
      <trkpt lat="44.72651" lon="4.03987">
        <ele>1203.04</ele>
        <time>2021-07-19T07:14:26Z</time>
      </trkpt>
      <trkpt lat="44.72643" lon="4.04058">
        <ele>1199.84</ele>
        <time>2021-07-19T07:14:31Z</time>
      </trkpt>
      <trkpt lat="44.72643" lon="4.04082">
        <ele>1199.07</ele>
        <time>2021-07-19T07:14:33Z</time>
      </trkpt>
      <trkpt lat="44.72644" lon="4.04093">
        <ele>1198.75</ele>
        <time>2021-07-19T07:14:34Z</time>
      </trkpt>
      <trkpt lat="44.72647" lon="4.04104">
        <ele>1198.39</ele>
        <time>2021-07-19T07:14:35Z</time>
      </trkpt>
      <trkpt lat="44.7265" lon="4.04113">
        <ele>1197.97</ele>
        <time>2021-07-19T07:14:36Z</time>
      </trkpt>
      <trkpt lat="44.72654" lon="4.04123">
        <ele>1197.51</ele>
        <time>2021-07-19T07:14:37Z</time>
      </trkpt>
      <trkpt lat="44.72659" lon="4.04132">
        <ele>1197.06</ele>
        <time>2021-07-19T07:14:38Z</time>
      </trkpt>
      <trkpt lat="44.72665" lon="4.04141">
        <ele>1196.62</ele>
        <time>2021-07-19T07:14:39Z</time>
      </trkpt>
      <trkpt lat="44.72698" lon="4.04193">
        <ele>1194.25</ele>
        <time>2021-07-19T07:14:44Z</time>
      </trkpt>
      <trkpt lat="44.72704" lon="4.04206">
        <ele>1193.04</ele>
        <time>2021-07-19T07:14:45Z</time>
      </trkpt>
      <trkpt lat="44.72708" lon="4.04219">
        <ele>1192.39</ele>
        <time>2021-07-19T07:14:46Z</time>
      </trkpt>
      <trkpt lat="44.72712" lon="4.04232">
        <ele>1191.78</ele>
        <time>2021-07-19T07:14:47Z</time>
      </trkpt>
      <trkpt lat="44.72714" lon="4.04246">
        <ele>1191.21</ele>
        <time>2021-07-19T07:14:48Z</time>
      </trkpt>
      <trkpt lat="44.72716" lon="4.04259">
        <ele>1190.72</ele>
        <time>2021-07-19T07:14:49Z</time>
      </trkpt>
      <trkpt lat="44.72718" lon="4.0427">
        <ele>1190.26</ele>
        <time>2021-07-19T07:14:50Z</time>
      </trkpt>
      <trkpt lat="44.72722" lon="4.04281">
        <ele>1189.86</ele>
        <time>2021-07-19T07:14:51Z</time>
      </trkpt>
      <trkpt lat="44.72727" lon="4.04289">
        <ele>1189.52</ele>
        <time>2021-07-19T07:14:52Z</time>
      </trkpt>
      <trkpt lat="44.72733" lon="4.04296">
        <ele>1189.26</ele>
        <time>2021-07-19T07:14:53Z</time>
      </trkpt>
      <trkpt lat="44.7274" lon="4.04301">
        <ele>1189.03</ele>
        <time>2021-07-19T07:14:54Z</time>
      </trkpt>
      <trkpt lat="44.72768" lon="4.04328">
        <ele>1188.25</ele>
        <time>2021-07-19T07:14:59Z</time>
      </trkpt>
      <trkpt lat="44.72772" lon="4.04335">
        <ele>1188.16</ele>
        <time>2021-07-19T07:15:00Z</time>
      </trkpt>
      <trkpt lat="44.72776" lon="4.04341">
        <ele>1188.1</ele>
        <time>2021-07-19T07:15:01Z</time>
      </trkpt>
      <trkpt lat="44.72778" lon="4.04348">
        <ele>1188.05</ele>
        <time>2021-07-19T07:15:02Z</time>
      </trkpt>
      <trkpt lat="44.7278" lon="4.04355">
        <ele>1188.06</ele>
        <time>2021-07-19T07:15:03Z</time>
      </trkpt>
      <trkpt lat="44.72781" lon="4.04363">
        <ele>1188.13</ele>
        <time>2021-07-19T07:15:04Z</time>
      </trkpt>
      <trkpt lat="44.72782" lon="4.0437">
        <ele>1188.24</ele>
        <time>2021-07-19T07:15:05Z</time>
      </trkpt>
      <trkpt lat="44.72782" lon="4.04377">
        <ele>1188.34</ele>
        <time>2021-07-19T07:15:06Z</time>
      </trkpt>
      <trkpt lat="44.72781" lon="4.04383">
        <ele>1188.43</ele>
        <time>2021-07-19T07:15:07Z</time>
      </trkpt>
      <trkpt lat="44.7278" lon="4.04389">
        <ele>1188.5</ele>
        <time>2021-07-19T07:15:08Z</time>
      </trkpt>
      <trkpt lat="44.72778" lon="4.04395">
        <ele>1188.58</ele>
        <time>2021-07-19T07:15:09Z</time>
      </trkpt>
      <trkpt lat="44.72777" lon="4.04401">
        <ele>1188.65</ele>
        <time>2021-07-19T07:15:10Z</time>
      </trkpt>
      <trkpt lat="44.72774" lon="4.04406">
        <ele>1188.8</ele>
        <time>2021-07-19T07:15:11Z</time>
      </trkpt>
      <trkpt lat="44.7277" lon="4.04417">
        <ele>1189</ele>
        <time>2021-07-19T07:15:13Z</time>
      </trkpt>
      <trkpt lat="44.72762" lon="4.04433">
        <ele>1189.24</ele>
        <time>2021-07-19T07:15:16Z</time>
      </trkpt>
      <trkpt lat="44.72756" lon="4.04442">
        <ele>1189.36</ele>
        <time>2021-07-19T07:15:18Z</time>
      </trkpt>
      <trkpt lat="44.72746" lon="4.04452">
        <ele>1189.51</ele>
        <time>2021-07-19T07:15:21Z</time>
      </trkpt>
      <trkpt lat="44.72743" lon="4.04455">
        <ele>1189.56</ele>
        <time>2021-07-19T07:15:22Z</time>
      </trkpt>
      <trkpt lat="44.72739" lon="4.04457">
        <ele>1189.62</ele>
        <time>2021-07-19T07:15:23Z</time>
      </trkpt>
      <trkpt lat="44.72713" lon="4.04479">
        <ele>1191.32</ele>
        <time>2021-07-19T07:15:32Z</time>
      </trkpt>
      <trkpt lat="44.72712" lon="4.04485">
        <ele>1191.46</ele>
        <time>2021-07-19T07:15:33Z</time>
      </trkpt>
      <trkpt lat="44.72712" lon="4.04491">
        <ele>1191.53</ele>
        <time>2021-07-19T07:15:34Z</time>
      </trkpt>
      <trkpt lat="44.72712" lon="4.04498">
        <ele>1191.49</ele>
        <time>2021-07-19T07:15:35Z</time>
      </trkpt>
      <trkpt lat="44.72713" lon="4.04503">
        <ele>1191.29</ele>
        <time>2021-07-19T07:15:36Z</time>
      </trkpt>
      <trkpt lat="44.72734" lon="4.04544">
        <ele>1191</ele>
        <time>2021-07-19T07:15:45Z</time>
      </trkpt>
      <trkpt lat="44.72737" lon="4.0455">
        <ele>1190.96</ele>
        <time>2021-07-19T07:15:46Z</time>
      </trkpt>
      <trkpt lat="44.72745" lon="4.0457">
        <ele>1190.68</ele>
        <time>2021-07-19T07:15:49Z</time>
      </trkpt>
      <trkpt lat="44.72747" lon="4.04579">
        <ele>1190.57</ele>
        <time>2021-07-19T07:15:50Z</time>
      </trkpt>
      <trkpt lat="44.72749" lon="4.04587">
        <ele>1190.49</ele>
        <time>2021-07-19T07:15:51Z</time>
      </trkpt>
      <trkpt lat="44.72775" lon="4.04697">
        <ele>1187.47</ele>
        <time>2021-07-19T07:16:02Z</time>
      </trkpt>
      <trkpt lat="44.72811" lon="4.04795">
        <ele>1184.78</ele>
        <time>2021-07-19T07:16:12Z</time>
      </trkpt>
      <trkpt lat="44.72816" lon="4.04801">
        <ele>1184.5</ele>
        <time>2021-07-19T07:16:13Z</time>
      </trkpt>
      <trkpt lat="44.72837" lon="4.04826">
        <ele>1183.55</ele>
        <time>2021-07-19T07:16:17Z</time>
      </trkpt>
      <trkpt lat="44.72867" lon="4.04856">
        <ele>1182.14</ele>
        <time>2021-07-19T07:16:22Z</time>
      </trkpt>
      <trkpt lat="44.72873" lon="4.0486">
        <ele>1181.9</ele>
        <time>2021-07-19T07:16:23Z</time>
      </trkpt>
      <trkpt lat="44.7288" lon="4.04864">
        <ele>1181.7</ele>
        <time>2021-07-19T07:16:24Z</time>
      </trkpt>
      <trkpt lat="44.72886" lon="4.04867">
        <ele>1181.19</ele>
        <time>2021-07-19T07:16:25Z</time>
      </trkpt>
      <trkpt lat="44.72892" lon="4.0487">
        <ele>1180.76</ele>
        <time>2021-07-19T07:16:26Z</time>
      </trkpt>
      <trkpt lat="44.72899" lon="4.0487">
        <ele>1180.24</ele>
        <time>2021-07-19T07:16:27Z</time>
      </trkpt>
      <trkpt lat="44.72907" lon="4.04873">
        <ele>1179.77</ele>
        <time>2021-07-19T07:16:28Z</time>
      </trkpt>
      <trkpt lat="44.72914" lon="4.04875">
        <ele>1179.37</ele>
        <time>2021-07-19T07:16:29Z</time>
      </trkpt>
      <trkpt lat="44.7297" lon="4.04889">
        <ele>1175.95</ele>
        <time>2021-07-19T07:16:36Z</time>
      </trkpt>
      <trkpt lat="44.72987" lon="4.04891">
        <ele>1174.85</ele>
        <time>2021-07-19T07:16:38Z</time>
      </trkpt>
      <trkpt lat="44.73004" lon="4.04888">
        <ele>1173.78</ele>
        <time>2021-07-19T07:16:40Z</time>
      </trkpt>
      <trkpt lat="44.73013" lon="4.04885">
        <ele>1173.28</ele>
        <time>2021-07-19T07:16:41Z</time>
      </trkpt>
      <trkpt lat="44.7303" lon="4.04878">
        <ele>1172</ele>
        <time>2021-07-19T07:16:43Z</time>
      </trkpt>
      <trkpt lat="44.73038" lon="4.04873">
        <ele>1171.37</ele>
        <time>2021-07-19T07:16:44Z</time>
      </trkpt>
      <trkpt lat="44.73046" lon="4.04869">
        <ele>1170.86</ele>
        <time>2021-07-19T07:16:45Z</time>
      </trkpt>
      <trkpt lat="44.73079" lon="4.04858">
        <ele>1168.28</ele>
        <time>2021-07-19T07:16:49Z</time>
      </trkpt>
      <trkpt lat="44.73086" lon="4.04858">
        <ele>1168.28</ele>
        <time>2021-07-19T07:16:50Z</time>
      </trkpt>
      <trkpt lat="44.73103" lon="4.04857">
        <ele>1165.79</ele>
        <time>2021-07-19T07:16:53Z</time>
      </trkpt>
      <trkpt lat="44.73109" lon="4.04859">
        <ele>1165.2</ele>
        <time>2021-07-19T07:16:54Z</time>
      </trkpt>
      <trkpt lat="44.73114" lon="4.04862">
        <ele>1164.65</ele>
        <time>2021-07-19T07:16:55Z</time>
      </trkpt>
      <trkpt lat="44.7312" lon="4.04867">
        <ele>1164.13</ele>
        <time>2021-07-19T07:16:56Z</time>
      </trkpt>
      <trkpt lat="44.73125" lon="4.04874">
        <ele>1163.62</ele>
        <time>2021-07-19T07:16:57Z</time>
      </trkpt>
      <trkpt lat="44.73131" lon="4.04884">
        <ele>1163.1</ele>
        <time>2021-07-19T07:16:58Z</time>
      </trkpt>
      <trkpt lat="44.73136" lon="4.04895">
        <ele>1162.61</ele>
        <time>2021-07-19T07:16:59Z</time>
      </trkpt>
      <trkpt lat="44.73177" lon="4.04981">
        <ele>1159.47</ele>
        <time>2021-07-19T07:17:07Z</time>
      </trkpt>
      <trkpt lat="44.73199" lon="4.05026">
        <ele>1156.44</ele>
        <time>2021-07-19T07:17:12Z</time>
      </trkpt>
      <trkpt lat="44.73205" lon="4.05042">
        <ele>1154.98</ele>
        <time>2021-07-19T07:17:14Z</time>
      </trkpt>
      <trkpt lat="44.73207" lon="4.05051">
        <ele>1153.72</ele>
        <time>2021-07-19T07:17:15Z</time>
      </trkpt>
      <trkpt lat="44.73207" lon="4.0506">
        <ele>1153.18</ele>
        <time>2021-07-19T07:17:16Z</time>
      </trkpt>
      <trkpt lat="44.73207" lon="4.05069">
        <ele>1152.68</ele>
        <time>2021-07-19T07:17:17Z</time>
      </trkpt>
      <trkpt lat="44.73205" lon="4.05078">
        <ele>1152.21</ele>
        <time>2021-07-19T07:17:18Z</time>
      </trkpt>
      <trkpt lat="44.73204" lon="4.05088">
        <ele>1151.8</ele>
        <time>2021-07-19T07:17:19Z</time>
      </trkpt>
      <trkpt lat="44.732" lon="4.05104">
        <ele>1151.11</ele>
        <time>2021-07-19T07:17:21Z</time>
      </trkpt>
      <trkpt lat="44.732" lon="4.05112">
        <ele>1150.74</ele>
        <time>2021-07-19T07:17:22Z</time>
      </trkpt>
      <trkpt lat="44.73201" lon="4.05119">
        <ele>1150.35</ele>
        <time>2021-07-19T07:17:23Z</time>
      </trkpt>
      <trkpt lat="44.73204" lon="4.05126">
        <ele>1149.98</ele>
        <time>2021-07-19T07:17:24Z</time>
      </trkpt>
      <trkpt lat="44.73207" lon="4.05132">
        <ele>1149.69</ele>
        <time>2021-07-19T07:17:25Z</time>
      </trkpt>
      <trkpt lat="44.73212" lon="4.05137">
        <ele>1149.44</ele>
        <time>2021-07-19T07:17:26Z</time>
      </trkpt>
      <trkpt lat="44.73217" lon="4.05141">
        <ele>1149.25</ele>
        <time>2021-07-19T07:17:27Z</time>
      </trkpt>
      <trkpt lat="44.73222" lon="4.05143">
        <ele>1149.11</ele>
        <time>2021-07-19T07:17:28Z</time>
      </trkpt>
      <trkpt lat="44.73227" lon="4.05145">
        <ele>1149.02</ele>
        <time>2021-07-19T07:17:29Z</time>
      </trkpt>
      <trkpt lat="44.7323" lon="4.05146">
        <ele>1149.03</ele>
        <time>2021-07-19T07:17:30Z</time>
      </trkpt>
      <trkpt lat="44.73233" lon="4.05146">
        <ele>1149.15</ele>
        <time>2021-07-19T07:17:31Z</time>
      </trkpt>
      <trkpt lat="44.73236" lon="4.05146">
        <ele>1149.33</ele>
        <time>2021-07-19T07:17:32Z</time>
      </trkpt>
      <trkpt lat="44.73238" lon="4.05144">
        <ele>1149.54</ele>
        <time>2021-07-19T07:17:33Z</time>
      </trkpt>
      <trkpt lat="44.73267" lon="4.05151">
        <ele>1151.25</ele>
        <time>2021-07-19T07:17:43Z</time>
      </trkpt>
      <trkpt lat="44.73278" lon="4.05153">
        <ele>1151.92</ele>
        <time>2021-07-19T07:17:49Z</time>
      </trkpt>
      <trkpt lat="44.7328" lon="4.05152">
        <ele>1152.04</ele>
        <time>2021-07-19T07:17:50Z</time>
      </trkpt>
      <trkpt lat="44.73282" lon="4.05152">
        <ele>1152.13</ele>
        <time>2021-07-19T07:17:51Z</time>
      </trkpt>
      <trkpt lat="44.73298" lon="4.05154">
        <ele>1153.58</ele>
        <time>2021-07-19T07:17:59Z</time>
      </trkpt>
      <trkpt lat="44.73329" lon="4.05158">
        <ele>1155.67</ele>
        <time>2021-07-19T07:18:13Z</time>
      </trkpt>
      <trkpt lat="44.73358" lon="4.05166">
        <ele>1157.94</ele>
        <time>2021-07-19T07:18:26Z</time>
      </trkpt>
      <trkpt lat="44.73383" lon="4.05175">
        <ele>1160.72</ele>
        <time>2021-07-19T07:18:39Z</time>
      </trkpt>
      <trkpt lat="44.73409" lon="4.05181">
        <ele>1161.83</ele>
        <time>2021-07-19T07:18:53Z</time>
      </trkpt>
      <trkpt lat="44.73434" lon="4.05191">
        <ele>1163.23</ele>
        <time>2021-07-19T07:19:05Z</time>
      </trkpt>
      <trkpt lat="44.73469" lon="4.05228">
        <ele>1164.37</ele>
        <time>2021-07-19T07:19:19Z</time>
      </trkpt>
      <trkpt lat="44.73473" lon="4.05237">
        <ele>1164.39</ele>
        <time>2021-07-19T07:19:21Z</time>
      </trkpt>
      <trkpt lat="44.73475" lon="4.05243">
        <ele>1164.38</ele>
        <time>2021-07-19T07:19:22Z</time>
      </trkpt>
      <trkpt lat="44.73476" lon="4.05251">
        <ele>1164.33</ele>
        <time>2021-07-19T07:19:23Z</time>
      </trkpt>
      <trkpt lat="44.73476" lon="4.05259">
        <ele>1164.23</ele>
        <time>2021-07-19T07:19:24Z</time>
      </trkpt>
      <trkpt lat="44.73475" lon="4.05268">
        <ele>1164.08</ele>
        <time>2021-07-19T07:19:25Z</time>
      </trkpt>
      <trkpt lat="44.73474" lon="4.05277">
        <ele>1163.89</ele>
        <time>2021-07-19T07:19:26Z</time>
      </trkpt>
      <trkpt lat="44.73472" lon="4.05287">
        <ele>1163.63</ele>
        <time>2021-07-19T07:19:27Z</time>
      </trkpt>
      <trkpt lat="44.73464" lon="4.05329">
        <ele>1162.1</ele>
        <time>2021-07-19T07:19:31Z</time>
      </trkpt>
      <trkpt lat="44.73463" lon="4.05339">
        <ele>1161.62</ele>
        <time>2021-07-19T07:19:32Z</time>
      </trkpt>
      <trkpt lat="44.73464" lon="4.05347">
        <ele>1161.16</ele>
        <time>2021-07-19T07:19:33Z</time>
      </trkpt>
      <trkpt lat="44.73466" lon="4.05354">
        <ele>1160.71</ele>
        <time>2021-07-19T07:19:34Z</time>
      </trkpt>
      <trkpt lat="44.7347" lon="4.0536">
        <ele>1160.29</ele>
        <time>2021-07-19T07:19:35Z</time>
      </trkpt>
      <trkpt lat="44.73476" lon="4.05365">
        <ele>1159.92</ele>
        <time>2021-07-19T07:19:36Z</time>
      </trkpt>
      <trkpt lat="44.73483" lon="4.0537">
        <ele>1159.59</ele>
        <time>2021-07-19T07:19:37Z</time>
      </trkpt>
      <trkpt lat="44.73491" lon="4.05372">
        <ele>1159.24</ele>
        <time>2021-07-19T07:19:38Z</time>
      </trkpt>
      <trkpt lat="44.73499" lon="4.0537">
        <ele>1158.75</ele>
        <time>2021-07-19T07:19:39Z</time>
      </trkpt>
      <trkpt lat="44.73507" lon="4.05368">
        <ele>1158.24</ele>
        <time>2021-07-19T07:19:40Z</time>
      </trkpt>
      <trkpt lat="44.73516" lon="4.05365">
        <ele>1157.84</ele>
        <time>2021-07-19T07:19:41Z</time>
      </trkpt>
      <trkpt lat="44.73531" lon="4.05361">
        <ele>1157</ele>
        <time>2021-07-19T07:19:43Z</time>
      </trkpt>
      <trkpt lat="44.73539" lon="4.0536">
        <ele>1156.81</ele>
        <time>2021-07-19T07:19:44Z</time>
      </trkpt>
      <trkpt lat="44.73546" lon="4.05359">
        <ele>1156.69</ele>
        <time>2021-07-19T07:19:45Z</time>
      </trkpt>
      <trkpt lat="44.73554" lon="4.0536">
        <ele>1156.66</ele>
        <time>2021-07-19T07:19:46Z</time>
      </trkpt>
      <trkpt lat="44.73561" lon="4.05361">
        <ele>1156.56</ele>
        <time>2021-07-19T07:19:47Z</time>
      </trkpt>
      <trkpt lat="44.73582" lon="4.05366">
        <ele>1156.13</ele>
        <time>2021-07-19T07:19:50Z</time>
      </trkpt>
      <trkpt lat="44.73616" lon="4.05386">
        <ele>1154.87</ele>
        <time>2021-07-19T07:19:55Z</time>
      </trkpt>
      <trkpt lat="44.73622" lon="4.05393">
        <ele>1154.64</ele>
        <time>2021-07-19T07:19:56Z</time>
      </trkpt>
      <trkpt lat="44.73665" lon="4.05437">
        <ele>1152.62</ele>
        <time>2021-07-19T07:20:03Z</time>
      </trkpt>
      <trkpt lat="44.7367" lon="4.05445">
        <ele>1152.25</ele>
        <time>2021-07-19T07:20:04Z</time>
      </trkpt>
      <trkpt lat="44.73673" lon="4.05454">
        <ele>1151.9</ele>
        <time>2021-07-19T07:20:05Z</time>
      </trkpt>
      <trkpt lat="44.73677" lon="4.05465">
        <ele>1151.53</ele>
        <time>2021-07-19T07:20:06Z</time>
      </trkpt>
      <trkpt lat="44.7368" lon="4.05476">
        <ele>1150.81</ele>
        <time>2021-07-19T07:20:07Z</time>
      </trkpt>
      <trkpt lat="44.73683" lon="4.05488">
        <ele>1150.81</ele>
        <time>2021-07-19T07:20:08Z</time>
      </trkpt>
      <trkpt lat="44.73686" lon="4.055">
        <ele>1150.13</ele>
        <time>2021-07-19T07:20:09Z</time>
      </trkpt>
      <trkpt lat="44.73688" lon="4.05512">
        <ele>1149.8</ele>
        <time>2021-07-19T07:20:10Z</time>
      </trkpt>
      <trkpt lat="44.73691" lon="4.0555">
        <ele>1148.77</ele>
        <time>2021-07-19T07:20:13Z</time>
      </trkpt>
      <trkpt lat="44.73692" lon="4.056">
        <ele>1147.31</ele>
        <time>2021-07-19T07:20:17Z</time>
      </trkpt>
      <trkpt lat="44.73694" lon="4.05613">
        <ele>1147.04</ele>
        <time>2021-07-19T07:20:18Z</time>
      </trkpt>
      <trkpt lat="44.73695" lon="4.05626">
        <ele>1146.8</ele>
        <time>2021-07-19T07:20:19Z</time>
      </trkpt>
      <trkpt lat="44.73697" lon="4.05639">
        <ele>1146.61</ele>
        <time>2021-07-19T07:20:20Z</time>
      </trkpt>
      <trkpt lat="44.737" lon="4.05652">
        <ele>1146.43</ele>
        <time>2021-07-19T07:20:21Z</time>
      </trkpt>
      <trkpt lat="44.73703" lon="4.05665">
        <ele>1146.29</ele>
        <time>2021-07-19T07:20:22Z</time>
      </trkpt>
      <trkpt lat="44.73716" lon="4.05702">
        <ele>1144.8</ele>
        <time>2021-07-19T07:20:25Z</time>
      </trkpt>
      <trkpt lat="44.73722" lon="4.05713">
        <ele>1144.05</ele>
        <time>2021-07-19T07:20:26Z</time>
      </trkpt>
      <trkpt lat="44.73729" lon="4.05722">
        <ele>1143.26</ele>
        <time>2021-07-19T07:20:27Z</time>
      </trkpt>
      <trkpt lat="44.73737" lon="4.05731">
        <ele>1142.52</ele>
        <time>2021-07-19T07:20:28Z</time>
      </trkpt>
      <trkpt lat="44.73745" lon="4.05739">
        <ele>1141.88</ele>
        <time>2021-07-19T07:20:29Z</time>
      </trkpt>
      <trkpt lat="44.73754" lon="4.05747">
        <ele>1141.27</ele>
        <time>2021-07-19T07:20:30Z</time>
      </trkpt>
      <trkpt lat="44.73763" lon="4.05753">
        <ele>1140.72</ele>
        <time>2021-07-19T07:20:31Z</time>
      </trkpt>
      <trkpt lat="44.7378" lon="4.05764">
        <ele>1139.24</ele>
        <time>2021-07-19T07:20:33Z</time>
      </trkpt>
      <trkpt lat="44.7385" lon="4.05796">
        <ele>1135.95</ele>
        <time>2021-07-19T07:20:40Z</time>
      </trkpt>
      <trkpt lat="44.73891" lon="4.05812">
        <ele>1134.48</ele>
        <time>2021-07-19T07:20:44Z</time>
      </trkpt>
      <trkpt lat="44.73901" lon="4.05814">
        <ele>1134.03</ele>
        <time>2021-07-19T07:20:45Z</time>
      </trkpt>
      <trkpt lat="44.7397" lon="4.0584">
        <ele>1130.78</ele>
        <time>2021-07-19T07:20:52Z</time>
      </trkpt>
      <trkpt lat="44.74054" lon="4.05878">
        <ele>1127.74</ele>
        <time>2021-07-19T07:21:01Z</time>
      </trkpt>
      <trkpt lat="44.74063" lon="4.05883">
        <ele>1127.39</ele>
        <time>2021-07-19T07:21:02Z</time>
      </trkpt>
      <trkpt lat="44.74071" lon="4.05889">
        <ele>1127.05</ele>
        <time>2021-07-19T07:21:03Z</time>
      </trkpt>
      <trkpt lat="44.74079" lon="4.05896">
        <ele>1126.66</ele>
        <time>2021-07-19T07:21:04Z</time>
      </trkpt>
      <trkpt lat="44.74093" lon="4.05912">
        <ele>1125.97</ele>
        <time>2021-07-19T07:21:06Z</time>
      </trkpt>
      <trkpt lat="44.741" lon="4.05921">
        <ele>1125.68</ele>
        <time>2021-07-19T07:21:07Z</time>
      </trkpt>
      <trkpt lat="44.74106" lon="4.05931">
        <ele>1125.39</ele>
        <time>2021-07-19T07:21:08Z</time>
      </trkpt>
      <trkpt lat="44.7414" lon="4.06043">
        <ele>1122.78</ele>
        <time>2021-07-19T07:21:17Z</time>
      </trkpt>
      <trkpt lat="44.7414" lon="4.06056">
        <ele>1122.5</ele>
        <time>2021-07-19T07:21:18Z</time>
      </trkpt>
      <trkpt lat="44.74137" lon="4.06068">
        <ele>1122.18</ele>
        <time>2021-07-19T07:21:19Z</time>
      </trkpt>
      <trkpt lat="44.74134" lon="4.0608">
        <ele>1121.92</ele>
        <time>2021-07-19T07:21:20Z</time>
      </trkpt>
      <trkpt lat="44.7413" lon="4.06091">
        <ele>1121.68</ele>
        <time>2021-07-19T07:21:21Z</time>
      </trkpt>
      <trkpt lat="44.74126" lon="4.06101">
        <ele>1121.52</ele>
        <time>2021-07-19T07:21:22Z</time>
      </trkpt>
      <trkpt lat="44.74122" lon="4.0611">
        <ele>1121.38</ele>
        <time>2021-07-19T07:21:23Z</time>
      </trkpt>
      <trkpt lat="44.74064" lon="4.06234">
        <ele>1120.88</ele>
        <time>2021-07-19T07:21:37Z</time>
      </trkpt>
      <trkpt lat="44.74035" lon="4.06292">
        <ele>1120.58</ele>
        <time>2021-07-19T07:21:44Z</time>
      </trkpt>
      <trkpt lat="44.74032" lon="4.06301">
        <ele>1120.54</ele>
        <time>2021-07-19T07:21:45Z</time>
      </trkpt>
      <trkpt lat="44.7403" lon="4.06311">
        <ele>1120.46</ele>
        <time>2021-07-19T07:21:46Z</time>
      </trkpt>
      <trkpt lat="44.74026" lon="4.0634">
        <ele>1119.91</ele>
        <time>2021-07-19T07:21:49Z</time>
      </trkpt>
      <trkpt lat="44.74027" lon="4.0635">
        <ele>1119.72</ele>
        <time>2021-07-19T07:21:50Z</time>
      </trkpt>
      <trkpt lat="44.74028" lon="4.0636">
        <ele>1119.57</ele>
        <time>2021-07-19T07:21:51Z</time>
      </trkpt>
      <trkpt lat="44.7403" lon="4.06369">
        <ele>1119.43</ele>
        <time>2021-07-19T07:21:52Z</time>
      </trkpt>
      <trkpt lat="44.74033" lon="4.06378">
        <ele>1119.28</ele>
        <time>2021-07-19T07:21:53Z</time>
      </trkpt>
      <trkpt lat="44.74038" lon="4.06386">
        <ele>1119.16</ele>
        <time>2021-07-19T07:21:54Z</time>
      </trkpt>
      <trkpt lat="44.74043" lon="4.06393">
        <ele>1119.06</ele>
        <time>2021-07-19T07:21:55Z</time>
      </trkpt>
      <trkpt lat="44.74049" lon="4.06399">
        <ele>1118.94</ele>
        <time>2021-07-19T07:21:56Z</time>
      </trkpt>
      <trkpt lat="44.74056" lon="4.06403">
        <ele>1118.81</ele>
        <time>2021-07-19T07:21:57Z</time>
      </trkpt>
      <trkpt lat="44.74062" lon="4.06407">
        <ele>1118.71</ele>
        <time>2021-07-19T07:21:58Z</time>
      </trkpt>
      <trkpt lat="44.74143" lon="4.06472">
        <ele>1118.02</ele>
        <time>2021-07-19T07:22:11Z</time>
      </trkpt>
      <trkpt lat="44.74175" lon="4.06508">
        <ele>1118.47</ele>
        <time>2021-07-19T07:22:17Z</time>
      </trkpt>
      <trkpt lat="44.7418" lon="4.06512">
        <ele>1118.65</ele>
        <time>2021-07-19T07:22:18Z</time>
      </trkpt>
      <trkpt lat="44.74201" lon="4.06527">
        <ele>1119.35</ele>
        <time>2021-07-19T07:22:22Z</time>
      </trkpt>
      <trkpt lat="44.74216" lon="4.06536">
        <ele>1119.62</ele>
        <time>2021-07-19T07:22:25Z</time>
      </trkpt>
      <trkpt lat="44.74231" lon="4.06547">
        <ele>1119.66</ele>
        <time>2021-07-19T07:22:28Z</time>
      </trkpt>
      <trkpt lat="44.7424" lon="4.06554">
        <ele>1119.77</ele>
        <time>2021-07-19T07:22:30Z</time>
      </trkpt>
      <trkpt lat="44.74302" lon="4.06598">
        <ele>1121.4</ele>
        <time>2021-07-19T07:22:44Z</time>
      </trkpt>
      <trkpt lat="44.74323" lon="4.0661">
        <ele>1121.12</ele>
        <time>2021-07-19T07:22:48Z</time>
      </trkpt>
      <trkpt lat="44.74397" lon="4.06625">
        <ele>1120.84</ele>
        <time>2021-07-19T07:23:00Z</time>
      </trkpt>
      <trkpt lat="44.74465" lon="4.0665">
        <ele>1118.88</ele>
        <time>2021-07-19T07:23:10Z</time>
      </trkpt>
      <trkpt lat="44.74497" lon="4.06681">
        <ele>1117.68</ele>
        <time>2021-07-19T07:23:16Z</time>
      </trkpt>
      <trkpt lat="44.74515" lon="4.06708">
        <ele>1117.35</ele>
        <time>2021-07-19T07:23:20Z</time>
      </trkpt>
      <trkpt lat="44.74546" lon="4.06793">
        <ele>1117.06</ele>
        <time>2021-07-19T07:23:30Z</time>
      </trkpt>
      <trkpt lat="44.74552" lon="4.06828">
        <ele>1116.3</ele>
        <time>2021-07-19T07:23:34Z</time>
      </trkpt>
      <trkpt lat="44.74558" lon="4.06853">
        <ele>1115.89</ele>
        <time>2021-07-19T07:23:37Z</time>
      </trkpt>
      <trkpt lat="44.7456" lon="4.06861">
        <ele>1115.8</ele>
        <time>2021-07-19T07:23:38Z</time>
      </trkpt>
      <trkpt lat="44.74563" lon="4.06871">
        <ele>1115.71</ele>
        <time>2021-07-19T07:23:39Z</time>
      </trkpt>
      <trkpt lat="44.74581" lon="4.06954">
        <ele>1115.87</ele>
        <time>2021-07-19T07:23:47Z</time>
      </trkpt>
      <trkpt lat="44.74583" lon="4.06964">
        <ele>1115.92</ele>
        <time>2021-07-19T07:23:48Z</time>
      </trkpt>
      <trkpt lat="44.74586" lon="4.06974">
        <ele>1115.94</ele>
        <time>2021-07-19T07:23:49Z</time>
      </trkpt>
      <trkpt lat="44.74589" lon="4.06984">
        <ele>1115.92</ele>
        <time>2021-07-19T07:23:50Z</time>
      </trkpt>
      <trkpt lat="44.74592" lon="4.06994">
        <ele>1115.85</ele>
        <time>2021-07-19T07:23:51Z</time>
      </trkpt>
      <trkpt lat="44.74619" lon="4.07087">
        <ele>1113.72</ele>
        <time>2021-07-19T07:24:01Z</time>
      </trkpt>
      <trkpt lat="44.74628" lon="4.07117">
        <ele>1113.15</ele>
        <time>2021-07-19T07:24:04Z</time>
      </trkpt>
      <trkpt lat="44.74633" lon="4.0714">
        <ele>1112.71</ele>
        <time>2021-07-19T07:24:06Z</time>
      </trkpt>
      <trkpt lat="44.74633" lon="4.07153">
        <ele>1112.48</ele>
        <time>2021-07-19T07:24:07Z</time>
      </trkpt>
      <trkpt lat="44.74632" lon="4.07165">
        <ele>1112.25</ele>
        <time>2021-07-19T07:24:08Z</time>
      </trkpt>
      <trkpt lat="44.7463" lon="4.07178">
        <ele>1111.98</ele>
        <time>2021-07-19T07:24:09Z</time>
      </trkpt>
      <trkpt lat="44.74627" lon="4.0719">
        <ele>1111.72</ele>
        <time>2021-07-19T07:24:10Z</time>
      </trkpt>
      <trkpt lat="44.74623" lon="4.07201">
        <ele>1111.46</ele>
        <time>2021-07-19T07:24:11Z</time>
      </trkpt>
      <trkpt lat="44.74617" lon="4.07235">
        <ele>1109.94</ele>
        <time>2021-07-19T07:24:16Z</time>
      </trkpt>
      <trkpt lat="44.7462" lon="4.07238">
        <ele>1109.68</ele>
        <time>2021-07-19T07:24:17Z</time>
      </trkpt>
      <trkpt lat="44.7463" lon="4.07245">
        <ele>1109.13</ele>
        <time>2021-07-19T07:24:18Z</time>
      </trkpt>
      <trkpt lat="44.74645" lon="4.07247">
        <ele>1108.6</ele>
        <time>2021-07-19T07:24:20Z</time>
      </trkpt>
      <trkpt lat="44.74655" lon="4.07246">
        <ele>1108.32</ele>
        <time>2021-07-19T07:24:21Z</time>
      </trkpt>
      <trkpt lat="44.74663" lon="4.07243">
        <ele>1108.03</ele>
        <time>2021-07-19T07:24:22Z</time>
      </trkpt>
      <trkpt lat="44.74672" lon="4.0724">
        <ele>1107.74</ele>
        <time>2021-07-19T07:24:23Z</time>
      </trkpt>
      <trkpt lat="44.7468" lon="4.07237">
        <ele>1107.44</ele>
        <time>2021-07-19T07:24:24Z</time>
      </trkpt>
      <trkpt lat="44.74688" lon="4.07232">
        <ele>1107.13</ele>
        <time>2021-07-19T07:24:25Z</time>
      </trkpt>
      <trkpt lat="44.74717" lon="4.07215">
        <ele>1106.07</ele>
        <time>2021-07-19T07:24:29Z</time>
      </trkpt>
      <trkpt lat="44.74724" lon="4.07215">
        <ele>1105.84</ele>
        <time>2021-07-19T07:24:30Z</time>
      </trkpt>
      <trkpt lat="44.7473" lon="4.07216">
        <ele>1105.63</ele>
        <time>2021-07-19T07:24:31Z</time>
      </trkpt>
      <trkpt lat="44.74736" lon="4.0722">
        <ele>1105.44</ele>
        <time>2021-07-19T07:24:32Z</time>
      </trkpt>
      <trkpt lat="44.74741" lon="4.07226">
        <ele>1105.29</ele>
        <time>2021-07-19T07:24:33Z</time>
      </trkpt>
      <trkpt lat="44.74745" lon="4.07234">
        <ele>1105.16</ele>
        <time>2021-07-19T07:24:34Z</time>
      </trkpt>
      <trkpt lat="44.74748" lon="4.07244">
        <ele>1105.01</ele>
        <time>2021-07-19T07:24:35Z</time>
      </trkpt>
      <trkpt lat="44.74751" lon="4.07255">
        <ele>1104.8</ele>
        <time>2021-07-19T07:24:36Z</time>
      </trkpt>
      <trkpt lat="44.74753" lon="4.07266">
        <ele>1104.57</ele>
        <time>2021-07-19T07:24:37Z</time>
      </trkpt>
      <trkpt lat="44.74754" lon="4.07277">
        <ele>1104.39</ele>
        <time>2021-07-19T07:24:38Z</time>
      </trkpt>
      <trkpt lat="44.74756" lon="4.07289">
        <ele>1104.22</ele>
        <time>2021-07-19T07:24:39Z</time>
      </trkpt>
      <trkpt lat="44.74755" lon="4.07405">
        <ele>1101.44</ele>
        <time>2021-07-19T07:24:49Z</time>
      </trkpt>
      <trkpt lat="44.74757" lon="4.07414">
        <ele>1100.99</ele>
        <time>2021-07-19T07:24:50Z</time>
      </trkpt>
      <trkpt lat="44.74762" lon="4.07423">
        <ele>1100.61</ele>
        <time>2021-07-19T07:24:51Z</time>
      </trkpt>
      <trkpt lat="44.74768" lon="4.07429">
        <ele>1100.29</ele>
        <time>2021-07-19T07:24:52Z</time>
      </trkpt>
      <trkpt lat="44.74775" lon="4.07432">
        <ele>1100.03</ele>
        <time>2021-07-19T07:24:53Z</time>
      </trkpt>
      <trkpt lat="44.74783" lon="4.07432">
        <ele>1099.8</ele>
        <time>2021-07-19T07:24:54Z</time>
      </trkpt>
      <trkpt lat="44.7479" lon="4.07428">
        <ele>1099.59</ele>
        <time>2021-07-19T07:24:55Z</time>
      </trkpt>
      <trkpt lat="44.74797" lon="4.07422">
        <ele>1099.35</ele>
        <time>2021-07-19T07:24:56Z</time>
      </trkpt>
      <trkpt lat="44.74803" lon="4.07416">
        <ele>1099.06</ele>
        <time>2021-07-19T07:24:57Z</time>
      </trkpt>
      <trkpt lat="44.74807" lon="4.0741">
        <ele>1098.8</ele>
        <time>2021-07-19T07:24:58Z</time>
      </trkpt>
      <trkpt lat="44.74811" lon="4.07403">
        <ele>1098.59</ele>
        <time>2021-07-19T07:24:59Z</time>
      </trkpt>
      <trkpt lat="44.74815" lon="4.07396">
        <ele>1098.39</ele>
        <time>2021-07-19T07:25:00Z</time>
      </trkpt>
      <trkpt lat="44.74818" lon="4.07389">
        <ele>1098.24</ele>
        <time>2021-07-19T07:25:01Z</time>
      </trkpt>
      <trkpt lat="44.74821" lon="4.07382">
        <ele>1098.13</ele>
        <time>2021-07-19T07:25:02Z</time>
      </trkpt>
      <trkpt lat="44.74843" lon="4.07325">
        <ele>1098.41</ele>
        <time>2021-07-19T07:25:11Z</time>
      </trkpt>
      <trkpt lat="44.74846" lon="4.0732">
        <ele>1098.33</ele>
        <time>2021-07-19T07:25:12Z</time>
      </trkpt>
      <trkpt lat="44.7485" lon="4.07315">
        <ele>1098.25</ele>
        <time>2021-07-19T07:25:13Z</time>
      </trkpt>
      <trkpt lat="44.74854" lon="4.07311">
        <ele>1098.17</ele>
        <time>2021-07-19T07:25:14Z</time>
      </trkpt>
      <trkpt lat="44.74859" lon="4.07307">
        <ele>1098.11</ele>
        <time>2021-07-19T07:25:15Z</time>
      </trkpt>
      <trkpt lat="44.74863" lon="4.07306">
        <ele>1098.08</ele>
        <time>2021-07-19T07:25:16Z</time>
      </trkpt>
      <trkpt lat="44.74868" lon="4.07307">
        <ele>1098.06</ele>
        <time>2021-07-19T07:25:17Z</time>
      </trkpt>
      <trkpt lat="44.74873" lon="4.0731">
        <ele>1098.05</ele>
        <time>2021-07-19T07:25:18Z</time>
      </trkpt>
      <trkpt lat="44.74878" lon="4.07314">
        <ele>1098.07</ele>
        <time>2021-07-19T07:25:19Z</time>
      </trkpt>
      <trkpt lat="44.74881" lon="4.07319">
        <ele>1098.12</ele>
        <time>2021-07-19T07:25:20Z</time>
      </trkpt>
      <trkpt lat="44.74884" lon="4.07324">
        <ele>1098.2</ele>
        <time>2021-07-19T07:25:21Z</time>
      </trkpt>
      <trkpt lat="44.74886" lon="4.0733">
        <ele>1098.32</ele>
        <time>2021-07-19T07:25:22Z</time>
      </trkpt>
      <trkpt lat="44.74888" lon="4.07336">
        <ele>1098.43</ele>
        <time>2021-07-19T07:25:23Z</time>
      </trkpt>
      <trkpt lat="44.74888" lon="4.07343">
        <ele>1098.58</ele>
        <time>2021-07-19T07:25:24Z</time>
      </trkpt>
      <trkpt lat="44.74887" lon="4.07349">
        <ele>1098.71</ele>
        <time>2021-07-19T07:25:25Z</time>
      </trkpt>
      <trkpt lat="44.74887" lon="4.07357">
        <ele>1098.85</ele>
        <time>2021-07-19T07:25:26Z</time>
      </trkpt>
      <trkpt lat="44.74883" lon="4.07371">
        <ele>1099.05</ele>
        <time>2021-07-19T07:25:28Z</time>
      </trkpt>
      <trkpt lat="44.74847" lon="4.07461">
        <ele>1098.54</ele>
        <time>2021-07-19T07:25:39Z</time>
      </trkpt>
      <trkpt lat="44.74827" lon="4.07525">
        <ele>1097.14</ele>
        <time>2021-07-19T07:25:45Z</time>
      </trkpt>
      <trkpt lat="44.74825" lon="4.07537">
        <ele>1096.76</ele>
        <time>2021-07-19T07:25:46Z</time>
      </trkpt>
      <trkpt lat="44.74824" lon="4.07548">
        <ele>1096.45</ele>
        <time>2021-07-19T07:25:47Z</time>
      </trkpt>
      <trkpt lat="44.74824" lon="4.0756">
        <ele>1096.19</ele>
        <time>2021-07-19T07:25:48Z</time>
      </trkpt>
      <trkpt lat="44.74825" lon="4.07572">
        <ele>1095.97</ele>
        <time>2021-07-19T07:25:49Z</time>
      </trkpt>
      <trkpt lat="44.74825" lon="4.07583">
        <ele>1095.79</ele>
        <time>2021-07-19T07:25:50Z</time>
      </trkpt>
      <trkpt lat="44.74827" lon="4.07595">
        <ele>1095.65</ele>
        <time>2021-07-19T07:25:51Z</time>
      </trkpt>
      <trkpt lat="44.7483" lon="4.07607">
        <ele>1095.49</ele>
        <time>2021-07-19T07:25:52Z</time>
      </trkpt>
      <trkpt lat="44.74841" lon="4.07641">
        <ele>1094.35</ele>
        <time>2021-07-19T07:25:55Z</time>
      </trkpt>
      <trkpt lat="44.74847" lon="4.07651">
        <ele>1094.35</ele>
        <time>2021-07-19T07:25:56Z</time>
      </trkpt>
      <trkpt lat="44.74853" lon="4.0766">
        <ele>1093.78</ele>
        <time>2021-07-19T07:25:57Z</time>
      </trkpt>
      <trkpt lat="44.74861" lon="4.07668">
        <ele>1093.44</ele>
        <time>2021-07-19T07:25:58Z</time>
      </trkpt>
      <trkpt lat="44.7487" lon="4.07675">
        <ele>1093.1</ele>
        <time>2021-07-19T07:25:59Z</time>
      </trkpt>
      <trkpt lat="44.74879" lon="4.07681">
        <ele>1092.77</ele>
        <time>2021-07-19T07:26:00Z</time>
      </trkpt>
      <trkpt lat="44.7489" lon="4.07686">
        <ele>1092.39</ele>
        <time>2021-07-19T07:26:01Z</time>
      </trkpt>
      <trkpt lat="44.749" lon="4.07691">
        <ele>1091.99</ele>
        <time>2021-07-19T07:26:02Z</time>
      </trkpt>
      <trkpt lat="44.74954" lon="4.07705">
        <ele>1090.03</ele>
        <time>2021-07-19T07:26:07Z</time>
      </trkpt>
      <trkpt lat="44.75001" lon="4.07703">
        <ele>1088.18</ele>
        <time>2021-07-19T07:26:11Z</time>
      </trkpt>
      <trkpt lat="44.75081" lon="4.07694">
        <ele>1084.7</ele>
        <time>2021-07-19T07:26:18Z</time>
      </trkpt>
      <trkpt lat="44.75098" lon="4.07691">
        <ele>1083.41</ele>
        <time>2021-07-19T07:26:20Z</time>
      </trkpt>
      <trkpt lat="44.75105" lon="4.07689">
        <ele>1082.12</ele>
        <time>2021-07-19T07:26:21Z</time>
      </trkpt>
      <trkpt lat="44.75114" lon="4.0769">
        <ele>1081.51</ele>
        <time>2021-07-19T07:26:22Z</time>
      </trkpt>
      <trkpt lat="44.75141" lon="4.07688">
        <ele>1079.98</ele>
        <time>2021-07-19T07:26:25Z</time>
      </trkpt>
      <trkpt lat="44.75151" lon="4.07688">
        <ele>1079.54</ele>
        <time>2021-07-19T07:26:26Z</time>
      </trkpt>
      <trkpt lat="44.75162" lon="4.07691">
        <ele>1079.1</ele>
        <time>2021-07-19T07:26:27Z</time>
      </trkpt>
      <trkpt lat="44.75172" lon="4.07695">
        <ele>1078.67</ele>
        <time>2021-07-19T07:26:28Z</time>
      </trkpt>
      <trkpt lat="44.75182" lon="4.07699">
        <ele>1078.23</ele>
        <time>2021-07-19T07:26:29Z</time>
      </trkpt>
      <trkpt lat="44.75192" lon="4.07703">
        <ele>1077.8</ele>
        <time>2021-07-19T07:26:30Z</time>
      </trkpt>
      <trkpt lat="44.75202" lon="4.07712">
        <ele>1077.37</ele>
        <time>2021-07-19T07:26:31Z</time>
      </trkpt>
      <trkpt lat="44.75209" lon="4.07722">
        <ele>1076.92</ele>
        <time>2021-07-19T07:26:32Z</time>
      </trkpt>
      <trkpt lat="44.75214" lon="4.07736">
        <ele>1076.48</ele>
        <time>2021-07-19T07:26:33Z</time>
      </trkpt>
      <trkpt lat="44.75219" lon="4.07751">
        <ele>1076.05</ele>
        <time>2021-07-19T07:26:34Z</time>
      </trkpt>
      <trkpt lat="44.75219" lon="4.07766">
        <ele>1075.64</ele>
        <time>2021-07-19T07:26:35Z</time>
      </trkpt>
      <trkpt lat="44.75218" lon="4.07781">
        <ele>1075.27</ele>
        <time>2021-07-19T07:26:36Z</time>
      </trkpt>
      <trkpt lat="44.75216" lon="4.07795">
        <ele>1074.95</ele>
        <time>2021-07-19T07:26:37Z</time>
      </trkpt>
      <trkpt lat="44.75213" lon="4.07808">
        <ele>1074.64</ele>
        <time>2021-07-19T07:26:38Z</time>
      </trkpt>
      <trkpt lat="44.75211" lon="4.07821">
        <ele>1074.31</ele>
        <time>2021-07-19T07:26:39Z</time>
      </trkpt>
      <trkpt lat="44.75209" lon="4.07834">
        <ele>1073.96</ele>
        <time>2021-07-19T07:26:40Z</time>
      </trkpt>
      <trkpt lat="44.75207" lon="4.07847">
        <ele>1073.58</ele>
        <time>2021-07-19T07:26:41Z</time>
      </trkpt>
      <trkpt lat="44.75205" lon="4.0786">
        <ele>1073.19</ele>
        <time>2021-07-19T07:26:42Z</time>
      </trkpt>
      <trkpt lat="44.75205" lon="4.07874">
        <ele>1072.81</ele>
        <time>2021-07-19T07:26:43Z</time>
      </trkpt>
      <trkpt lat="44.75205" lon="4.07888">
        <ele>1072.4</ele>
        <time>2021-07-19T07:26:44Z</time>
      </trkpt>
      <trkpt lat="44.75206" lon="4.07902">
        <ele>1071.52</ele>
        <time>2021-07-19T07:26:45Z</time>
      </trkpt>
      <trkpt lat="44.75208" lon="4.07915">
        <ele>1071.11</ele>
        <time>2021-07-19T07:26:46Z</time>
      </trkpt>
      <trkpt lat="44.75211" lon="4.07929">
        <ele>1070.75</ele>
        <time>2021-07-19T07:26:47Z</time>
      </trkpt>
      <trkpt lat="44.75214" lon="4.07942">
        <ele>1070.41</ele>
        <time>2021-07-19T07:26:48Z</time>
      </trkpt>
      <trkpt lat="44.75246" lon="4.08048">
        <ele>1066.87</ele>
        <time>2021-07-19T07:26:56Z</time>
      </trkpt>
      <trkpt lat="44.75281" lon="4.08134">
        <ele>1063.69</ele>
        <time>2021-07-19T07:27:03Z</time>
      </trkpt>
      <trkpt lat="44.75292" lon="4.08172">
        <ele>1062.77</ele>
        <time>2021-07-19T07:27:06Z</time>
      </trkpt>
      <trkpt lat="44.75294" lon="4.08185">
        <ele>1062.47</ele>
        <time>2021-07-19T07:27:07Z</time>
      </trkpt>
      <trkpt lat="44.75297" lon="4.08212">
        <ele>1061.72</ele>
        <time>2021-07-19T07:27:09Z</time>
      </trkpt>
      <trkpt lat="44.75297" lon="4.08236">
        <ele>1060.36</ele>
        <time>2021-07-19T07:27:11Z</time>
      </trkpt>
      <trkpt lat="44.75296" lon="4.08249">
        <ele>1059.88</ele>
        <time>2021-07-19T07:27:12Z</time>
      </trkpt>
      <trkpt lat="44.75286" lon="4.08349">
        <ele>1056.57</ele>
        <time>2021-07-19T07:27:20Z</time>
      </trkpt>
      <trkpt lat="44.75287" lon="4.0836">
        <ele>1056.27</ele>
        <time>2021-07-19T07:27:21Z</time>
      </trkpt>
      <trkpt lat="44.7529" lon="4.08371">
        <ele>1056.01</ele>
        <time>2021-07-19T07:27:22Z</time>
      </trkpt>
      <trkpt lat="44.75297" lon="4.0839">
        <ele>1055.58</ele>
        <time>2021-07-19T07:27:24Z</time>
      </trkpt>
      <trkpt lat="44.75305" lon="4.08406">
        <ele>1055.18</ele>
        <time>2021-07-19T07:27:26Z</time>
      </trkpt>
      <trkpt lat="44.75312" lon="4.0842">
        <ele>1054.9</ele>
        <time>2021-07-19T07:27:28Z</time>
      </trkpt>
      <trkpt lat="44.75316" lon="4.08427">
        <ele>1054.81</ele>
        <time>2021-07-19T07:27:29Z</time>
      </trkpt>
      <trkpt lat="44.75324" lon="4.08441">
        <ele>1054.71</ele>
        <time>2021-07-19T07:27:31Z</time>
      </trkpt>
      <trkpt lat="44.75327" lon="4.0845">
        <ele>1054.68</ele>
        <time>2021-07-19T07:27:32Z</time>
      </trkpt>
      <trkpt lat="44.7533" lon="4.08458">
        <ele>1054.66</ele>
        <time>2021-07-19T07:27:33Z</time>
      </trkpt>
      <trkpt lat="44.75329" lon="4.08465">
        <ele>1054.63</ele>
        <time>2021-07-19T07:27:34Z</time>
      </trkpt>
      <trkpt lat="44.75327" lon="4.08472">
        <ele>1054.56</ele>
        <time>2021-07-19T07:27:35Z</time>
      </trkpt>
      <trkpt lat="44.75325" lon="4.08479">
        <ele>1054.39</ele>
        <time>2021-07-19T07:27:36Z</time>
      </trkpt>
      <trkpt lat="44.75315" lon="4.08508">
        <ele>1054.35</ele>
        <time>2021-07-19T07:27:40Z</time>
      </trkpt>
      <trkpt lat="44.75313" lon="4.08515">
        <ele>1054.48</ele>
        <time>2021-07-19T07:27:41Z</time>
      </trkpt>
      <trkpt lat="44.75309" lon="4.08529">
        <ele>1054.78</ele>
        <time>2021-07-19T07:27:43Z</time>
      </trkpt>
      <trkpt lat="44.75305" lon="4.08547">
        <ele>1054.97</ele>
        <time>2021-07-19T07:27:46Z</time>
      </trkpt>
      <trkpt lat="44.75306" lon="4.08552">
        <ele>1054.94</ele>
        <time>2021-07-19T07:27:47Z</time>
      </trkpt>
      <trkpt lat="44.75327" lon="4.08603">
        <ele>1055.1</ele>
        <time>2021-07-19T07:27:59Z</time>
      </trkpt>
      <trkpt lat="44.75369" lon="4.0861">
        <ele>1055.98</ele>
        <time>2021-07-19T07:28:10Z</time>
      </trkpt>
      <trkpt lat="44.75387" lon="4.0861">
        <ele>1056.39</ele>
        <time>2021-07-19T07:28:15Z</time>
      </trkpt>
      <trkpt lat="44.7539" lon="4.08611">
        <ele>1056.43</ele>
        <time>2021-07-19T07:28:16Z</time>
      </trkpt>
      <trkpt lat="44.75394" lon="4.08612">
        <ele>1056.47</ele>
        <time>2021-07-19T07:28:17Z</time>
      </trkpt>
      <trkpt lat="44.75398" lon="4.08614">
        <ele>1056.54</ele>
        <time>2021-07-19T07:28:18Z</time>
      </trkpt>
      <trkpt lat="44.75402" lon="4.08615">
        <ele>1056.61</ele>
        <time>2021-07-19T07:28:19Z</time>
      </trkpt>
      <trkpt lat="44.75453" lon="4.08645">
        <ele>1057.77</ele>
        <time>2021-07-19T07:28:30Z</time>
      </trkpt>
      <trkpt lat="44.75457" lon="4.08649">
        <ele>1057.59</ele>
        <time>2021-07-19T07:28:31Z</time>
      </trkpt>
      <trkpt lat="44.75461" lon="4.08654">
        <ele>1057.38</ele>
        <time>2021-07-19T07:28:32Z</time>
      </trkpt>
      <trkpt lat="44.75468" lon="4.08664">
        <ele>1057.11</ele>
        <time>2021-07-19T07:28:34Z</time>
      </trkpt>
      <trkpt lat="44.75497" lon="4.087">
        <ele>1057.26</ele>
        <time>2021-07-19T07:28:46Z</time>
      </trkpt>
      <trkpt lat="44.755" lon="4.087">
        <ele>1056.53</ele>
        <time>2021-07-19T07:28:56Z</time>
      </trkpt>
      <trkpt lat="44.75502" lon="4.08696">
        <ele>1056.35</ele>
        <time>2021-07-19T07:29:07Z</time>
      </trkpt>
      <trkpt lat="44.75503" lon="4.08696">
        <ele>1056.33</ele>
        <time>2021-07-19T07:29:08Z</time>
      </trkpt>
      <trkpt lat="44.75504" lon="4.08696">
        <ele>1056.32</ele>
        <time>2021-07-19T07:29:09Z</time>
      </trkpt>
      <trkpt lat="44.75506" lon="4.08697">
        <ele>1056.33</ele>
        <time>2021-07-19T07:29:10Z</time>
      </trkpt>
      <trkpt lat="44.75508" lon="4.08698">
        <ele>1056.38</ele>
        <time>2021-07-19T07:29:11Z</time>
      </trkpt>
      <trkpt lat="44.7551" lon="4.087">
        <ele>1056.39</ele>
        <time>2021-07-19T07:29:12Z</time>
      </trkpt>
      <trkpt lat="44.75512" lon="4.08703">
        <ele>1056.38</ele>
        <time>2021-07-19T07:29:13Z</time>
      </trkpt>
      <trkpt lat="44.75515" lon="4.08707">
        <ele>1056.38</ele>
        <time>2021-07-19T07:29:14Z</time>
      </trkpt>
      <trkpt lat="44.75517" lon="4.08711">
        <ele>1056.28</ele>
        <time>2021-07-19T07:29:15Z</time>
      </trkpt>
      <trkpt lat="44.7552" lon="4.08716">
        <ele>1056.15</ele>
        <time>2021-07-19T07:29:16Z</time>
      </trkpt>
      <trkpt lat="44.75523" lon="4.08721">
        <ele>1056.02</ele>
        <time>2021-07-19T07:29:17Z</time>
      </trkpt>
      <trkpt lat="44.75542" lon="4.08754">
        <ele>1055.06</ele>
        <time>2021-07-19T07:29:22Z</time>
      </trkpt>
      <trkpt lat="44.75546" lon="4.08764">
        <ele>1054.79</ele>
        <time>2021-07-19T07:29:23Z</time>
      </trkpt>
      <trkpt lat="44.75549" lon="4.08774">
        <ele>1054.48</ele>
        <time>2021-07-19T07:29:24Z</time>
      </trkpt>
      <trkpt lat="44.75551" lon="4.08784">
        <ele>1054.17</ele>
        <time>2021-07-19T07:29:25Z</time>
      </trkpt>
      <trkpt lat="44.75552" lon="4.08796">
        <ele>1053.88</ele>
        <time>2021-07-19T07:29:26Z</time>
      </trkpt>
      <trkpt lat="44.75557" lon="4.08853">
        <ele>1052.51</ele>
        <time>2021-07-19T07:29:31Z</time>
      </trkpt>
      <trkpt lat="44.75562" lon="4.08916">
        <ele>1050.7</ele>
        <time>2021-07-19T07:29:37Z</time>
      </trkpt>
      <trkpt lat="44.75566" lon="4.0897">
        <ele>1048.43</ele>
        <time>2021-07-19T07:29:42Z</time>
      </trkpt>
      <trkpt lat="44.75567" lon="4.0898">
        <ele>1048.07</ele>
        <time>2021-07-19T07:29:43Z</time>
      </trkpt>
      <trkpt lat="44.75566" lon="4.0899">
        <ele>1047.71</ele>
        <time>2021-07-19T07:29:44Z</time>
      </trkpt>
      <trkpt lat="44.75565" lon="4.09015">
        <ele>1046.4</ele>
        <time>2021-07-19T07:29:47Z</time>
      </trkpt>
      <trkpt lat="44.75565" lon="4.0903">
        <ele>1045.52</ele>
        <time>2021-07-19T07:29:49Z</time>
      </trkpt>
      <trkpt lat="44.75566" lon="4.09061">
        <ele>1044.14</ele>
        <time>2021-07-19T07:29:53Z</time>
      </trkpt>
      <trkpt lat="44.75564" lon="4.09088">
        <ele>1042.07</ele>
        <time>2021-07-19T07:29:59Z</time>
      </trkpt>
      <trkpt lat="44.75563" lon="4.0909">
        <ele>1041.74</ele>
        <time>2021-07-19T07:30:00Z</time>
      </trkpt>
      <trkpt lat="44.75561" lon="4.09094">
        <ele>1041.44</ele>
        <time>2021-07-19T07:30:01Z</time>
      </trkpt>
      <trkpt lat="44.75561" lon="4.09096">
        <ele>1041.13</ele>
        <time>2021-07-19T07:30:02Z</time>
      </trkpt>
      <trkpt lat="44.75559" lon="4.09099">
        <ele>1040.81</ele>
        <time>2021-07-19T07:30:03Z</time>
      </trkpt>
      <trkpt lat="44.75557" lon="4.09102">
        <ele>1040.51</ele>
        <time>2021-07-19T07:30:04Z</time>
      </trkpt>
      <trkpt lat="44.75557" lon="4.09106">
        <ele>1040.25</ele>
        <time>2021-07-19T07:30:05Z</time>
      </trkpt>
      <trkpt lat="44.75549" lon="4.09116">
        <ele>1039.42</ele>
        <time>2021-07-19T07:30:09Z</time>
      </trkpt>
      <trkpt lat="44.75545" lon="4.09118">
        <ele>1039.27</ele>
        <time>2021-07-19T07:30:10Z</time>
      </trkpt>
      <trkpt lat="44.75545" lon="4.09122">
        <ele>1039.08</ele>
        <time>2021-07-19T07:30:11Z</time>
      </trkpt>
      <trkpt lat="44.75544" lon="4.09124">
        <ele>1038.89</ele>
        <time>2021-07-19T07:30:12Z</time>
      </trkpt>
      <trkpt lat="44.75544" lon="4.09128">
        <ele>1038.73</ele>
        <time>2021-07-19T07:30:13Z</time>
      </trkpt>
      <trkpt lat="44.75545" lon="4.09133">
        <ele>1038.58</ele>
        <time>2021-07-19T07:30:14Z</time>
      </trkpt>
      <trkpt lat="44.75554" lon="4.09182">
        <ele>1037.33</ele>
        <time>2021-07-19T07:30:24Z</time>
      </trkpt>
      <trkpt lat="44.75556" lon="4.09198">
        <ele>1037.13</ele>
        <time>2021-07-19T07:30:29Z</time>
      </trkpt>
      <trkpt lat="44.75557" lon="4.09201">
        <ele>1037.11</ele>
        <time>2021-07-19T07:30:30Z</time>
      </trkpt>
      <trkpt lat="44.75559" lon="4.09205">
        <ele>1037.04</ele>
        <time>2021-07-19T07:30:31Z</time>
      </trkpt>
      <trkpt lat="44.7556" lon="4.09208">
        <ele>1036.95</ele>
        <time>2021-07-19T07:30:32Z</time>
      </trkpt>
      <trkpt lat="44.75561" lon="4.09211">
        <ele>1036.84</ele>
        <time>2021-07-19T07:30:33Z</time>
      </trkpt>
      <trkpt lat="44.75562" lon="4.09215">
        <ele>1036.7</ele>
        <time>2021-07-19T07:30:34Z</time>
      </trkpt>
      <trkpt lat="44.75563" lon="4.09219">
        <ele>1036.63</ele>
        <time>2021-07-19T07:30:35Z</time>
      </trkpt>
      <trkpt lat="44.75564" lon="4.09223">
        <ele>1036.57</ele>
        <time>2021-07-19T07:30:36Z</time>
      </trkpt>
      <trkpt lat="44.75565" lon="4.09226">
        <ele>1036.5</ele>
        <time>2021-07-19T07:30:37Z</time>
      </trkpt>
      <trkpt lat="44.75566" lon="4.09231">
        <ele>1036.36</ele>
        <time>2021-07-19T07:30:39Z</time>
      </trkpt>
      <trkpt lat="44.75566" lon="4.09234">
        <ele>1036.29</ele>
        <time>2021-07-19T07:30:40Z</time>
      </trkpt>
      <trkpt lat="44.75565" lon="4.0924">
        <ele>1035.43</ele>
        <time>2021-07-19T07:30:52Z</time>
      </trkpt>
      <trkpt lat="44.75569" lon="4.09239">
        <ele>1035.06</ele>
        <time>2021-07-19T07:31:22Z</time>
      </trkpt>
      <trkpt lat="44.75567" lon="4.0924">
        <ele>1034.84</ele>
        <time>2021-07-19T07:32:42Z</time>
      </trkpt>
      <trkpt lat="44.75569" lon="4.0924">
        <ele>1034.49</ele>
        <time>2021-07-19T07:33:31Z</time>
      </trkpt>
      <trkpt lat="44.75568" lon="4.09241">
        <ele>1034.64</ele>
        <time>2021-07-19T07:34:25Z</time>
      </trkpt>
      <trkpt lat="44.75563" lon="4.09239">
        <ele>1034.07</ele>
        <time>2021-07-19T07:36:20Z</time>
      </trkpt>
      <trkpt lat="44.75564" lon="4.09236">
        <ele>1033.43</ele>
        <time>2021-07-19T07:38:42Z</time>
      </trkpt>
      <trkpt lat="44.75563" lon="4.0924">
        <ele>1033.34</ele>
        <time>2021-07-19T07:39:33Z</time>
      </trkpt>
      <trkpt lat="44.75563" lon="4.09242">
        <ele>1033.36</ele>
        <time>2021-07-19T07:39:34Z</time>
      </trkpt>
      <trkpt lat="44.75562" lon="4.09243">
        <ele>1033.38</ele>
        <time>2021-07-19T07:39:35Z</time>
      </trkpt>
      <trkpt lat="44.7556" lon="4.09245">
        <ele>1033.41</ele>
        <time>2021-07-19T07:39:36Z</time>
      </trkpt>
      <trkpt lat="44.75559" lon="4.09247">
        <ele>1033.43</ele>
        <time>2021-07-19T07:39:37Z</time>
      </trkpt>
      <trkpt lat="44.75558" lon="4.0925">
        <ele>1033.45</ele>
        <time>2021-07-19T07:39:38Z</time>
      </trkpt>
      <trkpt lat="44.75556" lon="4.09253">
        <ele>1033.51</ele>
        <time>2021-07-19T07:39:39Z</time>
      </trkpt>
      <trkpt lat="44.75555" lon="4.09257">
        <ele>1033.56</ele>
        <time>2021-07-19T07:39:40Z</time>
      </trkpt>
      <trkpt lat="44.75554" lon="4.09262">
        <ele>1033.54</ele>
        <time>2021-07-19T07:39:41Z</time>
      </trkpt>
      <trkpt lat="44.75552" lon="4.09267">
        <ele>1033.48</ele>
        <time>2021-07-19T07:39:42Z</time>
      </trkpt>
      <trkpt lat="44.75551" lon="4.09272">
        <ele>1033.42</ele>
        <time>2021-07-19T07:39:43Z</time>
      </trkpt>
      <trkpt lat="44.75522" lon="4.09326">
        <ele>1033.58</ele>
        <time>2021-07-19T07:39:56Z</time>
      </trkpt>
      <trkpt lat="44.75505" lon="4.09348">
        <ele>1034.14</ele>
        <time>2021-07-19T07:40:03Z</time>
      </trkpt>
      <trkpt lat="44.75472" lon="4.09369">
        <ele>1034.82</ele>
        <time>2021-07-19T07:40:13Z</time>
      </trkpt>
      <trkpt lat="44.75468" lon="4.0938">
        <ele>1034.89</ele>
        <time>2021-07-19T07:40:15Z</time>
      </trkpt>
      <trkpt lat="44.75466" lon="4.09385">
        <ele>1034.9</ele>
        <time>2021-07-19T07:40:16Z</time>
      </trkpt>
      <trkpt lat="44.75442" lon="4.09451">
        <ele>1034.25</ele>
        <time>2021-07-19T07:40:27Z</time>
      </trkpt>
      <trkpt lat="44.7544" lon="4.09456">
        <ele>1034.21</ele>
        <time>2021-07-19T07:40:28Z</time>
      </trkpt>
      <trkpt lat="44.75438" lon="4.09461">
        <ele>1034.2</ele>
        <time>2021-07-19T07:40:29Z</time>
      </trkpt>
      <trkpt lat="44.75436" lon="4.09467">
        <ele>1034.2</ele>
        <time>2021-07-19T07:40:30Z</time>
      </trkpt>
      <trkpt lat="44.75434" lon="4.09472">
        <ele>1034.19</ele>
        <time>2021-07-19T07:40:31Z</time>
      </trkpt>
      <trkpt lat="44.75432" lon="4.09476">
        <ele>1034.18</ele>
        <time>2021-07-19T07:40:32Z</time>
      </trkpt>
      <trkpt lat="44.7542" lon="4.09522">
        <ele>1034.42</ele>
        <time>2021-07-19T07:40:42Z</time>
      </trkpt>
      <trkpt lat="44.75426" lon="4.09571">
        <ele>1035.56</ele>
        <time>2021-07-19T07:40:52Z</time>
      </trkpt>
      <trkpt lat="44.75456" lon="4.09611">
        <ele>1036.79</ele>
        <time>2021-07-19T07:41:04Z</time>
      </trkpt>
      <trkpt lat="44.75463" lon="4.09622">
        <ele>1036.91</ele>
        <time>2021-07-19T07:41:07Z</time>
      </trkpt>
      <trkpt lat="44.75465" lon="4.09627">
        <ele>1036.91</ele>
        <time>2021-07-19T07:41:08Z</time>
      </trkpt>
      <trkpt lat="44.75466" lon="4.09632">
        <ele>1036.91</ele>
        <time>2021-07-19T07:41:09Z</time>
      </trkpt>
      <trkpt lat="44.75459" lon="4.09666">
        <ele>1037.53</ele>
        <time>2021-07-19T07:41:19Z</time>
      </trkpt>
      <trkpt lat="44.75455" lon="4.09679">
        <ele>1037.81</ele>
        <time>2021-07-19T07:41:23Z</time>
      </trkpt>
      <trkpt lat="44.75454" lon="4.09682">
        <ele>1037.88</ele>
        <time>2021-07-19T07:41:24Z</time>
      </trkpt>
      <trkpt lat="44.75453" lon="4.09685">
        <ele>1037.93</ele>
        <time>2021-07-19T07:41:25Z</time>
      </trkpt>
      <trkpt lat="44.75452" lon="4.09688">
        <ele>1037.98</ele>
        <time>2021-07-19T07:41:26Z</time>
      </trkpt>
      <trkpt lat="44.75451" lon="4.09692">
        <ele>1038.02</ele>
        <time>2021-07-19T07:41:27Z</time>
      </trkpt>
      <trkpt lat="44.7545" lon="4.09695">
        <ele>1038.06</ele>
        <time>2021-07-19T07:41:28Z</time>
      </trkpt>
      <trkpt lat="44.75449" lon="4.09698">
        <ele>1038.14</ele>
        <time>2021-07-19T07:41:29Z</time>
      </trkpt>
      <trkpt lat="44.75449" lon="4.09701">
        <ele>1038.23</ele>
        <time>2021-07-19T07:41:30Z</time>
      </trkpt>
      <trkpt lat="44.75445" lon="4.09717">
        <ele>1038.76</ele>
        <time>2021-07-19T07:41:35Z</time>
      </trkpt>
      <trkpt lat="44.75443" lon="4.09732">
        <ele>1039.12</ele>
        <time>2021-07-19T07:41:39Z</time>
      </trkpt>
      <trkpt lat="44.75442" lon="4.09735">
        <ele>1039.21</ele>
        <time>2021-07-19T07:41:40Z</time>
      </trkpt>
      <trkpt lat="44.75422" lon="4.09778">
        <ele>1040.78</ele>
        <time>2021-07-19T07:41:55Z</time>
      </trkpt>
      <trkpt lat="44.75406" lon="4.09823">
        <ele>1042.14</ele>
        <time>2021-07-19T07:42:09Z</time>
      </trkpt>
      <trkpt lat="44.75386" lon="4.09862">
        <ele>1043.6</ele>
        <time>2021-07-19T07:42:23Z</time>
      </trkpt>
      <trkpt lat="44.75368" lon="4.09902">
        <ele>1044.8</ele>
        <time>2021-07-19T07:42:36Z</time>
      </trkpt>
      <trkpt lat="44.75351" lon="4.09941">
        <ele>1046.91</ele>
        <time>2021-07-19T07:42:49Z</time>
      </trkpt>
      <trkpt lat="44.75335" lon="4.09973">
        <ele>1047.85</ele>
        <time>2021-07-19T07:43:00Z</time>
      </trkpt>
      <trkpt lat="44.75316" lon="4.1002">
        <ele>1049.4</ele>
        <time>2021-07-19T07:43:15Z</time>
      </trkpt>
      <trkpt lat="44.75311" lon="4.10029">
        <ele>1049.86</ele>
        <time>2021-07-19T07:43:18Z</time>
      </trkpt>
      <trkpt lat="44.7531" lon="4.10033">
        <ele>1049.88</ele>
        <time>2021-07-19T07:43:19Z</time>
      </trkpt>
      <trkpt lat="44.75308" lon="4.10036">
        <ele>1049.85</ele>
        <time>2021-07-19T07:43:20Z</time>
      </trkpt>
      <trkpt lat="44.75307" lon="4.10039">
        <ele>1049.82</ele>
        <time>2021-07-19T07:43:21Z</time>
      </trkpt>
      <trkpt lat="44.75306" lon="4.10043">
        <ele>1049.81</ele>
        <time>2021-07-19T07:43:22Z</time>
      </trkpt>
      <trkpt lat="44.75304" lon="4.10046">
        <ele>1049.8</ele>
        <time>2021-07-19T07:43:23Z</time>
      </trkpt>
      <trkpt lat="44.75303" lon="4.10049">
        <ele>1049.84</ele>
        <time>2021-07-19T07:43:24Z</time>
      </trkpt>
      <trkpt lat="44.75292" lon="4.10102">
        <ele>1051.3</ele>
        <time>2021-07-19T07:43:38Z</time>
      </trkpt>
      <trkpt lat="44.75284" lon="4.10135">
        <ele>1052.4</ele>
        <time>2021-07-19T07:43:47Z</time>
      </trkpt>
      <trkpt lat="44.75283" lon="4.10139">
        <ele>1052.53</ele>
        <time>2021-07-19T07:43:48Z</time>
      </trkpt>
      <trkpt lat="44.75283" lon="4.10143">
        <ele>1052.62</ele>
        <time>2021-07-19T07:43:49Z</time>
      </trkpt>
      <trkpt lat="44.75271" lon="4.10197">
        <ele>1054.61</ele>
        <time>2021-07-19T07:44:04Z</time>
      </trkpt>
      <trkpt lat="44.75256" lon="4.10277">
        <ele>1057.04</ele>
        <time>2021-07-19T07:44:26Z</time>
      </trkpt>
      <trkpt lat="44.75249" lon="4.10319">
        <ele>1058.69</ele>
        <time>2021-07-19T07:44:38Z</time>
      </trkpt>
      <trkpt lat="44.75237" lon="4.10382">
        <ele>1060.05</ele>
        <time>2021-07-19T07:44:55Z</time>
      </trkpt>
      <trkpt lat="44.75219" lon="4.10458">
        <ele>1062.22</ele>
        <time>2021-07-19T07:45:16Z</time>
      </trkpt>
      <trkpt lat="44.75199" lon="4.10495">
        <ele>1064.01</ele>
        <time>2021-07-19T07:45:29Z</time>
      </trkpt>
      <trkpt lat="44.75179" lon="4.10532">
        <ele>1065.03</ele>
        <time>2021-07-19T07:45:41Z</time>
      </trkpt>
      <trkpt lat="44.75157" lon="4.1059">
        <ele>1066.61</ele>
        <time>2021-07-19T07:45:58Z</time>
      </trkpt>
      <trkpt lat="44.75144" lon="4.10639">
        <ele>1068.07</ele>
        <time>2021-07-19T07:46:12Z</time>
      </trkpt>
      <trkpt lat="44.75127" lon="4.1068">
        <ele>1069.17</ele>
        <time>2021-07-19T07:46:24Z</time>
      </trkpt>
      <trkpt lat="44.75089" lon="4.10733">
        <ele>1071.31</ele>
        <time>2021-07-19T07:46:44Z</time>
      </trkpt>
      <trkpt lat="44.7506" lon="4.10788">
        <ele>1073.23</ele>
        <time>2021-07-19T07:47:02Z</time>
      </trkpt>
      <trkpt lat="44.75031" lon="4.10848">
        <ele>1075.22</ele>
        <time>2021-07-19T07:47:21Z</time>
      </trkpt>
      <trkpt lat="44.74999" lon="4.10915">
        <ele>1077.45</ele>
        <time>2021-07-19T07:47:42Z</time>
      </trkpt>
      <trkpt lat="44.74964" lon="4.10986">
        <ele>1080.3</ele>
        <time>2021-07-19T07:48:04Z</time>
      </trkpt>
      <trkpt lat="44.74934" lon="4.11054">
        <ele>1081.5</ele>
        <time>2021-07-19T07:48:24Z</time>
      </trkpt>
      <trkpt lat="44.74917" lon="4.11087">
        <ele>1082.71</ele>
        <time>2021-07-19T07:48:35Z</time>
      </trkpt>
      <trkpt lat="44.74894" lon="4.11126">
        <ele>1084.04</ele>
        <time>2021-07-19T07:48:48Z</time>
      </trkpt>
      <trkpt lat="44.74864" lon="4.11176">
        <ele>1085.5</ele>
        <time>2021-07-19T07:49:04Z</time>
      </trkpt>
      <trkpt lat="44.7485" lon="4.11212">
        <ele>1086.5</ele>
        <time>2021-07-19T07:49:15Z</time>
      </trkpt>
      <trkpt lat="44.74826" lon="4.11253">
        <ele>1088.17</ele>
        <time>2021-07-19T07:49:29Z</time>
      </trkpt>
      <trkpt lat="44.74791" lon="4.11298">
        <ele>1089.75</ele>
        <time>2021-07-19T07:49:45Z</time>
      </trkpt>
      <trkpt lat="44.74755" lon="4.11344">
        <ele>1091.39</ele>
        <time>2021-07-19T07:50:02Z</time>
      </trkpt>
      <trkpt lat="44.7473" lon="4.11393">
        <ele>1092.96</ele>
        <time>2021-07-19T07:50:17Z</time>
      </trkpt>
      <trkpt lat="44.74712" lon="4.11441">
        <ele>1095.05</ele>
        <time>2021-07-19T07:50:31Z</time>
      </trkpt>
      <trkpt lat="44.74701" lon="4.11485">
        <ele>1095.93</ele>
        <time>2021-07-19T07:50:43Z</time>
      </trkpt>
      <trkpt lat="44.74703" lon="4.11519">
        <ele>1096.71</ele>
        <time>2021-07-19T07:50:52Z</time>
      </trkpt>
      <trkpt lat="44.74703" lon="4.11522">
        <ele>1096.84</ele>
        <time>2021-07-19T07:50:53Z</time>
      </trkpt>
      <trkpt lat="44.74704" lon="4.11525">
        <ele>1096.96</ele>
        <time>2021-07-19T07:50:54Z</time>
      </trkpt>
      <trkpt lat="44.74703" lon="4.1153">
        <ele>1097.8</ele>
        <time>2021-07-19T07:51:08Z</time>
      </trkpt>
      <trkpt lat="44.74699" lon="4.11535">
        <ele>1097.88</ele>
        <time>2021-07-19T07:51:42Z</time>
      </trkpt>
      <trkpt lat="44.74702" lon="4.11528">
        <ele>1097.97</ele>
        <time>2021-07-19T07:52:08Z</time>
      </trkpt>
      <trkpt lat="44.74694" lon="4.11523">
        <ele>1098.25</ele>
        <time>2021-07-19T07:52:49Z</time>
      </trkpt>
      <trkpt lat="44.74697" lon="4.1153">
        <ele>1098.25</ele>
        <time>2021-07-19T07:52:55Z</time>
      </trkpt>
      <trkpt lat="44.74697" lon="4.11532">
        <ele>1098.18</ele>
        <time>2021-07-19T07:52:56Z</time>
      </trkpt>
      <trkpt lat="44.74697" lon="4.11534">
        <ele>1098.13</ele>
        <time>2021-07-19T07:52:57Z</time>
      </trkpt>
      <trkpt lat="44.7469" lon="4.11578">
        <ele>1098.49</ele>
        <time>2021-07-19T07:53:09Z</time>
      </trkpt>
      <trkpt lat="44.7469" lon="4.11584">
        <ele>1098.71</ele>
        <time>2021-07-19T07:53:11Z</time>
      </trkpt>
      <trkpt lat="44.74689" lon="4.11587">
        <ele>1098.82</ele>
        <time>2021-07-19T07:53:12Z</time>
      </trkpt>
      <trkpt lat="44.74688" lon="4.1159">
        <ele>1098.95</ele>
        <time>2021-07-19T07:53:13Z</time>
      </trkpt>
      <trkpt lat="44.74688" lon="4.11593">
        <ele>1099.08</ele>
        <time>2021-07-19T07:53:14Z</time>
      </trkpt>
      <trkpt lat="44.74687" lon="4.11596">
        <ele>1099.21</ele>
        <time>2021-07-19T07:53:15Z</time>
      </trkpt>
      <trkpt lat="44.74686" lon="4.11599">
        <ele>1099.33</ele>
        <time>2021-07-19T07:53:16Z</time>
      </trkpt>
      <trkpt lat="44.74669" lon="4.11635">
        <ele>1100.89</ele>
        <time>2021-07-19T07:53:27Z</time>
      </trkpt>
      <trkpt lat="44.74651" lon="4.11673">
        <ele>1102.03</ele>
        <time>2021-07-19T07:53:39Z</time>
      </trkpt>
      <trkpt lat="44.74638" lon="4.11703">
        <ele>1103.16</ele>
        <time>2021-07-19T07:53:48Z</time>
      </trkpt>
      <trkpt lat="44.74621" lon="4.11736">
        <ele>1104.31</ele>
        <time>2021-07-19T07:53:58Z</time>
      </trkpt>
      <trkpt lat="44.74594" lon="4.11793">
        <ele>1105.8</ele>
        <time>2021-07-19T07:54:13Z</time>
      </trkpt>
      <trkpt lat="44.74572" lon="4.1184">
        <ele>1107.51</ele>
        <time>2021-07-19T07:54:27Z</time>
      </trkpt>
      <trkpt lat="44.74556" lon="4.11881">
        <ele>1108.76</ele>
        <time>2021-07-19T07:54:39Z</time>
      </trkpt>
      <trkpt lat="44.74544" lon="4.11904">
        <ele>1110.14</ele>
        <time>2021-07-19T07:54:52Z</time>
      </trkpt>
      <trkpt lat="44.74537" lon="4.11908">
        <ele>1110.35</ele>
        <time>2021-07-19T07:55:19Z</time>
      </trkpt>
      <trkpt lat="44.74532" lon="4.11911">
        <ele>1110.78</ele>
        <time>2021-07-19T07:55:51Z</time>
      </trkpt>
      <trkpt lat="44.74532" lon="4.11916">
        <ele>1110.84</ele>
        <time>2021-07-19T07:55:54Z</time>
      </trkpt>
      <trkpt lat="44.74531" lon="4.11918">
        <ele>1110.88</ele>
        <time>2021-07-19T07:55:55Z</time>
      </trkpt>
      <trkpt lat="44.7453" lon="4.11924">
        <ele>1110.95</ele>
        <time>2021-07-19T07:55:58Z</time>
      </trkpt>
      <trkpt lat="44.7453" lon="4.11927">
        <ele>1110.98</ele>
        <time>2021-07-19T07:55:59Z</time>
      </trkpt>
      <trkpt lat="44.74529" lon="4.1193">
        <ele>1111.01</ele>
        <time>2021-07-19T07:56:00Z</time>
      </trkpt>
      <trkpt lat="44.74528" lon="4.11932">
        <ele>1111.06</ele>
        <time>2021-07-19T07:56:01Z</time>
      </trkpt>
      <trkpt lat="44.74527" lon="4.11934">
        <ele>1111.13</ele>
        <time>2021-07-19T07:56:02Z</time>
      </trkpt>
      <trkpt lat="44.7451" lon="4.11976">
        <ele>1112.38</ele>
        <time>2021-07-19T07:56:16Z</time>
      </trkpt>
      <trkpt lat="44.74505" lon="4.12028">
        <ele>1113.96</ele>
        <time>2021-07-19T07:56:29Z</time>
      </trkpt>
      <trkpt lat="44.7453" lon="4.12073">
        <ele>1115.39</ele>
        <time>2021-07-19T07:56:44Z</time>
      </trkpt>
      <trkpt lat="44.74567" lon="4.12075">
        <ele>1118.14</ele>
        <time>2021-07-19T07:56:59Z</time>
      </trkpt>
      <trkpt lat="44.74602" lon="4.12097">
        <ele>1119.6</ele>
        <time>2021-07-19T07:57:15Z</time>
      </trkpt>
      <trkpt lat="44.74619" lon="4.12153">
        <ele>1121.12</ele>
        <time>2021-07-19T07:57:33Z</time>
      </trkpt>
      <trkpt lat="44.74635" lon="4.12201">
        <ele>1124.06</ele>
        <time>2021-07-19T07:57:50Z</time>
      </trkpt>
      <trkpt lat="44.74668" lon="4.12225">
        <ele>1125.73</ele>
        <time>2021-07-19T07:58:06Z</time>
      </trkpt>
      <trkpt lat="44.74714" lon="4.12257">
        <ele>1127.69</ele>
        <time>2021-07-19T07:58:27Z</time>
      </trkpt>
      <trkpt lat="44.7474" lon="4.12292">
        <ele>1128.71</ele>
        <time>2021-07-19T07:58:41Z</time>
      </trkpt>
      <trkpt lat="44.74751" lon="4.12352">
        <ele>1131.05</ele>
        <time>2021-07-19T07:58:57Z</time>
      </trkpt>
      <trkpt lat="44.7473" lon="4.12385">
        <ele>1132.85</ele>
        <time>2021-07-19T07:59:08Z</time>
      </trkpt>
      <trkpt lat="44.7469" lon="4.12384">
        <ele>1134.36</ele>
        <time>2021-07-19T07:59:22Z</time>
      </trkpt>
      <trkpt lat="44.74657" lon="4.12386">
        <ele>1135.61</ele>
        <time>2021-07-19T07:59:35Z</time>
      </trkpt>
      <trkpt lat="44.74622" lon="4.12398">
        <ele>1136.92</ele>
        <time>2021-07-19T07:59:49Z</time>
      </trkpt>
      <trkpt lat="44.7459" lon="4.12413">
        <ele>1138.38</ele>
        <time>2021-07-19T08:00:02Z</time>
      </trkpt>
      <trkpt lat="44.74554" lon="4.12428">
        <ele>1139.78</ele>
        <time>2021-07-19T08:00:15Z</time>
      </trkpt>
      <trkpt lat="44.74514" lon="4.12439">
        <ele>1141.75</ele>
        <time>2021-07-19T08:00:28Z</time>
      </trkpt>
      <trkpt lat="44.74468" lon="4.12459">
        <ele>1143.46</ele>
        <time>2021-07-19T08:00:45Z</time>
      </trkpt>
      <trkpt lat="44.74433" lon="4.12484">
        <ele>1145.43</ele>
        <time>2021-07-19T08:01:00Z</time>
      </trkpt>
      <trkpt lat="44.74395" lon="4.12526">
        <ele>1147.75</ele>
        <time>2021-07-19T08:01:17Z</time>
      </trkpt>
      <trkpt lat="44.74359" lon="4.12579">
        <ele>1149.55</ele>
        <time>2021-07-19T08:01:35Z</time>
      </trkpt>
      <trkpt lat="44.74324" lon="4.1263">
        <ele>1152.4</ele>
        <time>2021-07-19T08:01:53Z</time>
      </trkpt>
      <trkpt lat="44.74297" lon="4.12671">
        <ele>1153.74</ele>
        <time>2021-07-19T08:02:07Z</time>
      </trkpt>
      <trkpt lat="44.7426" lon="4.12725">
        <ele>1155.81</ele>
        <time>2021-07-19T08:02:25Z</time>
      </trkpt>
      <trkpt lat="44.74236" lon="4.12771">
        <ele>1157.11</ele>
        <time>2021-07-19T08:02:39Z</time>
      </trkpt>
      <trkpt lat="44.74213" lon="4.12811">
        <ele>1157.62</ele>
        <time>2021-07-19T08:02:52Z</time>
      </trkpt>
      <trkpt lat="44.74203" lon="4.12858">
        <ele>1159.61</ele>
        <time>2021-07-19T08:03:05Z</time>
      </trkpt>
      <trkpt lat="44.7423" lon="4.12898">
        <ele>1161.5</ele>
        <time>2021-07-19T08:03:19Z</time>
      </trkpt>
      <trkpt lat="44.74261" lon="4.12941">
        <ele>1164.46</ele>
        <time>2021-07-19T08:03:38Z</time>
      </trkpt>
      <trkpt lat="44.74287" lon="4.12983">
        <ele>1166.51</ele>
        <time>2021-07-19T08:03:56Z</time>
      </trkpt>
      <trkpt lat="44.74297" lon="4.13023">
        <ele>1167.65</ele>
        <time>2021-07-19T08:04:09Z</time>
      </trkpt>
      <trkpt lat="44.74292" lon="4.13065">
        <ele>1169.26</ele>
        <time>2021-07-19T08:04:23Z</time>
      </trkpt>
      <trkpt lat="44.7429" lon="4.13082">
        <ele>1169.8</ele>
        <time>2021-07-19T08:04:29Z</time>
      </trkpt>
      <trkpt lat="44.74289" lon="4.13085">
        <ele>1169.92</ele>
        <time>2021-07-19T08:04:30Z</time>
      </trkpt>
      <trkpt lat="44.74287" lon="4.13138">
        <ele>1172.96</ele>
        <time>2021-07-19T08:04:46Z</time>
      </trkpt>
      <trkpt lat="44.74295" lon="4.13177">
        <ele>1173.76</ele>
        <time>2021-07-19T08:04:58Z</time>
      </trkpt>
      <trkpt lat="44.74302" lon="4.13215">
        <ele>1175.39</ele>
        <time>2021-07-19T08:05:11Z</time>
      </trkpt>
      <trkpt lat="44.74306" lon="4.13258">
        <ele>1178.46</ele>
        <time>2021-07-19T08:05:25Z</time>
      </trkpt>
      <trkpt lat="44.74304" lon="4.13302">
        <ele>1180.38</ele>
        <time>2021-07-19T08:05:39Z</time>
      </trkpt>
      <trkpt lat="44.74302" lon="4.13351">
        <ele>1182.21</ele>
        <time>2021-07-19T08:05:55Z</time>
      </trkpt>
      <trkpt lat="44.74307" lon="4.13385">
        <ele>1182.65</ele>
        <time>2021-07-19T08:06:07Z</time>
      </trkpt>
      <trkpt lat="44.74331" lon="4.13429">
        <ele>1184.17</ele>
        <time>2021-07-19T08:06:23Z</time>
      </trkpt>
      <trkpt lat="44.74365" lon="4.13459">
        <ele>1185.91</ele>
        <time>2021-07-19T08:06:39Z</time>
      </trkpt>
      <trkpt lat="44.74398" lon="4.13474">
        <ele>1186.82</ele>
        <time>2021-07-19T08:06:53Z</time>
      </trkpt>
      <trkpt lat="44.74436" lon="4.13489">
        <ele>1188.49</ele>
        <time>2021-07-19T08:07:10Z</time>
      </trkpt>
      <trkpt lat="44.74459" lon="4.13502">
        <ele>1189.47</ele>
        <time>2021-07-19T08:07:21Z</time>
      </trkpt>
      <trkpt lat="44.7447" lon="4.1353">
        <ele>1190.9</ele>
        <time>2021-07-19T08:07:31Z</time>
      </trkpt>
      <trkpt lat="44.74457" lon="4.13573">
        <ele>1192.78</ele>
        <time>2021-07-19T08:07:44Z</time>
      </trkpt>
      <trkpt lat="44.74438" lon="4.13617">
        <ele>1194.56</ele>
        <time>2021-07-19T08:07:58Z</time>
      </trkpt>
      <trkpt lat="44.7443" lon="4.13648">
        <ele>1195.58</ele>
        <time>2021-07-19T08:08:08Z</time>
      </trkpt>
      <trkpt lat="44.74429" lon="4.13651">
        <ele>1195.65</ele>
        <time>2021-07-19T08:08:09Z</time>
      </trkpt>
      <trkpt lat="44.74429" lon="4.13653">
        <ele>1195.7</ele>
        <time>2021-07-19T08:08:10Z</time>
      </trkpt>
      <trkpt lat="44.74428" lon="4.13655">
        <ele>1195.74</ele>
        <time>2021-07-19T08:08:11Z</time>
      </trkpt>
      <trkpt lat="44.74427" lon="4.13656">
        <ele>1195.8</ele>
        <time>2021-07-19T08:08:12Z</time>
      </trkpt>
      <trkpt lat="44.74426" lon="4.13658">
        <ele>1195.89</ele>
        <time>2021-07-19T08:08:13Z</time>
      </trkpt>
      <trkpt lat="44.74424" lon="4.1366">
        <ele>1196</ele>
        <time>2021-07-19T08:08:14Z</time>
      </trkpt>
      <trkpt lat="44.74396" lon="4.13679">
        <ele>1197.23</ele>
        <time>2021-07-19T08:08:26Z</time>
      </trkpt>
      <trkpt lat="44.74371" lon="4.13687">
        <ele>1198.32</ele>
        <time>2021-07-19T08:08:37Z</time>
      </trkpt>
      <trkpt lat="44.74367" lon="4.13689">
        <ele>1198.44</ele>
        <time>2021-07-19T08:08:39Z</time>
      </trkpt>
      <trkpt lat="44.74365" lon="4.1369">
        <ele>1198.49</ele>
        <time>2021-07-19T08:08:40Z</time>
      </trkpt>
      <trkpt lat="44.74363" lon="4.13691">
        <ele>1198.52</ele>
        <time>2021-07-19T08:08:41Z</time>
      </trkpt>
      <trkpt lat="44.74342" lon="4.13707">
        <ele>1199.28</ele>
        <time>2021-07-19T08:08:50Z</time>
      </trkpt>
      <trkpt lat="44.74342" lon="4.13709">
        <ele>1199.38</ele>
        <time>2021-07-19T08:08:51Z</time>
      </trkpt>
      <trkpt lat="44.7434" lon="4.13711">
        <ele>1199.48</ele>
        <time>2021-07-19T08:08:52Z</time>
      </trkpt>
      <trkpt lat="44.7434" lon="4.13713">
        <ele>1199.6</ele>
        <time>2021-07-19T08:08:53Z</time>
      </trkpt>
      <trkpt lat="44.74338" lon="4.13715">
        <ele>1199.73</ele>
        <time>2021-07-19T08:08:54Z</time>
      </trkpt>
      <trkpt lat="44.74336" lon="4.13717">
        <ele>1199.88</ele>
        <time>2021-07-19T08:08:55Z</time>
      </trkpt>
      <trkpt lat="44.74335" lon="4.13718">
        <ele>1200.03</ele>
        <time>2021-07-19T08:08:56Z</time>
      </trkpt>
      <trkpt lat="44.74324" lon="4.13729">
        <ele>1200.93</ele>
        <time>2021-07-19T08:09:02Z</time>
      </trkpt>
      <trkpt lat="44.74322" lon="4.13731">
        <ele>1201.12</ele>
        <time>2021-07-19T08:09:03Z</time>
      </trkpt>
      <trkpt lat="44.74321" lon="4.13734">
        <ele>1201.27</ele>
        <time>2021-07-19T08:09:04Z</time>
      </trkpt>
      <trkpt lat="44.74319" lon="4.13735">
        <ele>1201.39</ele>
        <time>2021-07-19T08:09:05Z</time>
      </trkpt>
      <trkpt lat="44.74318" lon="4.13737">
        <ele>1201.48</ele>
        <time>2021-07-19T08:09:06Z</time>
      </trkpt>
      <trkpt lat="44.74317" lon="4.1374">
        <ele>1201.62</ele>
        <time>2021-07-19T08:09:07Z</time>
      </trkpt>
      <trkpt lat="44.74307" lon="4.1375">
        <ele>1202.18</ele>
        <time>2021-07-19T08:09:13Z</time>
      </trkpt>
      <trkpt lat="44.74305" lon="4.13752">
        <ele>1202.29</ele>
        <time>2021-07-19T08:09:14Z</time>
      </trkpt>
      <trkpt lat="44.74303" lon="4.13753">
        <ele>1202.43</ele>
        <time>2021-07-19T08:09:15Z</time>
      </trkpt>
      <trkpt lat="44.74301" lon="4.13756">
        <ele>1202.56</ele>
        <time>2021-07-19T08:09:16Z</time>
      </trkpt>
      <trkpt lat="44.743" lon="4.13759">
        <ele>1202.69</ele>
        <time>2021-07-19T08:09:17Z</time>
      </trkpt>
      <trkpt lat="44.74298" lon="4.13762">
        <ele>1202.82</ele>
        <time>2021-07-19T08:09:18Z</time>
      </trkpt>
      <trkpt lat="44.74281" lon="4.13787">
        <ele>1204.52</ele>
        <time>2021-07-19T08:09:29Z</time>
      </trkpt>
      <trkpt lat="44.74262" lon="4.13815">
        <ele>1205.56</ele>
        <time>2021-07-19T08:09:40Z</time>
      </trkpt>
      <trkpt lat="44.74241" lon="4.13851">
        <ele>1207.19</ele>
        <time>2021-07-19T08:09:54Z</time>
      </trkpt>
      <trkpt lat="44.74211" lon="4.13886">
        <ele>1209.05</ele>
        <time>2021-07-19T08:10:09Z</time>
      </trkpt>
      <trkpt lat="44.74179" lon="4.13917">
        <ele>1211.05</ele>
        <time>2021-07-19T08:10:23Z</time>
      </trkpt>
      <trkpt lat="44.74161" lon="4.13943">
        <ele>1212.49</ele>
        <time>2021-07-19T08:10:34Z</time>
      </trkpt>
      <trkpt lat="44.74141" lon="4.13969">
        <ele>1214.26</ele>
        <time>2021-07-19T08:10:46Z</time>
      </trkpt>
      <trkpt lat="44.74128" lon="4.13987">
        <ele>1215.22</ele>
        <time>2021-07-19T08:10:55Z</time>
      </trkpt>
      <trkpt lat="44.74127" lon="4.1399">
        <ele>1215.38</ele>
        <time>2021-07-19T08:10:56Z</time>
      </trkpt>
      <trkpt lat="44.74126" lon="4.13992">
        <ele>1215.54</ele>
        <time>2021-07-19T08:10:57Z</time>
      </trkpt>
      <trkpt lat="44.74125" lon="4.13994">
        <ele>1215.68</ele>
        <time>2021-07-19T08:10:58Z</time>
      </trkpt>
      <trkpt lat="44.74123" lon="4.13997">
        <ele>1215.8</ele>
        <time>2021-07-19T08:10:59Z</time>
      </trkpt>
      <trkpt lat="44.74095" lon="4.14038">
        <ele>1218.02</ele>
        <time>2021-07-19T08:11:15Z</time>
      </trkpt>
      <trkpt lat="44.74088" lon="4.14046">
        <ele>1218.82</ele>
        <time>2021-07-19T08:11:19Z</time>
      </trkpt>
      <trkpt lat="44.74074" lon="4.14062">
        <ele>1219.46</ele>
        <time>2021-07-19T08:11:27Z</time>
      </trkpt>
      <trkpt lat="44.74073" lon="4.14064">
        <ele>1219.54</ele>
        <time>2021-07-19T08:11:28Z</time>
      </trkpt>
      <trkpt lat="44.74073" lon="4.14066">
        <ele>1219.61</ele>
        <time>2021-07-19T08:11:29Z</time>
      </trkpt>
      <trkpt lat="44.74067" lon="4.14087">
        <ele>1221.21</ele>
        <time>2021-07-19T08:11:37Z</time>
      </trkpt>
      <trkpt lat="44.74065" lon="4.14088">
        <ele>1221.27</ele>
        <time>2021-07-19T08:11:38Z</time>
      </trkpt>
      <trkpt lat="44.74064" lon="4.14091">
        <ele>1221.32</ele>
        <time>2021-07-19T08:11:39Z</time>
      </trkpt>
      <trkpt lat="44.74055" lon="4.14127">
        <ele>1223.07</ele>
        <time>2021-07-19T08:11:53Z</time>
      </trkpt>
      <trkpt lat="44.74052" lon="4.14142">
        <ele>1223.31</ele>
        <time>2021-07-19T08:11:58Z</time>
      </trkpt>
      <trkpt lat="44.74052" lon="4.14162">
        <ele>1224.51</ele>
        <time>2021-07-19T08:12:05Z</time>
      </trkpt>
      <trkpt lat="44.74052" lon="4.14165">
        <ele>1224.63</ele>
        <time>2021-07-19T08:12:06Z</time>
      </trkpt>
      <trkpt lat="44.74053" lon="4.14168">
        <ele>1224.73</ele>
        <time>2021-07-19T08:12:07Z</time>
      </trkpt>
      <trkpt lat="44.74056" lon="4.1418">
        <ele>1225.03</ele>
        <time>2021-07-19T08:12:11Z</time>
      </trkpt>
      <trkpt lat="44.74057" lon="4.14183">
        <ele>1225.1</ele>
        <time>2021-07-19T08:12:12Z</time>
      </trkpt>
      <trkpt lat="44.74057" lon="4.14186">
        <ele>1225.19</ele>
        <time>2021-07-19T08:12:13Z</time>
      </trkpt>
      <trkpt lat="44.74058" lon="4.14188">
        <ele>1225.29</ele>
        <time>2021-07-19T08:12:14Z</time>
      </trkpt>
      <trkpt lat="44.74059" lon="4.14191">
        <ele>1225.39</ele>
        <time>2021-07-19T08:12:15Z</time>
      </trkpt>
      <trkpt lat="44.74059" lon="4.14194">
        <ele>1225.52</ele>
        <time>2021-07-19T08:12:16Z</time>
      </trkpt>
      <trkpt lat="44.7406" lon="4.14196">
        <ele>1225.67</ele>
        <time>2021-07-19T08:12:17Z</time>
      </trkpt>
      <trkpt lat="44.7406" lon="4.14199">
        <ele>1225.81</ele>
        <time>2021-07-19T08:12:18Z</time>
      </trkpt>
      <trkpt lat="44.74061" lon="4.14202">
        <ele>1225.94</ele>
        <time>2021-07-19T08:12:19Z</time>
      </trkpt>
      <trkpt lat="44.74061" lon="4.14241">
        <ele>1228.19</ele>
        <time>2021-07-19T08:12:33Z</time>
      </trkpt>
      <trkpt lat="44.7406" lon="4.14272">
        <ele>1229.52</ele>
        <time>2021-07-19T08:12:43Z</time>
      </trkpt>
      <trkpt lat="44.7407" lon="4.14283">
        <ele>1230.3</ele>
        <time>2021-07-19T08:12:48Z</time>
      </trkpt>
      <trkpt lat="44.74072" lon="4.14284">
        <ele>1230.57</ele>
        <time>2021-07-19T08:12:49Z</time>
      </trkpt>
      <trkpt lat="44.74075" lon="4.14284">
        <ele>1230.57</ele>
        <time>2021-07-19T08:12:50Z</time>
      </trkpt>
      <trkpt lat="44.74078" lon="4.14284">
        <ele>1230.78</ele>
        <time>2021-07-19T08:12:51Z</time>
      </trkpt>
      <trkpt lat="44.74082" lon="4.14282">
        <ele>1230.81</ele>
        <time>2021-07-19T08:12:52Z</time>
      </trkpt>
      <trkpt lat="44.74099" lon="4.1426">
        <ele>1230.48</ele>
        <time>2021-07-19T08:13:01Z</time>
      </trkpt>
      <trkpt lat="44.74099" lon="4.14257">
        <ele>1230.26</ele>
        <time>2021-07-19T08:13:13Z</time>
      </trkpt>
      <trkpt lat="44.74103" lon="4.1426">
        <ele>1230.67</ele>
        <time>2021-07-19T08:13:43Z</time>
      </trkpt>
      <trkpt lat="44.741" lon="4.14253">
        <ele>1230.47</ele>
        <time>2021-07-19T08:14:14Z</time>
      </trkpt>
      <trkpt lat="44.741" lon="4.14244">
        <ele>1230.26</ele>
        <time>2021-07-19T08:14:48Z</time>
      </trkpt>
      <trkpt lat="44.74098" lon="4.14247">
        <ele>1229.72</ele>
        <time>2021-07-19T08:15:18Z</time>
      </trkpt>
      <trkpt lat="44.74099" lon="4.14252">
        <ele>1229.8</ele>
        <time>2021-07-19T08:15:50Z</time>
      </trkpt>
      <trkpt lat="44.74101" lon="4.14249">
        <ele>1229.77</ele>
        <time>2021-07-19T08:16:24Z</time>
      </trkpt>
      <trkpt lat="44.74099" lon="4.14253">
        <ele>1230.19</ele>
        <time>2021-07-19T08:17:09Z</time>
      </trkpt>
      <trkpt lat="44.74099" lon="4.1425">
        <ele>1230.16</ele>
        <time>2021-07-19T08:17:12Z</time>
      </trkpt>
      <trkpt lat="44.74099" lon="4.14248">
        <ele>1230.13</ele>
        <time>2021-07-19T08:17:13Z</time>
      </trkpt>
      <trkpt lat="44.74098" lon="4.14245">
        <ele>1230.14</ele>
        <time>2021-07-19T08:17:14Z</time>
      </trkpt>
      <trkpt lat="44.74098" lon="4.14241">
        <ele>1230.15</ele>
        <time>2021-07-19T08:17:15Z</time>
      </trkpt>
      <trkpt lat="44.74098" lon="4.14237">
        <ele>1230.17</ele>
        <time>2021-07-19T08:17:16Z</time>
      </trkpt>
      <trkpt lat="44.74097" lon="4.14233">
        <ele>1230.17</ele>
        <time>2021-07-19T08:17:17Z</time>
      </trkpt>
      <trkpt lat="44.74097" lon="4.14229">
        <ele>1230.15</ele>
        <time>2021-07-19T08:17:18Z</time>
      </trkpt>
      <trkpt lat="44.74093" lon="4.14164">
        <ele>1229.75</ele>
        <time>2021-07-19T08:17:32Z</time>
      </trkpt>
      <trkpt lat="44.74112" lon="4.14117">
        <ele>1230.53</ele>
        <time>2021-07-19T08:17:43Z</time>
      </trkpt>
      <trkpt lat="44.74137" lon="4.14075">
        <ele>1230.77</ele>
        <time>2021-07-19T08:17:53Z</time>
      </trkpt>
      <trkpt lat="44.74166" lon="4.14037">
        <ele>1231.2</ele>
        <time>2021-07-19T08:18:04Z</time>
      </trkpt>
      <trkpt lat="44.7419" lon="4.1401">
        <ele>1231.93</ele>
        <time>2021-07-19T08:18:13Z</time>
      </trkpt>
      <trkpt lat="44.74218" lon="4.13988">
        <ele>1232.68</ele>
        <time>2021-07-19T08:18:23Z</time>
      </trkpt>
      <trkpt lat="44.74253" lon="4.13959">
        <ele>1233.68</ele>
        <time>2021-07-19T08:18:34Z</time>
      </trkpt>
      <trkpt lat="44.74285" lon="4.13936">
        <ele>1233.99</ele>
        <time>2021-07-19T08:18:44Z</time>
      </trkpt>
      <trkpt lat="44.74326" lon="4.13914">
        <ele>1234.49</ele>
        <time>2021-07-19T08:18:55Z</time>
      </trkpt>
      <trkpt lat="44.74362" lon="4.13895">
        <ele>1235.41</ele>
        <time>2021-07-19T08:19:06Z</time>
      </trkpt>
      <trkpt lat="44.74393" lon="4.1389">
        <ele>1235.79</ele>
        <time>2021-07-19T08:19:15Z</time>
      </trkpt>
      <trkpt lat="44.74425" lon="4.13891">
        <ele>1236.26</ele>
        <time>2021-07-19T08:19:25Z</time>
      </trkpt>
      <trkpt lat="44.74462" lon="4.13887">
        <ele>1236.99</ele>
        <time>2021-07-19T08:19:34Z</time>
      </trkpt>
      <trkpt lat="44.74499" lon="4.13877">
        <ele>1237.45</ele>
        <time>2021-07-19T08:19:45Z</time>
      </trkpt>
      <trkpt lat="44.74546" lon="4.13851">
        <ele>1238.05</ele>
        <time>2021-07-19T08:19:57Z</time>
      </trkpt>
      <trkpt lat="44.74588" lon="4.13804">
        <ele>1238.97</ele>
        <time>2021-07-19T08:20:09Z</time>
      </trkpt>
      <trkpt lat="44.74603" lon="4.13787">
        <ele>1239.37</ele>
        <time>2021-07-19T08:20:13Z</time>
      </trkpt>
      <trkpt lat="44.74607" lon="4.13783">
        <ele>1239.47</ele>
        <time>2021-07-19T08:20:14Z</time>
      </trkpt>
      <trkpt lat="44.74627" lon="4.13764">
        <ele>1239.34</ele>
        <time>2021-07-19T08:20:19Z</time>
      </trkpt>
      <trkpt lat="44.74636" lon="4.13758">
        <ele>1239.3</ele>
        <time>2021-07-19T08:20:21Z</time>
      </trkpt>
      <trkpt lat="44.7464" lon="4.13755">
        <ele>1239.27</ele>
        <time>2021-07-19T08:20:22Z</time>
      </trkpt>
      <trkpt lat="44.74645" lon="4.13752">
        <ele>1239.25</ele>
        <time>2021-07-19T08:20:23Z</time>
      </trkpt>
      <trkpt lat="44.74654" lon="4.13746">
        <ele>1239.21</ele>
        <time>2021-07-19T08:20:25Z</time>
      </trkpt>
      <trkpt lat="44.74663" lon="4.13741">
        <ele>1239.13</ele>
        <time>2021-07-19T08:20:27Z</time>
      </trkpt>
      <trkpt lat="44.74673" lon="4.13737">
        <ele>1238.92</ele>
        <time>2021-07-19T08:20:29Z</time>
      </trkpt>
      <trkpt lat="44.74679" lon="4.13736">
        <ele>1238.8</ele>
        <time>2021-07-19T08:20:30Z</time>
      </trkpt>
      <trkpt lat="44.74692" lon="4.13735">
        <ele>1238.57</ele>
        <time>2021-07-19T08:20:32Z</time>
      </trkpt>
      <trkpt lat="44.7477" lon="4.13757">
        <ele>1236.37</ele>
        <time>2021-07-19T08:20:42Z</time>
      </trkpt>
      <trkpt lat="44.74829" lon="4.13777">
        <ele>1233.34</ele>
        <time>2021-07-19T08:20:48Z</time>
      </trkpt>
      <trkpt lat="44.74896" lon="4.13797">
        <ele>1229.97</ele>
        <time>2021-07-19T08:20:55Z</time>
      </trkpt>
      <trkpt lat="44.74905" lon="4.13796">
        <ele>1229.61</ele>
        <time>2021-07-19T08:20:56Z</time>
      </trkpt>
      <trkpt lat="44.74914" lon="4.13793">
        <ele>1229.25</ele>
        <time>2021-07-19T08:20:57Z</time>
      </trkpt>
      <trkpt lat="44.74922" lon="4.13789">
        <ele>1228.94</ele>
        <time>2021-07-19T08:20:58Z</time>
      </trkpt>
      <trkpt lat="44.7493" lon="4.13783">
        <ele>1228.69</ele>
        <time>2021-07-19T08:20:59Z</time>
      </trkpt>
      <trkpt lat="44.74937" lon="4.13776">
        <ele>1228.49</ele>
        <time>2021-07-19T08:21:00Z</time>
      </trkpt>
      <trkpt lat="44.74943" lon="4.13768">
        <ele>1228.33</ele>
        <time>2021-07-19T08:21:01Z</time>
      </trkpt>
      <trkpt lat="44.74975" lon="4.13731">
        <ele>1227.13</ele>
        <time>2021-07-19T08:21:06Z</time>
      </trkpt>
      <trkpt lat="44.74981" lon="4.13725">
        <ele>1226.75</ele>
        <time>2021-07-19T08:21:07Z</time>
      </trkpt>
      <trkpt lat="44.75" lon="4.13711">
        <ele>1226.43</ele>
        <time>2021-07-19T08:21:10Z</time>
      </trkpt>
      <trkpt lat="44.75025" lon="4.13702">
        <ele>1226.26</ele>
        <time>2021-07-19T08:21:14Z</time>
      </trkpt>
      <trkpt lat="44.7509" lon="4.13692">
        <ele>1226.53</ele>
        <time>2021-07-19T08:21:24Z</time>
      </trkpt>
      <trkpt lat="44.75096" lon="4.1369">
        <ele>1226.57</ele>
        <time>2021-07-19T08:21:25Z</time>
      </trkpt>
      <trkpt lat="44.75102" lon="4.13688">
        <ele>1226.51</ele>
        <time>2021-07-19T08:21:26Z</time>
      </trkpt>
      <trkpt lat="44.75108" lon="4.13686">
        <ele>1226.46</ele>
        <time>2021-07-19T08:21:27Z</time>
      </trkpt>
      <trkpt lat="44.75114" lon="4.13682">
        <ele>1226.36</ele>
        <time>2021-07-19T08:21:28Z</time>
      </trkpt>
      <trkpt lat="44.75119" lon="4.13678">
        <ele>1226.26</ele>
        <time>2021-07-19T08:21:29Z</time>
      </trkpt>
      <trkpt lat="44.75124" lon="4.13674">
        <ele>1226.19</ele>
        <time>2021-07-19T08:21:30Z</time>
      </trkpt>
      <trkpt lat="44.75182" lon="4.13604">
        <ele>1226.65</ele>
        <time>2021-07-19T08:21:43Z</time>
      </trkpt>
      <trkpt lat="44.75227" lon="4.13553">
        <ele>1226.43</ele>
        <time>2021-07-19T08:21:53Z</time>
      </trkpt>
      <trkpt lat="44.75232" lon="4.1355">
        <ele>1226.4</ele>
        <time>2021-07-19T08:21:54Z</time>
      </trkpt>
      <trkpt lat="44.75292" lon="4.1351">
        <ele>1227.61</ele>
        <time>2021-07-19T08:22:06Z</time>
      </trkpt>
      <trkpt lat="44.75298" lon="4.13509">
        <ele>1227.52</ele>
        <time>2021-07-19T08:22:07Z</time>
      </trkpt>
      <trkpt lat="44.75304" lon="4.13509">
        <ele>1227.46</ele>
        <time>2021-07-19T08:22:08Z</time>
      </trkpt>
      <trkpt lat="44.75309" lon="4.1351">
        <ele>1227.37</ele>
        <time>2021-07-19T08:22:09Z</time>
      </trkpt>
      <trkpt lat="44.75315" lon="4.13511">
        <ele>1227.3</ele>
        <time>2021-07-19T08:22:10Z</time>
      </trkpt>
      <trkpt lat="44.7532" lon="4.13513">
        <ele>1227.24</ele>
        <time>2021-07-19T08:22:11Z</time>
      </trkpt>
      <trkpt lat="44.75324" lon="4.13514">
        <ele>1227.24</ele>
        <time>2021-07-19T08:22:12Z</time>
      </trkpt>
      <trkpt lat="44.75389" lon="4.13567">
        <ele>1227.31</ele>
        <time>2021-07-19T08:22:26Z</time>
      </trkpt>
      <trkpt lat="44.7541" lon="4.13579">
        <ele>1227.45</ele>
        <time>2021-07-19T08:22:30Z</time>
      </trkpt>
      <trkpt lat="44.75443" lon="4.13593">
        <ele>1227.42</ele>
        <time>2021-07-19T08:22:36Z</time>
      </trkpt>
      <trkpt lat="44.75449" lon="4.13597">
        <ele>1227.38</ele>
        <time>2021-07-19T08:22:37Z</time>
      </trkpt>
      <trkpt lat="44.75453" lon="4.13603">
        <ele>1227.32</ele>
        <time>2021-07-19T08:22:38Z</time>
      </trkpt>
      <trkpt lat="44.75457" lon="4.13611">
        <ele>1227.25</ele>
        <time>2021-07-19T08:22:39Z</time>
      </trkpt>
      <trkpt lat="44.7546" lon="4.1362">
        <ele>1227.19</ele>
        <time>2021-07-19T08:22:40Z</time>
      </trkpt>
      <trkpt lat="44.75462" lon="4.13629">
        <ele>1227.1</ele>
        <time>2021-07-19T08:22:41Z</time>
      </trkpt>
      <trkpt lat="44.75463" lon="4.13639">
        <ele>1226.99</ele>
        <time>2021-07-19T08:22:42Z</time>
      </trkpt>
      <trkpt lat="44.75469" lon="4.13668">
        <ele>1226.61</ele>
        <time>2021-07-19T08:22:45Z</time>
      </trkpt>
      <trkpt lat="44.75474" lon="4.13685">
        <ele>1226.22</ele>
        <time>2021-07-19T08:22:47Z</time>
      </trkpt>
      <trkpt lat="44.7548" lon="4.13693">
        <ele>1225.81</ele>
        <time>2021-07-19T08:22:48Z</time>
      </trkpt>
      <trkpt lat="44.75486" lon="4.13699">
        <ele>1225.64</ele>
        <time>2021-07-19T08:22:49Z</time>
      </trkpt>
      <trkpt lat="44.75493" lon="4.13704">
        <ele>1225.46</ele>
        <time>2021-07-19T08:22:50Z</time>
      </trkpt>
      <trkpt lat="44.755" lon="4.13707">
        <ele>1225.26</ele>
        <time>2021-07-19T08:22:51Z</time>
      </trkpt>
      <trkpt lat="44.75507" lon="4.13707">
        <ele>1225.05</ele>
        <time>2021-07-19T08:22:52Z</time>
      </trkpt>
      <trkpt lat="44.75515" lon="4.13704">
        <ele>1224.79</ele>
        <time>2021-07-19T08:22:53Z</time>
      </trkpt>
      <trkpt lat="44.75523" lon="4.13698">
        <ele>1224.42</ele>
        <time>2021-07-19T08:22:54Z</time>
      </trkpt>
      <trkpt lat="44.75529" lon="4.1369">
        <ele>1224.01</ele>
        <time>2021-07-19T08:22:55Z</time>
      </trkpt>
      <trkpt lat="44.75536" lon="4.13684">
        <ele>1223.65</ele>
        <time>2021-07-19T08:22:56Z</time>
      </trkpt>
      <trkpt lat="44.75542" lon="4.13676">
        <ele>1223.29</ele>
        <time>2021-07-19T08:22:57Z</time>
      </trkpt>
      <trkpt lat="44.75549" lon="4.13668">
        <ele>1222.89</ele>
        <time>2021-07-19T08:22:58Z</time>
      </trkpt>
      <trkpt lat="44.75556" lon="4.13661">
        <ele>1222.53</ele>
        <time>2021-07-19T08:22:59Z</time>
      </trkpt>
      <trkpt lat="44.75595" lon="4.13627">
        <ele>1220.84</ele>
        <time>2021-07-19T08:23:04Z</time>
      </trkpt>
      <trkpt lat="44.75612" lon="4.13616">
        <ele>1220.1</ele>
        <time>2021-07-19T08:23:06Z</time>
      </trkpt>
      <trkpt lat="44.75622" lon="4.13612">
        <ele>1219.77</ele>
        <time>2021-07-19T08:23:07Z</time>
      </trkpt>
      <trkpt lat="44.75632" lon="4.1361">
        <ele>1219.44</ele>
        <time>2021-07-19T08:23:08Z</time>
      </trkpt>
      <trkpt lat="44.75642" lon="4.13612">
        <ele>1219.12</ele>
        <time>2021-07-19T08:23:09Z</time>
      </trkpt>
      <trkpt lat="44.7565" lon="4.13616">
        <ele>1218.76</ele>
        <time>2021-07-19T08:23:10Z</time>
      </trkpt>
      <trkpt lat="44.75658" lon="4.13622">
        <ele>1218.39</ele>
        <time>2021-07-19T08:23:11Z</time>
      </trkpt>
      <trkpt lat="44.75667" lon="4.1363">
        <ele>1218.03</ele>
        <time>2021-07-19T08:23:12Z</time>
      </trkpt>
      <trkpt lat="44.75684" lon="4.13645">
        <ele>1217.11</ele>
        <time>2021-07-19T08:23:14Z</time>
      </trkpt>
      <trkpt lat="44.757" lon="4.13662">
        <ele>1216.61</ele>
        <time>2021-07-19T08:23:16Z</time>
      </trkpt>
      <trkpt lat="44.75707" lon="4.13672">
        <ele>1216.33</ele>
        <time>2021-07-19T08:23:17Z</time>
      </trkpt>
      <trkpt lat="44.75721" lon="4.13694">
        <ele>1215.45</ele>
        <time>2021-07-19T08:23:19Z</time>
      </trkpt>
      <trkpt lat="44.75725" lon="4.13707">
        <ele>1214.94</ele>
        <time>2021-07-19T08:23:20Z</time>
      </trkpt>
      <trkpt lat="44.75729" lon="4.13721">
        <ele>1214.43</ele>
        <time>2021-07-19T08:23:21Z</time>
      </trkpt>
      <trkpt lat="44.75741" lon="4.13795">
        <ele>1211.95</ele>
        <time>2021-07-19T08:23:26Z</time>
      </trkpt>
      <trkpt lat="44.75741" lon="4.13825">
        <ele>1210.89</ele>
        <time>2021-07-19T08:23:28Z</time>
      </trkpt>
      <trkpt lat="44.75739" lon="4.13839">
        <ele>1210.44</ele>
        <time>2021-07-19T08:23:29Z</time>
      </trkpt>
      <trkpt lat="44.75736" lon="4.13854">
        <ele>1210.06</ele>
        <time>2021-07-19T08:23:30Z</time>
      </trkpt>
      <trkpt lat="44.75735" lon="4.13869">
        <ele>1209.64</ele>
        <time>2021-07-19T08:23:31Z</time>
      </trkpt>
      <trkpt lat="44.75734" lon="4.13884">
        <ele>1209.16</ele>
        <time>2021-07-19T08:23:32Z</time>
      </trkpt>
      <trkpt lat="44.75737" lon="4.13912">
        <ele>1208.11</ele>
        <time>2021-07-19T08:23:34Z</time>
      </trkpt>
      <trkpt lat="44.75741" lon="4.13925">
        <ele>1207.53</ele>
        <time>2021-07-19T08:23:35Z</time>
      </trkpt>
      <trkpt lat="44.75745" lon="4.13939">
        <ele>1206.9</ele>
        <time>2021-07-19T08:23:36Z</time>
      </trkpt>
      <trkpt lat="44.7576" lon="4.13976">
        <ele>1204.77</ele>
        <time>2021-07-19T08:23:39Z</time>
      </trkpt>
      <trkpt lat="44.75772" lon="4.13994">
        <ele>1203.9</ele>
        <time>2021-07-19T08:23:41Z</time>
      </trkpt>
      <trkpt lat="44.75781" lon="4.13999">
        <ele>1203.51</ele>
        <time>2021-07-19T08:23:42Z</time>
      </trkpt>
      <trkpt lat="44.75791" lon="4.14">
        <ele>1203.09</ele>
        <time>2021-07-19T08:23:43Z</time>
      </trkpt>
      <trkpt lat="44.75801" lon="4.13998">
        <ele>1202.63</ele>
        <time>2021-07-19T08:23:44Z</time>
      </trkpt>
      <trkpt lat="44.75812" lon="4.13995">
        <ele>1202.18</ele>
        <time>2021-07-19T08:23:45Z</time>
      </trkpt>
      <trkpt lat="44.75822" lon="4.13992">
        <ele>1201.76</ele>
        <time>2021-07-19T08:23:46Z</time>
      </trkpt>
      <trkpt lat="44.75832" lon="4.13989">
        <ele>1201.34</ele>
        <time>2021-07-19T08:23:47Z</time>
      </trkpt>
      <trkpt lat="44.75842" lon="4.13989">
        <ele>1200.91</ele>
        <time>2021-07-19T08:23:48Z</time>
      </trkpt>
      <trkpt lat="44.7585" lon="4.13993">
        <ele>1200.47</ele>
        <time>2021-07-19T08:23:49Z</time>
      </trkpt>
      <trkpt lat="44.75858" lon="4.14001">
        <ele>1200.01</ele>
        <time>2021-07-19T08:23:50Z</time>
      </trkpt>
      <trkpt lat="44.75865" lon="4.14012">
        <ele>1199.52</ele>
        <time>2021-07-19T08:23:51Z</time>
      </trkpt>
      <trkpt lat="44.75872" lon="4.14023">
        <ele>1199.01</ele>
        <time>2021-07-19T08:23:52Z</time>
      </trkpt>
      <trkpt lat="44.7588" lon="4.14033">
        <ele>1198.49</ele>
        <time>2021-07-19T08:23:53Z</time>
      </trkpt>
      <trkpt lat="44.75894" lon="4.14055">
        <ele>1197.43</ele>
        <time>2021-07-19T08:23:55Z</time>
      </trkpt>
      <trkpt lat="44.75928" lon="4.14134">
        <ele>1194.19</ele>
        <time>2021-07-19T08:24:01Z</time>
      </trkpt>
      <trkpt lat="44.75933" lon="4.14148">
        <ele>1193.73</ele>
        <time>2021-07-19T08:24:02Z</time>
      </trkpt>
      <trkpt lat="44.75936" lon="4.14163">
        <ele>1193.3</ele>
        <time>2021-07-19T08:24:03Z</time>
      </trkpt>
      <trkpt lat="44.75938" lon="4.14178">
        <ele>1192.91</ele>
        <time>2021-07-19T08:24:04Z</time>
      </trkpt>
      <trkpt lat="44.75936" lon="4.14194">
        <ele>1192.53</ele>
        <time>2021-07-19T08:24:05Z</time>
      </trkpt>
      <trkpt lat="44.75933" lon="4.14209">
        <ele>1192.13</ele>
        <time>2021-07-19T08:24:06Z</time>
      </trkpt>
      <trkpt lat="44.75931" lon="4.1424">
        <ele>1191.31</ele>
        <time>2021-07-19T08:24:08Z</time>
      </trkpt>
      <trkpt lat="44.75934" lon="4.14271">
        <ele>1190.44</ele>
        <time>2021-07-19T08:24:10Z</time>
      </trkpt>
      <trkpt lat="44.75934" lon="4.14287">
        <ele>1189.98</ele>
        <time>2021-07-19T08:24:11Z</time>
      </trkpt>
      <trkpt lat="44.75935" lon="4.14304">
        <ele>1189.56</ele>
        <time>2021-07-19T08:24:12Z</time>
      </trkpt>
      <trkpt lat="44.75937" lon="4.14381">
        <ele>1186.33</ele>
        <time>2021-07-19T08:24:17Z</time>
      </trkpt>
      <trkpt lat="44.75934" lon="4.14395">
        <ele>1185.72</ele>
        <time>2021-07-19T08:24:18Z</time>
      </trkpt>
      <trkpt lat="44.75928" lon="4.14409">
        <ele>1185.13</ele>
        <time>2021-07-19T08:24:19Z</time>
      </trkpt>
      <trkpt lat="44.7592" lon="4.14421">
        <ele>1184.59</ele>
        <time>2021-07-19T08:24:20Z</time>
      </trkpt>
      <trkpt lat="44.75895" lon="4.14447">
        <ele>1183.45</ele>
        <time>2021-07-19T08:24:23Z</time>
      </trkpt>
      <trkpt lat="44.75885" lon="4.14454">
        <ele>1183.05</ele>
        <time>2021-07-19T08:24:24Z</time>
      </trkpt>
      <trkpt lat="44.75863" lon="4.14467">
        <ele>1182.18</ele>
        <time>2021-07-19T08:24:26Z</time>
      </trkpt>
      <trkpt lat="44.75842" lon="4.14484">
        <ele>1180.86</ele>
        <time>2021-07-19T08:24:28Z</time>
      </trkpt>
      <trkpt lat="44.75833" lon="4.14494">
        <ele>1180.41</ele>
        <time>2021-07-19T08:24:29Z</time>
      </trkpt>
      <trkpt lat="44.75827" lon="4.14505">
        <ele>1179.9</ele>
        <time>2021-07-19T08:24:30Z</time>
      </trkpt>
      <trkpt lat="44.75821" lon="4.14516">
        <ele>1179.39</ele>
        <time>2021-07-19T08:24:31Z</time>
      </trkpt>
      <trkpt lat="44.75816" lon="4.14527">
        <ele>1178.9</ele>
        <time>2021-07-19T08:24:32Z</time>
      </trkpt>
      <trkpt lat="44.75813" lon="4.14539">
        <ele>1178.48</ele>
        <time>2021-07-19T08:24:33Z</time>
      </trkpt>
      <trkpt lat="44.75814" lon="4.1455">
        <ele>1178.14</ele>
        <time>2021-07-19T08:24:34Z</time>
      </trkpt>
      <trkpt lat="44.75816" lon="4.14562">
        <ele>1177.87</ele>
        <time>2021-07-19T08:24:35Z</time>
      </trkpt>
      <trkpt lat="44.75819" lon="4.14574">
        <ele>1177.66</ele>
        <time>2021-07-19T08:24:36Z</time>
      </trkpt>
      <trkpt lat="44.75823" lon="4.14586">
        <ele>1177.47</ele>
        <time>2021-07-19T08:24:37Z</time>
      </trkpt>
      <trkpt lat="44.7583" lon="4.14596">
        <ele>1177.25</ele>
        <time>2021-07-19T08:24:38Z</time>
      </trkpt>
      <trkpt lat="44.75837" lon="4.14606">
        <ele>1176.87</ele>
        <time>2021-07-19T08:24:39Z</time>
      </trkpt>
      <trkpt lat="44.75845" lon="4.14616">
        <ele>1176.4</ele>
        <time>2021-07-19T08:24:40Z</time>
      </trkpt>
      <trkpt lat="44.75853" lon="4.14624">
        <ele>1175.93</ele>
        <time>2021-07-19T08:24:41Z</time>
      </trkpt>
      <trkpt lat="44.75885" lon="4.14662">
        <ele>1173.84</ele>
        <time>2021-07-19T08:24:45Z</time>
      </trkpt>
      <trkpt lat="44.75897" lon="4.14687">
        <ele>1172.97</ele>
        <time>2021-07-19T08:24:47Z</time>
      </trkpt>
      <trkpt lat="44.75914" lon="4.14726">
        <ele>1171.65</ele>
        <time>2021-07-19T08:24:50Z</time>
      </trkpt>
      <trkpt lat="44.75927" lon="4.14748">
        <ele>1170.48</ele>
        <time>2021-07-19T08:24:52Z</time>
      </trkpt>
      <trkpt lat="44.75935" lon="4.14755">
        <ele>1170.07</ele>
        <time>2021-07-19T08:24:53Z</time>
      </trkpt>
      <trkpt lat="44.75944" lon="4.1476">
        <ele>1169.63</ele>
        <time>2021-07-19T08:24:54Z</time>
      </trkpt>
      <trkpt lat="44.75955" lon="4.14763">
        <ele>1169.21</ele>
        <time>2021-07-19T08:24:55Z</time>
      </trkpt>
      <trkpt lat="44.75965" lon="4.14765">
        <ele>1168.8</ele>
        <time>2021-07-19T08:24:56Z</time>
      </trkpt>
      <trkpt lat="44.75974" lon="4.14768">
        <ele>1168.4</ele>
        <time>2021-07-19T08:24:57Z</time>
      </trkpt>
      <trkpt lat="44.76002" lon="4.14782">
        <ele>1166.83</ele>
        <time>2021-07-19T08:25:00Z</time>
      </trkpt>
      <trkpt lat="44.76047" lon="4.14817">
        <ele>1164.11</ele>
        <time>2021-07-19T08:25:05Z</time>
      </trkpt>
      <trkpt lat="44.76083" lon="4.14846">
        <ele>1162.42</ele>
        <time>2021-07-19T08:25:09Z</time>
      </trkpt>
      <trkpt lat="44.7609" lon="4.14859">
        <ele>1161.97</ele>
        <time>2021-07-19T08:25:10Z</time>
      </trkpt>
      <trkpt lat="44.76101" lon="4.14885">
        <ele>1161.06</ele>
        <time>2021-07-19T08:25:12Z</time>
      </trkpt>
      <trkpt lat="44.76111" lon="4.14912">
        <ele>1160.09</ele>
        <time>2021-07-19T08:25:14Z</time>
      </trkpt>
      <trkpt lat="44.76115" lon="4.14926">
        <ele>1159.22</ele>
        <time>2021-07-19T08:25:15Z</time>
      </trkpt>
      <trkpt lat="44.76122" lon="4.14952">
        <ele>1158.42</ele>
        <time>2021-07-19T08:25:17Z</time>
      </trkpt>
      <trkpt lat="44.76122" lon="4.14966">
        <ele>1157.92</ele>
        <time>2021-07-19T08:25:18Z</time>
      </trkpt>
      <trkpt lat="44.7612" lon="4.1498">
        <ele>1157.4</ele>
        <time>2021-07-19T08:25:19Z</time>
      </trkpt>
      <trkpt lat="44.76117" lon="4.14994">
        <ele>1156.85</ele>
        <time>2021-07-19T08:25:20Z</time>
      </trkpt>
      <trkpt lat="44.76113" lon="4.15006">
        <ele>1156.28</ele>
        <time>2021-07-19T08:25:21Z</time>
      </trkpt>
      <trkpt lat="44.76106" lon="4.15019">
        <ele>1155.74</ele>
        <time>2021-07-19T08:25:22Z</time>
      </trkpt>
      <trkpt lat="44.761" lon="4.15031">
        <ele>1155.23</ele>
        <time>2021-07-19T08:25:23Z</time>
      </trkpt>
      <trkpt lat="44.76094" lon="4.15043">
        <ele>1154.74</ele>
        <time>2021-07-19T08:25:24Z</time>
      </trkpt>
      <trkpt lat="44.7609" lon="4.15055">
        <ele>1154.29</ele>
        <time>2021-07-19T08:25:25Z</time>
      </trkpt>
      <trkpt lat="44.76088" lon="4.15067">
        <ele>1153.87</ele>
        <time>2021-07-19T08:25:26Z</time>
      </trkpt>
      <trkpt lat="44.76089" lon="4.1508">
        <ele>1153.43</ele>
        <time>2021-07-19T08:25:27Z</time>
      </trkpt>
      <trkpt lat="44.76092" lon="4.15091">
        <ele>1152.98</ele>
        <time>2021-07-19T08:25:28Z</time>
      </trkpt>
      <trkpt lat="44.76099" lon="4.151">
        <ele>1152.54</ele>
        <time>2021-07-19T08:25:29Z</time>
      </trkpt>
      <trkpt lat="44.76106" lon="4.15109">
        <ele>1152.1</ele>
        <time>2021-07-19T08:25:30Z</time>
      </trkpt>
      <trkpt lat="44.76113" lon="4.15118">
        <ele>1151.66</ele>
        <time>2021-07-19T08:25:31Z</time>
      </trkpt>
      <trkpt lat="44.76121" lon="4.15127">
        <ele>1151.23</ele>
        <time>2021-07-19T08:25:32Z</time>
      </trkpt>
      <trkpt lat="44.76163" lon="4.15187">
        <ele>1148.91</ele>
        <time>2021-07-19T08:25:38Z</time>
      </trkpt>
      <trkpt lat="44.76168" lon="4.15198">
        <ele>1148.66</ele>
        <time>2021-07-19T08:25:39Z</time>
      </trkpt>
      <trkpt lat="44.76195" lon="4.15274">
        <ele>1145.62</ele>
        <time>2021-07-19T08:25:45Z</time>
      </trkpt>
      <trkpt lat="44.76208" lon="4.15314">
        <ele>1144.22</ele>
        <time>2021-07-19T08:25:48Z</time>
      </trkpt>
      <trkpt lat="44.7621" lon="4.15329">
        <ele>1143.85</ele>
        <time>2021-07-19T08:25:49Z</time>
      </trkpt>
      <trkpt lat="44.76212" lon="4.15343">
        <ele>1143.52</ele>
        <time>2021-07-19T08:25:50Z</time>
      </trkpt>
      <trkpt lat="44.76211" lon="4.15358">
        <ele>1143.16</ele>
        <time>2021-07-19T08:25:51Z</time>
      </trkpt>
      <trkpt lat="44.76209" lon="4.15373">
        <ele>1142.77</ele>
        <time>2021-07-19T08:25:52Z</time>
      </trkpt>
      <trkpt lat="44.76206" lon="4.15388">
        <ele>1142.38</ele>
        <time>2021-07-19T08:25:53Z</time>
      </trkpt>
      <trkpt lat="44.76201" lon="4.15401">
        <ele>1141.98</ele>
        <time>2021-07-19T08:25:54Z</time>
      </trkpt>
      <trkpt lat="44.76194" lon="4.15414">
        <ele>1141.61</ele>
        <time>2021-07-19T08:25:55Z</time>
      </trkpt>
      <trkpt lat="44.76186" lon="4.15427">
        <ele>1141.24</ele>
        <time>2021-07-19T08:25:56Z</time>
      </trkpt>
      <trkpt lat="44.76178" lon="4.15439">
        <ele>1140.85</ele>
        <time>2021-07-19T08:25:57Z</time>
      </trkpt>
      <trkpt lat="44.76127" lon="4.15501">
        <ele>1138.83</ele>
        <time>2021-07-19T08:26:03Z</time>
      </trkpt>
      <trkpt lat="44.76052" lon="4.15564">
        <ele>1135.82</ele>
        <time>2021-07-19T08:26:11Z</time>
      </trkpt>
      <trkpt lat="44.75972" lon="4.15626">
        <ele>1132.52</ele>
        <time>2021-07-19T08:26:20Z</time>
      </trkpt>
      <trkpt lat="44.75963" lon="4.1563">
        <ele>1132.2</ele>
        <time>2021-07-19T08:26:21Z</time>
      </trkpt>
      <trkpt lat="44.75954" lon="4.15632">
        <ele>1131.95</ele>
        <time>2021-07-19T08:26:22Z</time>
      </trkpt>
      <trkpt lat="44.75945" lon="4.15633">
        <ele>1131.74</ele>
        <time>2021-07-19T08:26:23Z</time>
      </trkpt>
      <trkpt lat="44.75937" lon="4.15634">
        <ele>1131.53</ele>
        <time>2021-07-19T08:26:24Z</time>
      </trkpt>
      <trkpt lat="44.75921" lon="4.15636">
        <ele>1131.05</ele>
        <time>2021-07-19T08:26:26Z</time>
      </trkpt>
      <trkpt lat="44.75915" lon="4.15641">
        <ele>1130.81</ele>
        <time>2021-07-19T08:26:27Z</time>
      </trkpt>
      <trkpt lat="44.7591" lon="4.15649">
        <ele>1130.6</ele>
        <time>2021-07-19T08:26:28Z</time>
      </trkpt>
      <trkpt lat="44.75908" lon="4.15658">
        <ele>1130.42</ele>
        <time>2021-07-19T08:26:29Z</time>
      </trkpt>
      <trkpt lat="44.75908" lon="4.15668">
        <ele>1130.23</ele>
        <time>2021-07-19T08:26:30Z</time>
      </trkpt>
      <trkpt lat="44.7591" lon="4.15677">
        <ele>1129.94</ele>
        <time>2021-07-19T08:26:31Z</time>
      </trkpt>
      <trkpt lat="44.75915" lon="4.15685">
        <ele>1129.83</ele>
        <time>2021-07-19T08:26:32Z</time>
      </trkpt>
      <trkpt lat="44.7592" lon="4.15692">
        <ele>1129.75</ele>
        <time>2021-07-19T08:26:33Z</time>
      </trkpt>
      <trkpt lat="44.75925" lon="4.15698">
        <ele>1129.63</ele>
        <time>2021-07-19T08:26:34Z</time>
      </trkpt>
      <trkpt lat="44.75941" lon="4.15719">
        <ele>1129.34</ele>
        <time>2021-07-19T08:26:37Z</time>
      </trkpt>
      <trkpt lat="44.75946" lon="4.15729">
        <ele>1129.25</ele>
        <time>2021-07-19T08:26:38Z</time>
      </trkpt>
      <trkpt lat="44.7595" lon="4.15739">
        <ele>1129.13</ele>
        <time>2021-07-19T08:26:39Z</time>
      </trkpt>
      <trkpt lat="44.76002" lon="4.1586">
        <ele>1126.02</ele>
        <time>2021-07-19T08:26:49Z</time>
      </trkpt>
      <trkpt lat="44.76008" lon="4.15872">
        <ele>1125.72</ele>
        <time>2021-07-19T08:26:50Z</time>
      </trkpt>
      <trkpt lat="44.76012" lon="4.15886">
        <ele>1125.36</ele>
        <time>2021-07-19T08:26:51Z</time>
      </trkpt>
      <trkpt lat="44.76015" lon="4.159">
        <ele>1124.89</ele>
        <time>2021-07-19T08:26:52Z</time>
      </trkpt>
      <trkpt lat="44.76016" lon="4.15915">
        <ele>1124.36</ele>
        <time>2021-07-19T08:26:53Z</time>
      </trkpt>
      <trkpt lat="44.76017" lon="4.15931">
        <ele>1123.83</ele>
        <time>2021-07-19T08:26:54Z</time>
      </trkpt>
      <trkpt lat="44.76017" lon="4.15946">
        <ele>1122.65</ele>
        <time>2021-07-19T08:26:55Z</time>
      </trkpt>
      <trkpt lat="44.76017" lon="4.15961">
        <ele>1122.65</ele>
        <time>2021-07-19T08:26:56Z</time>
      </trkpt>
      <trkpt lat="44.76017" lon="4.15975">
        <ele>1121.3</ele>
        <time>2021-07-19T08:26:57Z</time>
      </trkpt>
      <trkpt lat="44.76019" lon="4.15988">
        <ele>1120.67</ele>
        <time>2021-07-19T08:26:58Z</time>
      </trkpt>
      <trkpt lat="44.76024" lon="4.16">
        <ele>1120.08</ele>
        <time>2021-07-19T08:26:59Z</time>
      </trkpt>
      <trkpt lat="44.76031" lon="4.1601">
        <ele>1119.57</ele>
        <time>2021-07-19T08:27:00Z</time>
      </trkpt>
      <trkpt lat="44.76039" lon="4.1602">
        <ele>1119.1</ele>
        <time>2021-07-19T08:27:01Z</time>
      </trkpt>
      <trkpt lat="44.76047" lon="4.1603">
        <ele>1118.64</ele>
        <time>2021-07-19T08:27:02Z</time>
      </trkpt>
      <trkpt lat="44.76073" lon="4.16055">
        <ele>1117.57</ele>
        <time>2021-07-19T08:27:05Z</time>
      </trkpt>
      <trkpt lat="44.76082" lon="4.1606">
        <ele>1117.27</ele>
        <time>2021-07-19T08:27:06Z</time>
      </trkpt>
      <trkpt lat="44.76093" lon="4.16064">
        <ele>1116.98</ele>
        <time>2021-07-19T08:27:07Z</time>
      </trkpt>
      <trkpt lat="44.76103" lon="4.16066">
        <ele>1116.64</ele>
        <time>2021-07-19T08:27:08Z</time>
      </trkpt>
      <trkpt lat="44.76113" lon="4.16068">
        <ele>1116.21</ele>
        <time>2021-07-19T08:27:09Z</time>
      </trkpt>
      <trkpt lat="44.76122" lon="4.16072">
        <ele>1115.74</ele>
        <time>2021-07-19T08:27:10Z</time>
      </trkpt>
      <trkpt lat="44.7613" lon="4.16078">
        <ele>1115.21</ele>
        <time>2021-07-19T08:27:11Z</time>
      </trkpt>
      <trkpt lat="44.76136" lon="4.16088">
        <ele>1114.62</ele>
        <time>2021-07-19T08:27:12Z</time>
      </trkpt>
      <trkpt lat="44.7614" lon="4.161">
        <ele>1114.06</ele>
        <time>2021-07-19T08:27:13Z</time>
      </trkpt>
      <trkpt lat="44.76143" lon="4.16113">
        <ele>1113.57</ele>
        <time>2021-07-19T08:27:14Z</time>
      </trkpt>
      <trkpt lat="44.76146" lon="4.16125">
        <ele>1113.11</ele>
        <time>2021-07-19T08:27:15Z</time>
      </trkpt>
      <trkpt lat="44.7615" lon="4.16136">
        <ele>1112.58</ele>
        <time>2021-07-19T08:27:16Z</time>
      </trkpt>
      <trkpt lat="44.76155" lon="4.16147">
        <ele>1111.99</ele>
        <time>2021-07-19T08:27:17Z</time>
      </trkpt>
      <trkpt lat="44.76161" lon="4.16157">
        <ele>1111.44</ele>
        <time>2021-07-19T08:27:18Z</time>
      </trkpt>
      <trkpt lat="44.76168" lon="4.16166">
        <ele>1110.54</ele>
        <time>2021-07-19T08:27:19Z</time>
      </trkpt>
      <trkpt lat="44.76175" lon="4.16175">
        <ele>1110.54</ele>
        <time>2021-07-19T08:27:20Z</time>
      </trkpt>
      <trkpt lat="44.76225" lon="4.16245">
        <ele>1107.41</ele>
        <time>2021-07-19T08:27:29Z</time>
      </trkpt>
      <trkpt lat="44.76233" lon="4.16255">
        <ele>1106.87</ele>
        <time>2021-07-19T08:27:31Z</time>
      </trkpt>
      <trkpt lat="44.76237" lon="4.16258">
        <ele>1106.64</ele>
        <time>2021-07-19T08:27:32Z</time>
      </trkpt>
      <trkpt lat="44.76241" lon="4.1626">
        <ele>1106.42</ele>
        <time>2021-07-19T08:27:33Z</time>
      </trkpt>
      <trkpt lat="44.76246" lon="4.1626">
        <ele>1106.2</ele>
        <time>2021-07-19T08:27:34Z</time>
      </trkpt>
      <trkpt lat="44.76251" lon="4.1626">
        <ele>1106.06</ele>
        <time>2021-07-19T08:27:35Z</time>
      </trkpt>
      <trkpt lat="44.76255" lon="4.16259">
        <ele>1105.96</ele>
        <time>2021-07-19T08:27:36Z</time>
      </trkpt>
      <trkpt lat="44.76272" lon="4.16257">
        <ele>1105.58</ele>
        <time>2021-07-19T08:27:46Z</time>
      </trkpt>
      <trkpt lat="44.76269" lon="4.16255">
        <ele>1104.67</ele>
        <time>2021-07-19T08:28:18Z</time>
      </trkpt>
      <trkpt lat="44.7627" lon="4.16255">
        <ele>1105.15</ele>
        <time>2021-07-19T08:29:06Z</time>
      </trkpt>
      <trkpt lat="44.76274" lon="4.16254">
        <ele>1104.46</ele>
        <time>2021-07-19T08:29:34Z</time>
      </trkpt>
      <trkpt lat="44.76275" lon="4.16254">
        <ele>1104.39</ele>
        <time>2021-07-19T08:29:35Z</time>
      </trkpt>
      <trkpt lat="44.76306" lon="4.16244">
        <ele>1104.13</ele>
        <time>2021-07-19T08:29:46Z</time>
      </trkpt>
      <trkpt lat="44.76347" lon="4.16242">
        <ele>1103.44</ele>
        <time>2021-07-19T08:30:00Z</time>
      </trkpt>
      <trkpt lat="44.76387" lon="4.16231">
        <ele>1104.04</ele>
        <time>2021-07-19T08:30:11Z</time>
      </trkpt>
      <trkpt lat="44.76444" lon="4.16237">
        <ele>1104.61</ele>
        <time>2021-07-19T08:30:25Z</time>
      </trkpt>
      <trkpt lat="44.7651" lon="4.16262">
        <ele>1104.1</ele>
        <time>2021-07-19T08:30:40Z</time>
      </trkpt>
      <trkpt lat="44.76523" lon="4.16269">
        <ele>1103.98</ele>
        <time>2021-07-19T08:30:43Z</time>
      </trkpt>
      <trkpt lat="44.76582" lon="4.16303">
        <ele>1104.67</ele>
        <time>2021-07-19T08:30:57Z</time>
      </trkpt>
      <trkpt lat="44.76656" lon="4.16366">
        <ele>1105.81</ele>
        <time>2021-07-19T08:31:17Z</time>
      </trkpt>
      <trkpt lat="44.76659" lon="4.16371">
        <ele>1105.8</ele>
        <time>2021-07-19T08:31:18Z</time>
      </trkpt>
      <trkpt lat="44.76677" lon="4.16404">
        <ele>1106.08</ele>
        <time>2021-07-19T08:31:25Z</time>
      </trkpt>
      <trkpt lat="44.76697" lon="4.16454">
        <ele>1106.34</ele>
        <time>2021-07-19T08:31:35Z</time>
      </trkpt>
      <trkpt lat="44.76704" lon="4.16464">
        <ele>1106.45</ele>
        <time>2021-07-19T08:31:37Z</time>
      </trkpt>
      <trkpt lat="44.76763" lon="4.16517">
        <ele>1106.98</ele>
        <time>2021-07-19T08:31:51Z</time>
      </trkpt>
      <trkpt lat="44.76815" lon="4.16577">
        <ele>1107.15</ele>
        <time>2021-07-19T08:32:05Z</time>
      </trkpt>
      <trkpt lat="44.76864" lon="4.16679">
        <ele>1107.61</ele>
        <time>2021-07-19T08:32:23Z</time>
      </trkpt>
      <trkpt lat="44.76874" lon="4.16707">
        <ele>1108.33</ele>
        <time>2021-07-19T08:32:28Z</time>
      </trkpt>
      <trkpt lat="44.76878" lon="4.16731">
        <ele>1108.61</ele>
        <time>2021-07-19T08:32:32Z</time>
      </trkpt>
      <trkpt lat="44.76878" lon="4.16754">
        <ele>1109.06</ele>
        <time>2021-07-19T08:32:36Z</time>
      </trkpt>
      <trkpt lat="44.76878" lon="4.1676">
        <ele>1109.16</ele>
        <time>2021-07-19T08:32:37Z</time>
      </trkpt>
      <trkpt lat="44.76878" lon="4.16773">
        <ele>1109.31</ele>
        <time>2021-07-19T08:32:39Z</time>
      </trkpt>
      <trkpt lat="44.76879" lon="4.16779">
        <ele>1109.37</ele>
        <time>2021-07-19T08:32:40Z</time>
      </trkpt>
      <trkpt lat="44.76884" lon="4.16799">
        <ele>1109.52</ele>
        <time>2021-07-19T08:32:43Z</time>
      </trkpt>
      <trkpt lat="44.76886" lon="4.16806">
        <ele>1109.56</ele>
        <time>2021-07-19T08:32:44Z</time>
      </trkpt>
      <trkpt lat="44.76901" lon="4.1683">
        <ele>1109.6</ele>
        <time>2021-07-19T08:32:48Z</time>
      </trkpt>
      <trkpt lat="44.76905" lon="4.16835">
        <ele>1109.58</ele>
        <time>2021-07-19T08:32:49Z</time>
      </trkpt>
      <trkpt lat="44.76911" lon="4.16838">
        <ele>1109.57</ele>
        <time>2021-07-19T08:32:50Z</time>
      </trkpt>
      <trkpt lat="44.76916" lon="4.16841">
        <ele>1109.56</ele>
        <time>2021-07-19T08:32:51Z</time>
      </trkpt>
      <trkpt lat="44.76921" lon="4.16844">
        <ele>1109.58</ele>
        <time>2021-07-19T08:32:52Z</time>
      </trkpt>
      <trkpt lat="44.76971" lon="4.16876">
        <ele>1111.28</ele>
        <time>2021-07-19T08:33:07Z</time>
      </trkpt>
      <trkpt lat="44.76984" lon="4.16867">
        <ele>1112.97</ele>
        <time>2021-07-19T08:33:19Z</time>
      </trkpt>
      <trkpt lat="44.76983" lon="4.16863">
        <ele>1113.24</ele>
        <time>2021-07-19T08:33:43Z</time>
      </trkpt>
      <trkpt lat="44.76983" lon="4.16861">
        <ele>1113.24</ele>
        <time>2021-07-19T08:33:44Z</time>
      </trkpt>
      <trkpt lat="44.76983" lon="4.16859">
        <ele>1113.23</ele>
        <time>2021-07-19T08:33:45Z</time>
      </trkpt>
      <trkpt lat="44.76999" lon="4.16819">
        <ele>1113.56</ele>
        <time>2021-07-19T08:33:59Z</time>
      </trkpt>
      <trkpt lat="44.77003" lon="4.1676">
        <ele>1114.75</ele>
        <time>2021-07-19T08:34:14Z</time>
      </trkpt>
      <trkpt lat="44.77007" lon="4.1674">
        <ele>1115.9</ele>
        <time>2021-07-19T08:34:21Z</time>
      </trkpt>
      <trkpt lat="44.77009" lon="4.1674">
        <ele>1116.01</ele>
        <time>2021-07-19T08:34:22Z</time>
      </trkpt>
      <trkpt lat="44.77011" lon="4.16742">
        <ele>1116.11</ele>
        <time>2021-07-19T08:34:23Z</time>
      </trkpt>
      <trkpt lat="44.77052" lon="4.16776">
        <ele>1118.98</ele>
        <time>2021-07-19T08:34:42Z</time>
      </trkpt>
      <trkpt lat="44.77097" lon="4.16776">
        <ele>1120.84</ele>
        <time>2021-07-19T08:34:59Z</time>
      </trkpt>
      <trkpt lat="44.77154" lon="4.16778">
        <ele>1123.26</ele>
        <time>2021-07-19T08:35:19Z</time>
      </trkpt>
      <trkpt lat="44.77185" lon="4.16799">
        <ele>1123.93</ele>
        <time>2021-07-19T08:35:28Z</time>
      </trkpt>
      <trkpt lat="44.77189" lon="4.16803">
        <ele>1123.95</ele>
        <time>2021-07-19T08:35:29Z</time>
      </trkpt>
      <trkpt lat="44.77234" lon="4.16877">
        <ele>1122.54</ele>
        <time>2021-07-19T08:35:45Z</time>
      </trkpt>
      <trkpt lat="44.77259" lon="4.16941">
        <ele>1124.79</ele>
        <time>2021-07-19T08:36:01Z</time>
      </trkpt>
      <trkpt lat="44.77284" lon="4.16983">
        <ele>1126.37</ele>
        <time>2021-07-19T08:36:14Z</time>
      </trkpt>
      <trkpt lat="44.77292" lon="4.17048">
        <ele>1129.05</ele>
        <time>2021-07-19T08:36:29Z</time>
      </trkpt>
      <trkpt lat="44.77287" lon="4.1713">
        <ele>1131.4</ele>
        <time>2021-07-19T08:36:48Z</time>
      </trkpt>
      <trkpt lat="44.77316" lon="4.17174">
        <ele>1132.67</ele>
        <time>2021-07-19T08:37:01Z</time>
      </trkpt>
      <trkpt lat="44.77388" lon="4.17197">
        <ele>1132.8</ele>
        <time>2021-07-19T08:37:16Z</time>
      </trkpt>
      <trkpt lat="44.77479" lon="4.17221">
        <ele>1131.06</ele>
        <time>2021-07-19T08:37:30Z</time>
      </trkpt>
      <trkpt lat="44.77485" lon="4.17225">
        <ele>1130.97</ele>
        <time>2021-07-19T08:37:31Z</time>
      </trkpt>
      <trkpt lat="44.77514" lon="4.17248">
        <ele>1130.77</ele>
        <time>2021-07-19T08:37:36Z</time>
      </trkpt>
      <trkpt lat="44.7752" lon="4.1725">
        <ele>1130.78</ele>
        <time>2021-07-19T08:37:37Z</time>
      </trkpt>
      <trkpt lat="44.77526" lon="4.17251">
        <ele>1130.8</ele>
        <time>2021-07-19T08:37:38Z</time>
      </trkpt>
      <trkpt lat="44.77532" lon="4.17252">
        <ele>1130.84</ele>
        <time>2021-07-19T08:37:39Z</time>
      </trkpt>
      <trkpt lat="44.77537" lon="4.17252">
        <ele>1130.87</ele>
        <time>2021-07-19T08:37:40Z</time>
      </trkpt>
      <trkpt lat="44.77542" lon="4.17251">
        <ele>1130.94</ele>
        <time>2021-07-19T08:37:41Z</time>
      </trkpt>
      <trkpt lat="44.77547" lon="4.1725">
        <ele>1131.03</ele>
        <time>2021-07-19T08:37:42Z</time>
      </trkpt>
      <trkpt lat="44.77557" lon="4.17249">
        <ele>1131.24</ele>
        <time>2021-07-19T08:37:44Z</time>
      </trkpt>
      <trkpt lat="44.77567" lon="4.17251">
        <ele>1131.46</ele>
        <time>2021-07-19T08:37:46Z</time>
      </trkpt>
      <trkpt lat="44.77571" lon="4.17252">
        <ele>1131.52</ele>
        <time>2021-07-19T08:37:47Z</time>
      </trkpt>
      <trkpt lat="44.77576" lon="4.17255">
        <ele>1131.57</ele>
        <time>2021-07-19T08:37:48Z</time>
      </trkpt>
      <trkpt lat="44.77581" lon="4.17258">
        <ele>1131.63</ele>
        <time>2021-07-19T08:37:49Z</time>
      </trkpt>
      <trkpt lat="44.77585" lon="4.17263">
        <ele>1131.68</ele>
        <time>2021-07-19T08:37:50Z</time>
      </trkpt>
      <trkpt lat="44.77589" lon="4.17268">
        <ele>1131.71</ele>
        <time>2021-07-19T08:37:51Z</time>
      </trkpt>
      <trkpt lat="44.77593" lon="4.17275">
        <ele>1131.72</ele>
        <time>2021-07-19T08:37:52Z</time>
      </trkpt>
      <trkpt lat="44.77627" lon="4.1738">
        <ele>1129.76</ele>
        <time>2021-07-19T08:38:02Z</time>
      </trkpt>
      <trkpt lat="44.77634" lon="4.17457">
        <ele>1126.69</ele>
        <time>2021-07-19T08:38:07Z</time>
      </trkpt>
      <trkpt lat="44.77636" lon="4.17472">
        <ele>1125.95</ele>
        <time>2021-07-19T08:38:08Z</time>
      </trkpt>
      <trkpt lat="44.77654" lon="4.1754">
        <ele>1123.43</ele>
        <time>2021-07-19T08:38:13Z</time>
      </trkpt>
      <trkpt lat="44.77659" lon="4.1755">
        <ele>1123.16</ele>
        <time>2021-07-19T08:38:14Z</time>
      </trkpt>
      <trkpt lat="44.77666" lon="4.17559">
        <ele>1122.95</ele>
        <time>2021-07-19T08:38:15Z</time>
      </trkpt>
      <trkpt lat="44.77674" lon="4.17565">
        <ele>1122.78</ele>
        <time>2021-07-19T08:38:16Z</time>
      </trkpt>
      <trkpt lat="44.77682" lon="4.17569">
        <ele>1122.6</ele>
        <time>2021-07-19T08:38:17Z</time>
      </trkpt>
      <trkpt lat="44.77691" lon="4.17571">
        <ele>1122.16</ele>
        <time>2021-07-19T08:38:18Z</time>
      </trkpt>
      <trkpt lat="44.77699" lon="4.17572">
        <ele>1121.95</ele>
        <time>2021-07-19T08:38:19Z</time>
      </trkpt>
      <trkpt lat="44.77806" lon="4.17578">
        <ele>1121</ele>
        <time>2021-07-19T08:38:34Z</time>
      </trkpt>
      <trkpt lat="44.77894" lon="4.1759">
        <ele>1121.86</ele>
        <time>2021-07-19T08:38:51Z</time>
      </trkpt>
      <trkpt lat="44.77923" lon="4.17601">
        <ele>1122.09</ele>
        <time>2021-07-19T08:38:57Z</time>
      </trkpt>
      <trkpt lat="44.77927" lon="4.17604">
        <ele>1122.07</ele>
        <time>2021-07-19T08:38:58Z</time>
      </trkpt>
      <trkpt lat="44.77931" lon="4.17609">
        <ele>1122.07</ele>
        <time>2021-07-19T08:38:59Z</time>
      </trkpt>
      <trkpt lat="44.77934" lon="4.17614">
        <ele>1122.07</ele>
        <time>2021-07-19T08:39:00Z</time>
      </trkpt>
      <trkpt lat="44.77937" lon="4.17619">
        <ele>1122.09</ele>
        <time>2021-07-19T08:39:01Z</time>
      </trkpt>
      <trkpt lat="44.7794" lon="4.17625">
        <ele>1122.12</ele>
        <time>2021-07-19T08:39:02Z</time>
      </trkpt>
      <trkpt lat="44.77942" lon="4.17631">
        <ele>1122.15</ele>
        <time>2021-07-19T08:39:03Z</time>
      </trkpt>
      <trkpt lat="44.77943" lon="4.17637">
        <ele>1122.2</ele>
        <time>2021-07-19T08:39:04Z</time>
      </trkpt>
      <trkpt lat="44.77945" lon="4.17643">
        <ele>1122.25</ele>
        <time>2021-07-19T08:39:05Z</time>
      </trkpt>
      <trkpt lat="44.77945" lon="4.17649">
        <ele>1122.29</ele>
        <time>2021-07-19T08:39:06Z</time>
      </trkpt>
      <trkpt lat="44.77945" lon="4.17655">
        <ele>1122.42</ele>
        <time>2021-07-19T08:39:07Z</time>
      </trkpt>
      <trkpt lat="44.77945" lon="4.17662">
        <ele>1122.53</ele>
        <time>2021-07-19T08:39:08Z</time>
      </trkpt>
      <trkpt lat="44.77944" lon="4.17668">
        <ele>1122.65</ele>
        <time>2021-07-19T08:39:09Z</time>
      </trkpt>
      <trkpt lat="44.77942" lon="4.17675">
        <ele>1122.75</ele>
        <time>2021-07-19T08:39:10Z</time>
      </trkpt>
      <trkpt lat="44.7794" lon="4.1768">
        <ele>1122.82</ele>
        <time>2021-07-19T08:39:11Z</time>
      </trkpt>
      <trkpt lat="44.77938" lon="4.17686">
        <ele>1122.88</ele>
        <time>2021-07-19T08:39:12Z</time>
      </trkpt>
      <trkpt lat="44.77935" lon="4.17692">
        <ele>1122.94</ele>
        <time>2021-07-19T08:39:13Z</time>
      </trkpt>
      <trkpt lat="44.77876" lon="4.17782">
        <ele>1123.2</ele>
        <time>2021-07-19T08:39:28Z</time>
      </trkpt>
      <trkpt lat="44.77858" lon="4.17874">
        <ele>1122.79</ele>
        <time>2021-07-19T08:39:39Z</time>
      </trkpt>
      <trkpt lat="44.77867" lon="4.18044">
        <ele>1123.93</ele>
        <time>2021-07-19T08:40:00Z</time>
      </trkpt>
      <trkpt lat="44.77869" lon="4.18051">
        <ele>1123.93</ele>
        <time>2021-07-19T08:40:01Z</time>
      </trkpt>
      <trkpt lat="44.77871" lon="4.18059">
        <ele>1123.93</ele>
        <time>2021-07-19T08:40:02Z</time>
      </trkpt>
      <trkpt lat="44.77931" lon="4.18159">
        <ele>1124.61</ele>
        <time>2021-07-19T08:40:19Z</time>
      </trkpt>
      <trkpt lat="44.77991" lon="4.18249">
        <ele>1125.63</ele>
        <time>2021-07-19T08:40:37Z</time>
      </trkpt>
      <trkpt lat="44.78056" lon="4.18349">
        <ele>1126.73</ele>
        <time>2021-07-19T08:40:59Z</time>
      </trkpt>
      <trkpt lat="44.78117" lon="4.18441">
        <ele>1127.77</ele>
        <time>2021-07-19T08:41:18Z</time>
      </trkpt>
      <trkpt lat="44.78129" lon="4.18459">
        <ele>1127.76</ele>
        <time>2021-07-19T08:41:22Z</time>
      </trkpt>
      <trkpt lat="44.78173" lon="4.18527">
        <ele>1128.22</ele>
        <time>2021-07-19T08:41:37Z</time>
      </trkpt>
      <trkpt lat="44.78188" lon="4.18546">
        <ele>1129.03</ele>
        <time>2021-07-19T08:41:42Z</time>
      </trkpt>
      <trkpt lat="44.78191" lon="4.1855">
        <ele>1129.09</ele>
        <time>2021-07-19T08:41:43Z</time>
      </trkpt>
      <trkpt lat="44.78212" lon="4.18571">
        <ele>1129.62</ele>
        <time>2021-07-19T08:41:49Z</time>
      </trkpt>
      <trkpt lat="44.78216" lon="4.18574">
        <ele>1129.73</ele>
        <time>2021-07-19T08:41:50Z</time>
      </trkpt>
      <trkpt lat="44.78265" lon="4.18594">
        <ele>1130.9</ele>
        <time>2021-07-19T08:42:03Z</time>
      </trkpt>
      <trkpt lat="44.78328" lon="4.18607">
        <ele>1131.34</ele>
        <time>2021-07-19T08:42:18Z</time>
      </trkpt>
      <trkpt lat="44.78384" lon="4.18627">
        <ele>1133.15</ele>
        <time>2021-07-19T08:42:31Z</time>
      </trkpt>
      <trkpt lat="44.78449" lon="4.18614">
        <ele>1133.07</ele>
        <time>2021-07-19T08:42:46Z</time>
      </trkpt>
      <trkpt lat="44.78453" lon="4.18611">
        <ele>1133.08</ele>
        <time>2021-07-19T08:42:47Z</time>
      </trkpt>
      <trkpt lat="44.78489" lon="4.1858">
        <ele>1133.66</ele>
        <time>2021-07-19T08:42:57Z</time>
      </trkpt>
      <trkpt lat="44.78492" lon="4.18577">
        <ele>1133.71</ele>
        <time>2021-07-19T08:42:58Z</time>
      </trkpt>
      <trkpt lat="44.78522" lon="4.18548">
        <ele>1134.54</ele>
        <time>2021-07-19T08:43:07Z</time>
      </trkpt>
      <trkpt lat="44.78592" lon="4.18498">
        <ele>1135.57</ele>
        <time>2021-07-19T08:43:23Z</time>
      </trkpt>
      <trkpt lat="44.78683" lon="4.18454">
        <ele>1136.59</ele>
        <time>2021-07-19T08:43:42Z</time>
      </trkpt>
      <trkpt lat="44.78688" lon="4.18454">
        <ele>1136.65</ele>
        <time>2021-07-19T08:43:43Z</time>
      </trkpt>
      <trkpt lat="44.78756" lon="4.18489">
        <ele>1138.25</ele>
        <time>2021-07-19T08:43:58Z</time>
      </trkpt>
      <trkpt lat="44.78837" lon="4.1855">
        <ele>1136.74</ele>
        <time>2021-07-19T08:44:13Z</time>
      </trkpt>
      <trkpt lat="44.78919" lon="4.18571">
        <ele>1136.84</ele>
        <time>2021-07-19T08:44:27Z</time>
      </trkpt>
      <trkpt lat="44.78925" lon="4.1857">
        <ele>1136.85</ele>
        <time>2021-07-19T08:44:28Z</time>
      </trkpt>
      <trkpt lat="44.78956" lon="4.18555">
        <ele>1136.57</ele>
        <time>2021-07-19T08:44:33Z</time>
      </trkpt>
      <trkpt lat="44.7898" lon="4.1853">
        <ele>1136.22</ele>
        <time>2021-07-19T08:44:38Z</time>
      </trkpt>
      <trkpt lat="44.79026" lon="4.18443">
        <ele>1137.76</ele>
        <time>2021-07-19T08:44:53Z</time>
      </trkpt>
      <trkpt lat="44.79086" lon="4.18367">
        <ele>1140.45</ele>
        <time>2021-07-19T08:45:09Z</time>
      </trkpt>
      <trkpt lat="44.79165" lon="4.18323">
        <ele>1141.2</ele>
        <time>2021-07-19T08:45:27Z</time>
      </trkpt>
      <trkpt lat="44.79191" lon="4.18325">
        <ele>1141.46</ele>
        <time>2021-07-19T08:45:32Z</time>
      </trkpt>
      <trkpt lat="44.79195" lon="4.18327">
        <ele>1141.51</ele>
        <time>2021-07-19T08:45:33Z</time>
      </trkpt>
      <trkpt lat="44.79284" lon="4.18384">
        <ele>1141.91</ele>
        <time>2021-07-19T08:45:54Z</time>
      </trkpt>
      <trkpt lat="44.79375" lon="4.18457">
        <ele>1142.48</ele>
        <time>2021-07-19T08:46:17Z</time>
      </trkpt>
      <trkpt lat="44.79403" lon="4.18477">
        <ele>1142.47</ele>
        <time>2021-07-19T08:46:24Z</time>
      </trkpt>
      <trkpt lat="44.79407" lon="4.18479">
        <ele>1142.5</ele>
        <time>2021-07-19T08:46:25Z</time>
      </trkpt>
      <trkpt lat="44.79479" lon="4.18485">
        <ele>1143.43</ele>
        <time>2021-07-19T08:46:40Z</time>
      </trkpt>
      <trkpt lat="44.79574" lon="4.1848">
        <ele>1144.87</ele>
        <time>2021-07-19T08:47:01Z</time>
      </trkpt>
      <trkpt lat="44.79659" lon="4.18489">
        <ele>1147.13</ele>
        <time>2021-07-19T08:47:21Z</time>
      </trkpt>
      <trkpt lat="44.79736" lon="4.18503">
        <ele>1148.57</ele>
        <time>2021-07-19T08:47:41Z</time>
      </trkpt>
      <trkpt lat="44.798" lon="4.18478">
        <ele>1148.64</ele>
        <time>2021-07-19T08:48:00Z</time>
      </trkpt>
      <trkpt lat="44.79876" lon="4.18449">
        <ele>1150.52</ele>
        <time>2021-07-19T08:48:23Z</time>
      </trkpt>
      <trkpt lat="44.79955" lon="4.18439">
        <ele>1151.16</ele>
        <time>2021-07-19T08:48:46Z</time>
      </trkpt>
      <trkpt lat="44.80033" lon="4.18428">
        <ele>1152.2</ele>
        <time>2021-07-19T08:49:10Z</time>
      </trkpt>
      <trkpt lat="44.80098" lon="4.1842">
        <ele>1154.18</ele>
        <time>2021-07-19T08:49:31Z</time>
      </trkpt>
      <trkpt lat="44.80172" lon="4.18412">
        <ele>1155.56</ele>
        <time>2021-07-19T08:49:53Z</time>
      </trkpt>
      <trkpt lat="44.80239" lon="4.18433">
        <ele>1157.01</ele>
        <time>2021-07-19T08:50:13Z</time>
      </trkpt>
      <trkpt lat="44.80279" lon="4.18488">
        <ele>1158.74</ele>
        <time>2021-07-19T08:50:30Z</time>
      </trkpt>
      <trkpt lat="44.80308" lon="4.18556">
        <ele>1159.95</ele>
        <time>2021-07-19T08:50:48Z</time>
      </trkpt>
      <trkpt lat="44.80338" lon="4.18626">
        <ele>1162.04</ele>
        <time>2021-07-19T08:51:07Z</time>
      </trkpt>
      <trkpt lat="44.80391" lon="4.1866">
        <ele>1162.64</ele>
        <time>2021-07-19T08:51:24Z</time>
      </trkpt>
      <trkpt lat="44.80471" lon="4.18707">
        <ele>1163.38</ele>
        <time>2021-07-19T08:51:48Z</time>
      </trkpt>
      <trkpt lat="44.80528" lon="4.1874">
        <ele>1165.34</ele>
        <time>2021-07-19T08:52:09Z</time>
      </trkpt>
      <trkpt lat="44.80556" lon="4.18756">
        <ele>1168.36</ele>
        <time>2021-07-19T08:52:22Z</time>
      </trkpt>
      <trkpt lat="44.80593" lon="4.18778">
        <ele>1171.08</ele>
        <time>2021-07-19T08:52:41Z</time>
      </trkpt>
      <trkpt lat="44.80629" lon="4.18799">
        <ele>1172.89</ele>
        <time>2021-07-19T08:52:59Z</time>
      </trkpt>
      <trkpt lat="44.80665" lon="4.1882">
        <ele>1174.51</ele>
        <time>2021-07-19T08:53:17Z</time>
      </trkpt>
      <trkpt lat="44.80707" lon="4.18844">
        <ele>1177.13</ele>
        <time>2021-07-19T08:53:37Z</time>
      </trkpt>
      <trkpt lat="44.80752" lon="4.18863">
        <ele>1179.61</ele>
        <time>2021-07-19T08:53:58Z</time>
      </trkpt>
      <trkpt lat="44.80786" lon="4.18851">
        <ele>1181.85</ele>
        <time>2021-07-19T08:54:15Z</time>
      </trkpt>
      <trkpt lat="44.80807" lon="4.18843">
        <ele>1183.7</ele>
        <time>2021-07-19T08:54:27Z</time>
      </trkpt>
      <trkpt lat="44.80826" lon="4.18832">
        <ele>1186.43</ele>
        <time>2021-07-19T08:54:39Z</time>
      </trkpt>
      <trkpt lat="44.80851" lon="4.18809">
        <ele>1189.45</ele>
        <time>2021-07-19T08:54:53Z</time>
      </trkpt>
      <trkpt lat="44.80872" lon="4.18777">
        <ele>1190.97</ele>
        <time>2021-07-19T08:55:07Z</time>
      </trkpt>
      <trkpt lat="44.80902" lon="4.18771">
        <ele>1193.51</ele>
        <time>2021-07-19T08:55:22Z</time>
      </trkpt>
      <trkpt lat="44.80902" lon="4.1881">
        <ele>1195.3</ele>
        <time>2021-07-19T08:55:35Z</time>
      </trkpt>
      <trkpt lat="44.80885" lon="4.18872">
        <ele>1198.56</ele>
        <time>2021-07-19T08:55:57Z</time>
      </trkpt>
      <trkpt lat="44.80872" lon="4.18936">
        <ele>1201.46</ele>
        <time>2021-07-19T08:56:19Z</time>
      </trkpt>
      <trkpt lat="44.80892" lon="4.18957">
        <ele>1204.41</ele>
        <time>2021-07-19T08:56:33Z</time>
      </trkpt>
      <trkpt lat="44.80923" lon="4.18966">
        <ele>1206.85</ele>
        <time>2021-07-19T08:56:48Z</time>
      </trkpt>
      <trkpt lat="44.80946" lon="4.18976">
        <ele>1209.62</ele>
        <time>2021-07-19T08:57:01Z</time>
      </trkpt>
      <trkpt lat="44.80969" lon="4.18984">
        <ele>1210.93</ele>
        <time>2021-07-19T08:57:14Z</time>
      </trkpt>
      <trkpt lat="44.80974" lon="4.18985">
        <ele>1211.73</ele>
        <time>2021-07-19T08:57:29Z</time>
      </trkpt>
      <trkpt lat="44.80975" lon="4.18985">
        <ele>1212.54</ele>
        <time>2021-07-19T08:57:50Z</time>
      </trkpt>
      <trkpt lat="44.80977" lon="4.18985">
        <ele>1211.2</ele>
        <time>2021-07-19T08:58:26Z</time>
      </trkpt>
      <trkpt lat="44.80974" lon="4.18987">
        <ele>1211.27</ele>
        <time>2021-07-19T08:58:58Z</time>
      </trkpt>
      <trkpt lat="44.80973" lon="4.18983">
        <ele>1211.26</ele>
        <time>2021-07-19T08:59:30Z</time>
      </trkpt>
      <trkpt lat="44.80972" lon="4.18989">
        <ele>1211.03</ele>
        <time>2021-07-19T09:00:07Z</time>
      </trkpt>
      <trkpt lat="44.80972" lon="4.18993">
        <ele>1210.46</ele>
        <time>2021-07-19T09:00:43Z</time>
      </trkpt>
      <trkpt lat="44.80973" lon="4.18991">
        <ele>1210.72</ele>
        <time>2021-07-19T09:01:16Z</time>
      </trkpt>
      <trkpt lat="44.80971" lon="4.18992">
        <ele>1211.21</ele>
        <time>2021-07-19T09:02:05Z</time>
      </trkpt>
      <trkpt lat="44.80971" lon="4.18986">
        <ele>1210.93</ele>
        <time>2021-07-19T09:02:38Z</time>
      </trkpt>
      <trkpt lat="44.8097" lon="4.18988">
        <ele>1210.93</ele>
        <time>2021-07-19T09:03:12Z</time>
      </trkpt>
      <trkpt lat="44.80973" lon="4.18986">
        <ele>1210.44</ele>
        <time>2021-07-19T09:03:41Z</time>
      </trkpt>
      <trkpt lat="44.80975" lon="4.18984">
        <ele>1210.6</ele>
        <time>2021-07-19T09:04:14Z</time>
      </trkpt>
      <trkpt lat="44.80977" lon="4.18984">
        <ele>1210.48</ele>
        <time>2021-07-19T09:04:46Z</time>
      </trkpt>
      <trkpt lat="44.80978" lon="4.18985">
        <ele>1209.82</ele>
        <time>2021-07-19T09:05:20Z</time>
      </trkpt>
      <trkpt lat="44.80978" lon="4.18987">
        <ele>1210.1</ele>
        <time>2021-07-19T09:05:54Z</time>
      </trkpt>
      <trkpt lat="44.80979" lon="4.18987">
        <ele>1210.11</ele>
        <time>2021-07-19T09:06:24Z</time>
      </trkpt>
      <trkpt lat="44.80978" lon="4.18984">
        <ele>1210.34</ele>
        <time>2021-07-19T09:07:05Z</time>
      </trkpt>
      <trkpt lat="44.80976" lon="4.18984">
        <ele>1210.09</ele>
        <time>2021-07-19T09:07:49Z</time>
      </trkpt>
      <trkpt lat="44.80973" lon="4.18991">
        <ele>1209.78</ele>
        <time>2021-07-19T09:08:26Z</time>
      </trkpt>
      <trkpt lat="44.80971" lon="4.18998">
        <ele>1209.55</ele>
        <time>2021-07-19T09:09:03Z</time>
      </trkpt>
      <trkpt lat="44.80971" lon="4.18996">
        <ele>1209.43</ele>
        <time>2021-07-19T09:09:39Z</time>
      </trkpt>
      <trkpt lat="44.80974" lon="4.18993">
        <ele>1209.03</ele>
        <time>2021-07-19T09:10:10Z</time>
      </trkpt>
      <trkpt lat="44.80974" lon="4.18991">
        <ele>1209.16</ele>
        <time>2021-07-19T09:10:37Z</time>
      </trkpt>
      <trkpt lat="44.80974" lon="4.1899">
        <ele>1209.37</ele>
        <time>2021-07-19T09:11:12Z</time>
      </trkpt>
      <trkpt lat="44.80973" lon="4.1899">
        <ele>1209.13</ele>
        <time>2021-07-19T09:11:46Z</time>
      </trkpt>
      <trkpt lat="44.80975" lon="4.18989">
        <ele>1209.16</ele>
        <time>2021-07-19T09:12:19Z</time>
      </trkpt>
      <trkpt lat="44.80976" lon="4.1899">
        <ele>1209.28</ele>
        <time>2021-07-19T09:12:51Z</time>
      </trkpt>
      <trkpt lat="44.80976" lon="4.18993">
        <ele>1209.08</ele>
        <time>2021-07-19T09:13:22Z</time>
      </trkpt>
      <trkpt lat="44.80993" lon="4.18997">
        <ele>1209.4</ele>
        <time>2021-07-19T09:13:37Z</time>
      </trkpt>
      <trkpt lat="44.80998" lon="4.18992">
        <ele>1209.39</ele>
        <time>2021-07-19T09:13:40Z</time>
      </trkpt>
      <trkpt lat="44.80999" lon="4.1899">
        <ele>1209.37</ele>
        <time>2021-07-19T09:13:41Z</time>
      </trkpt>
      <trkpt lat="44.81015" lon="4.18961">
        <ele>1209.29</ele>
        <time>2021-07-19T09:13:52Z</time>
      </trkpt>
      <trkpt lat="44.81037" lon="4.18929">
        <ele>1209.87</ele>
        <time>2021-07-19T09:14:05Z</time>
      </trkpt>
      <trkpt lat="44.81061" lon="4.18907">
        <ele>1211.44</ele>
        <time>2021-07-19T09:14:18Z</time>
      </trkpt>
      <trkpt lat="44.81062" lon="4.18905">
        <ele>1211.55</ele>
        <time>2021-07-19T09:14:19Z</time>
      </trkpt>
      <trkpt lat="44.81087" lon="4.18886">
        <ele>1214.14</ele>
        <time>2021-07-19T09:14:32Z</time>
      </trkpt>
      <trkpt lat="44.81089" lon="4.18884">
        <ele>1214.38</ele>
        <time>2021-07-19T09:14:33Z</time>
      </trkpt>
      <trkpt lat="44.81091" lon="4.18883">
        <ele>1214.6</ele>
        <time>2021-07-19T09:14:34Z</time>
      </trkpt>
      <trkpt lat="44.81093" lon="4.18882">
        <ele>1214.81</ele>
        <time>2021-07-19T09:14:35Z</time>
      </trkpt>
      <trkpt lat="44.81098" lon="4.18878">
        <ele>1215.45</ele>
        <time>2021-07-19T09:14:38Z</time>
      </trkpt>
      <trkpt lat="44.81099" lon="4.18877">
        <ele>1215.63</ele>
        <time>2021-07-19T09:14:39Z</time>
      </trkpt>
      <trkpt lat="44.81117" lon="4.18845">
        <ele>1218.45</ele>
        <time>2021-07-19T09:14:54Z</time>
      </trkpt>
      <trkpt lat="44.81124" lon="4.18809">
        <ele>1221.62</ele>
        <time>2021-07-19T09:15:08Z</time>
      </trkpt>
      <trkpt lat="44.81137" lon="4.18773">
        <ele>1224.76</ele>
        <time>2021-07-19T09:15:24Z</time>
      </trkpt>
      <trkpt lat="44.81155" lon="4.18748">
        <ele>1227.13</ele>
        <time>2021-07-19T09:15:38Z</time>
      </trkpt>
      <trkpt lat="44.8118" lon="4.18752">
        <ele>1230.22</ele>
        <time>2021-07-19T09:15:52Z</time>
      </trkpt>
      <trkpt lat="44.81206" lon="4.18765">
        <ele>1232.9</ele>
        <time>2021-07-19T09:16:09Z</time>
      </trkpt>
      <trkpt lat="44.8123" lon="4.18774">
        <ele>1235.02</ele>
        <time>2021-07-19T09:16:24Z</time>
      </trkpt>
      <trkpt lat="44.81252" lon="4.18782">
        <ele>1236.55</ele>
        <time>2021-07-19T09:16:39Z</time>
      </trkpt>
      <trkpt lat="44.81252" lon="4.18782">
        <ele>1236.74</ele>
        <time>2021-07-19T09:17:05Z</time>
      </trkpt>
      <trkpt lat="44.81266" lon="4.18785">
        <ele>1237.6</ele>
        <time>2021-07-19T09:17:26Z</time>
      </trkpt>
      <trkpt lat="44.81298" lon="4.18788">
        <ele>1237.92</ele>
        <time>2021-07-19T09:17:41Z</time>
      </trkpt>
      <trkpt lat="44.81333" lon="4.18786">
        <ele>1238.36</ele>
        <time>2021-07-19T09:17:56Z</time>
      </trkpt>
      <trkpt lat="44.81368" lon="4.18782">
        <ele>1240.39</ele>
        <time>2021-07-19T09:18:13Z</time>
      </trkpt>
      <trkpt lat="44.81392" lon="4.18779">
        <ele>1242.5</ele>
        <time>2021-07-19T09:18:26Z</time>
      </trkpt>
      <trkpt lat="44.8142" lon="4.18779">
        <ele>1245.39</ele>
        <time>2021-07-19T09:18:41Z</time>
      </trkpt>
      <trkpt lat="44.81451" lon="4.18777">
        <ele>1248.26</ele>
        <time>2021-07-19T09:18:59Z</time>
      </trkpt>
      <trkpt lat="44.81475" lon="4.18774">
        <ele>1250.75</ele>
        <time>2021-07-19T09:19:14Z</time>
      </trkpt>
      <trkpt lat="44.81495" lon="4.18772">
        <ele>1252.04</ele>
        <time>2021-07-19T09:19:25Z</time>
      </trkpt>
      <trkpt lat="44.81521" lon="4.18761">
        <ele>1254.06</ele>
        <time>2021-07-19T09:19:40Z</time>
      </trkpt>
      <trkpt lat="44.81543" lon="4.18742">
        <ele>1255.48</ele>
        <time>2021-07-19T09:19:54Z</time>
      </trkpt>
      <trkpt lat="44.81557" lon="4.18705">
        <ele>1256.08</ele>
        <time>2021-07-19T09:20:09Z</time>
      </trkpt>
      <trkpt lat="44.81569" lon="4.18649">
        <ele>1257.22</ele>
        <time>2021-07-19T09:20:26Z</time>
      </trkpt>
      <trkpt lat="44.81583" lon="4.18605">
        <ele>1259.03</ele>
        <time>2021-07-19T09:20:40Z</time>
      </trkpt>
      <trkpt lat="44.81602" lon="4.18537">
        <ele>1260.93</ele>
        <time>2021-07-19T09:21:00Z</time>
      </trkpt>
      <trkpt lat="44.81625" lon="4.18473">
        <ele>1262.81</ele>
        <time>2021-07-19T09:21:18Z</time>
      </trkpt>
      <trkpt lat="44.81663" lon="4.18423">
        <ele>1265.09</ele>
        <time>2021-07-19T09:21:39Z</time>
      </trkpt>
      <trkpt lat="44.81695" lon="4.18387">
        <ele>1267.18</ele>
        <time>2021-07-19T09:21:56Z</time>
      </trkpt>
      <trkpt lat="44.81729" lon="4.18348">
        <ele>1268.48</ele>
        <time>2021-07-19T09:22:14Z</time>
      </trkpt>
      <trkpt lat="44.81769" lon="4.18297">
        <ele>1269.41</ele>
        <time>2021-07-19T09:22:34Z</time>
      </trkpt>
      <trkpt lat="44.81789" lon="4.18233">
        <ele>1269.25</ele>
        <time>2021-07-19T09:22:49Z</time>
      </trkpt>
      <trkpt lat="44.8179" lon="4.18221">
        <ele>1269.21</ele>
        <time>2021-07-19T09:22:51Z</time>
      </trkpt>
      <trkpt lat="44.8178" lon="4.18119">
        <ele>1267.31</ele>
        <time>2021-07-19T09:23:02Z</time>
      </trkpt>
      <trkpt lat="44.81765" lon="4.18009">
        <ele>1264.18</ele>
        <time>2021-07-19T09:23:11Z</time>
      </trkpt>
      <trkpt lat="44.81749" lon="4.17906">
        <ele>1261.12</ele>
        <time>2021-07-19T09:23:18Z</time>
      </trkpt>
      <trkpt lat="44.81735" lon="4.17809">
        <ele>1258.03</ele>
        <time>2021-07-19T09:23:24Z</time>
      </trkpt>
      <trkpt lat="44.81719" lon="4.17693">
        <ele>1254.79</ele>
        <time>2021-07-19T09:23:31Z</time>
      </trkpt>
      <trkpt lat="44.81719" lon="4.17676">
        <ele>1254.34</ele>
        <time>2021-07-19T09:23:32Z</time>
      </trkpt>
      <trkpt lat="44.81721" lon="4.1766">
        <ele>1253.88</ele>
        <time>2021-07-19T09:23:33Z</time>
      </trkpt>
      <trkpt lat="44.81725" lon="4.17644">
        <ele>1253.42</ele>
        <time>2021-07-19T09:23:34Z</time>
      </trkpt>
      <trkpt lat="44.8173" lon="4.17629">
        <ele>1253</ele>
        <time>2021-07-19T09:23:35Z</time>
      </trkpt>
      <trkpt lat="44.81737" lon="4.17616">
        <ele>1252.13</ele>
        <time>2021-07-19T09:23:36Z</time>
      </trkpt>
      <trkpt lat="44.81744" lon="4.17605">
        <ele>1251.7</ele>
        <time>2021-07-19T09:23:37Z</time>
      </trkpt>
      <trkpt lat="44.81752" lon="4.17594">
        <ele>1251.31</ele>
        <time>2021-07-19T09:23:38Z</time>
      </trkpt>
      <trkpt lat="44.81809" lon="4.17527">
        <ele>1248.08</ele>
        <time>2021-07-19T09:23:45Z</time>
      </trkpt>
      <trkpt lat="44.81863" lon="4.1746">
        <ele>1245.01</ele>
        <time>2021-07-19T09:23:52Z</time>
      </trkpt>
      <trkpt lat="44.81869" lon="4.17449">
        <ele>1244.58</ele>
        <time>2021-07-19T09:23:53Z</time>
      </trkpt>
      <trkpt lat="44.81875" lon="4.17438">
        <ele>1244.16</ele>
        <time>2021-07-19T09:23:54Z</time>
      </trkpt>
      <trkpt lat="44.8188" lon="4.17425">
        <ele>1243.73</ele>
        <time>2021-07-19T09:23:55Z</time>
      </trkpt>
      <trkpt lat="44.81884" lon="4.17412">
        <ele>1243.3</ele>
        <time>2021-07-19T09:23:56Z</time>
      </trkpt>
      <trkpt lat="44.81888" lon="4.17399">
        <ele>1242.9</ele>
        <time>2021-07-19T09:23:57Z</time>
      </trkpt>
      <trkpt lat="44.81909" lon="4.17316">
        <ele>1239.47</ele>
        <time>2021-07-19T09:24:03Z</time>
      </trkpt>
      <trkpt lat="44.81936" lon="4.17232">
        <ele>1236.4</ele>
        <time>2021-07-19T09:24:09Z</time>
      </trkpt>
      <trkpt lat="44.8195" lon="4.17207">
        <ele>1235.38</ele>
        <time>2021-07-19T09:24:11Z</time>
      </trkpt>
      <trkpt lat="44.81958" lon="4.17195">
        <ele>1234.87</ele>
        <time>2021-07-19T09:24:12Z</time>
      </trkpt>
      <trkpt lat="44.81966" lon="4.17185">
        <ele>1234.39</ele>
        <time>2021-07-19T09:24:13Z</time>
      </trkpt>
      <trkpt lat="44.81975" lon="4.17175">
        <ele>1233.9</ele>
        <time>2021-07-19T09:24:14Z</time>
      </trkpt>
      <trkpt lat="44.81984" lon="4.17167">
        <ele>1233.38</ele>
        <time>2021-07-19T09:24:15Z</time>
      </trkpt>
      <trkpt lat="44.82063" lon="4.17099">
        <ele>1230.36</ele>
        <time>2021-07-19T09:24:24Z</time>
      </trkpt>
      <trkpt lat="44.82074" lon="4.17084">
        <ele>1230.09</ele>
        <time>2021-07-19T09:24:26Z</time>
      </trkpt>
      <trkpt lat="44.82078" lon="4.17076">
        <ele>1230.04</ele>
        <time>2021-07-19T09:24:27Z</time>
      </trkpt>
      <trkpt lat="44.82082" lon="4.17068">
        <ele>1229.99</ele>
        <time>2021-07-19T09:24:28Z</time>
      </trkpt>
      <trkpt lat="44.82114" lon="4.16972">
        <ele>1230.77</ele>
        <time>2021-07-19T09:24:42Z</time>
      </trkpt>
      <trkpt lat="44.82146" lon="4.16872">
        <ele>1232.5</ele>
        <time>2021-07-19T09:25:01Z</time>
      </trkpt>
      <trkpt lat="44.82174" lon="4.16786">
        <ele>1234.35</ele>
        <time>2021-07-19T09:25:18Z</time>
      </trkpt>
      <trkpt lat="44.82213" lon="4.16656">
        <ele>1235.25</ele>
        <time>2021-07-19T09:25:38Z</time>
      </trkpt>
      <trkpt lat="44.82218" lon="4.16634">
        <ele>1235.46</ele>
        <time>2021-07-19T09:25:41Z</time>
      </trkpt>
      <trkpt lat="44.82233" lon="4.16511">
        <ele>1236.61</ele>
        <time>2021-07-19T09:25:57Z</time>
      </trkpt>
      <trkpt lat="44.82258" lon="4.16409">
        <ele>1238.23</ele>
        <time>2021-07-19T09:26:12Z</time>
      </trkpt>
      <trkpt lat="44.82322" lon="4.16328">
        <ele>1237.53</ele>
        <time>2021-07-19T09:26:27Z</time>
      </trkpt>
      <trkpt lat="44.82415" lon="4.16273">
        <ele>1235.09</ele>
        <time>2021-07-19T09:26:41Z</time>
      </trkpt>
      <trkpt lat="44.82506" lon="4.16216">
        <ele>1232.03</ele>
        <time>2021-07-19T09:26:54Z</time>
      </trkpt>
      <trkpt lat="44.82593" lon="4.1614">
        <ele>1228.83</ele>
        <time>2021-07-19T09:27:06Z</time>
      </trkpt>
      <trkpt lat="44.82668" lon="4.16075">
        <ele>1225.67</ele>
        <time>2021-07-19T09:27:16Z</time>
      </trkpt>
      <trkpt lat="44.82721" lon="4.16052">
        <ele>1223.04</ele>
        <time>2021-07-19T09:27:24Z</time>
      </trkpt>
      <trkpt lat="44.82726" lon="4.1605">
        <ele>1222.68</ele>
        <time>2021-07-19T09:27:25Z</time>
      </trkpt>
      <trkpt lat="44.82731" lon="4.1605">
        <ele>1222.39</ele>
        <time>2021-07-19T09:27:26Z</time>
      </trkpt>
      <trkpt lat="44.82736" lon="4.16051">
        <ele>1222.15</ele>
        <time>2021-07-19T09:27:27Z</time>
      </trkpt>
      <trkpt lat="44.8274" lon="4.16052">
        <ele>1221.95</ele>
        <time>2021-07-19T09:27:28Z</time>
      </trkpt>
      <trkpt lat="44.82743" lon="4.16054">
        <ele>1221.77</ele>
        <time>2021-07-19T09:27:29Z</time>
      </trkpt>
      <trkpt lat="44.8277" lon="4.16067">
        <ele>1221.17</ele>
        <time>2021-07-19T09:27:40Z</time>
      </trkpt>
      <trkpt lat="44.82812" lon="4.16112">
        <ele>1222.49</ele>
        <time>2021-07-19T09:27:56Z</time>
      </trkpt>
      <trkpt lat="44.82852" lon="4.16113">
        <ele>1223.16</ele>
        <time>2021-07-19T09:28:08Z</time>
      </trkpt>
      <trkpt lat="44.82883" lon="4.16068">
        <ele>1224.74</ele>
        <time>2021-07-19T09:28:21Z</time>
      </trkpt>
      <trkpt lat="44.82881" lon="4.16017">
        <ele>1227.12</ele>
        <time>2021-07-19T09:28:35Z</time>
      </trkpt>
      <trkpt lat="44.82864" lon="4.15971">
        <ele>1229.32</ele>
        <time>2021-07-19T09:28:52Z</time>
      </trkpt>
      <trkpt lat="44.82849" lon="4.15924">
        <ele>1231.02</ele>
        <time>2021-07-19T09:29:09Z</time>
      </trkpt>
      <trkpt lat="44.8285" lon="4.15875">
        <ele>1232.79</ele>
        <time>2021-07-19T09:29:25Z</time>
      </trkpt>
      <trkpt lat="44.82856" lon="4.15819">
        <ele>1235.57</ele>
        <time>2021-07-19T09:29:44Z</time>
      </trkpt>
      <trkpt lat="44.82868" lon="4.15772">
        <ele>1237.13</ele>
        <time>2021-07-19T09:30:01Z</time>
      </trkpt>
      <trkpt lat="44.82902" lon="4.15727">
        <ele>1238.78</ele>
        <time>2021-07-19T09:30:22Z</time>
      </trkpt>
      <trkpt lat="44.82941" lon="4.15683">
        <ele>1239.7</ele>
        <time>2021-07-19T09:30:43Z</time>
      </trkpt>
      <trkpt lat="44.82972" lon="4.15635">
        <ele>1242.72</ele>
        <time>2021-07-19T09:31:02Z</time>
      </trkpt>
      <trkpt lat="44.82999" lon="4.15573">
        <ele>1244.64</ele>
        <time>2021-07-19T09:31:22Z</time>
      </trkpt>
      <trkpt lat="44.83028" lon="4.15504">
        <ele>1246.16</ele>
        <time>2021-07-19T09:31:45Z</time>
      </trkpt>
      <trkpt lat="44.83062" lon="4.15442">
        <ele>1248.43</ele>
        <time>2021-07-19T09:32:07Z</time>
      </trkpt>
      <trkpt lat="44.83091" lon="4.154">
        <ele>1250.06</ele>
        <time>2021-07-19T09:32:23Z</time>
      </trkpt>
      <trkpt lat="44.83127" lon="4.15339">
        <ele>1252.28</ele>
        <time>2021-07-19T09:32:45Z</time>
      </trkpt>
      <trkpt lat="44.83147" lon="4.15286">
        <ele>1253.8</ele>
        <time>2021-07-19T09:33:02Z</time>
      </trkpt>
      <trkpt lat="44.8315" lon="4.15219">
        <ele>1255.36</ele>
        <time>2021-07-19T09:33:20Z</time>
      </trkpt>
      <trkpt lat="44.83142" lon="4.15142">
        <ele>1257.51</ele>
        <time>2021-07-19T09:33:39Z</time>
      </trkpt>
      <trkpt lat="44.83134" lon="4.15054">
        <ele>1259.76</ele>
        <time>2021-07-19T09:34:00Z</time>
      </trkpt>
      <trkpt lat="44.83128" lon="4.14965">
        <ele>1260.64</ele>
        <time>2021-07-19T09:34:19Z</time>
      </trkpt>
      <trkpt lat="44.83132" lon="4.14932">
        <ele>1261.01</ele>
        <time>2021-07-19T09:34:25Z</time>
      </trkpt>
      <trkpt lat="44.83133" lon="4.14926">
        <ele>1260.91</ele>
        <time>2021-07-19T09:34:26Z</time>
      </trkpt>
      <trkpt lat="44.83136" lon="4.1492">
        <ele>1260.76</ele>
        <time>2021-07-19T09:34:27Z</time>
      </trkpt>
      <trkpt lat="44.83139" lon="4.14914">
        <ele>1260.59</ele>
        <time>2021-07-19T09:34:28Z</time>
      </trkpt>
      <trkpt lat="44.83143" lon="4.14907">
        <ele>1260.44</ele>
        <time>2021-07-19T09:34:29Z</time>
      </trkpt>
      <trkpt lat="44.83147" lon="4.14901">
        <ele>1260.28</ele>
        <time>2021-07-19T09:34:30Z</time>
      </trkpt>
      <trkpt lat="44.83151" lon="4.14895">
        <ele>1260.12</ele>
        <time>2021-07-19T09:34:31Z</time>
      </trkpt>
      <trkpt lat="44.83156" lon="4.14889">
        <ele>1259.98</ele>
        <time>2021-07-19T09:34:32Z</time>
      </trkpt>
      <trkpt lat="44.83161" lon="4.14884">
        <ele>1259.82</ele>
        <time>2021-07-19T09:34:33Z</time>
      </trkpt>
      <trkpt lat="44.83243" lon="4.14803">
        <ele>1256.62</ele>
        <time>2021-07-19T09:34:46Z</time>
      </trkpt>
      <trkpt lat="44.83311" lon="4.14738">
        <ele>1253.37</ele>
        <time>2021-07-19T09:34:55Z</time>
      </trkpt>
      <trkpt lat="44.8332" lon="4.14733">
        <ele>1253.11</ele>
        <time>2021-07-19T09:34:56Z</time>
      </trkpt>
      <trkpt lat="44.83329" lon="4.14728">
        <ele>1252.81</ele>
        <time>2021-07-19T09:34:57Z</time>
      </trkpt>
      <trkpt lat="44.83339" lon="4.14724">
        <ele>1252.43</ele>
        <time>2021-07-19T09:34:58Z</time>
      </trkpt>
      <trkpt lat="44.83349" lon="4.14721">
        <ele>1252.02</ele>
        <time>2021-07-19T09:34:59Z</time>
      </trkpt>
      <trkpt lat="44.83359" lon="4.14719">
        <ele>1251.6</ele>
        <time>2021-07-19T09:35:00Z</time>
      </trkpt>
      <trkpt lat="44.83429" lon="4.14703">
        <ele>1248.96</ele>
        <time>2021-07-19T09:35:07Z</time>
      </trkpt>
      <trkpt lat="44.83438" lon="4.14698">
        <ele>1248.59</ele>
        <time>2021-07-19T09:35:08Z</time>
      </trkpt>
      <trkpt lat="44.83447" lon="4.14692">
        <ele>1248.16</ele>
        <time>2021-07-19T09:35:09Z</time>
      </trkpt>
      <trkpt lat="44.83456" lon="4.14685">
        <ele>1247.71</ele>
        <time>2021-07-19T09:35:10Z</time>
      </trkpt>
      <trkpt lat="44.83464" lon="4.14676">
        <ele>1247.29</ele>
        <time>2021-07-19T09:35:11Z</time>
      </trkpt>
      <trkpt lat="44.83472" lon="4.14668">
        <ele>1246.92</ele>
        <time>2021-07-19T09:35:12Z</time>
      </trkpt>
      <trkpt lat="44.83524" lon="4.14598">
        <ele>1243.64</ele>
        <time>2021-07-19T09:35:19Z</time>
      </trkpt>
      <trkpt lat="44.83576" lon="4.14524">
        <ele>1240.61</ele>
        <time>2021-07-19T09:35:26Z</time>
      </trkpt>
      <trkpt lat="44.83637" lon="4.14441">
        <ele>1237.57</ele>
        <time>2021-07-19T09:35:34Z</time>
      </trkpt>
      <trkpt lat="44.8369" lon="4.14385">
        <ele>1234.55</ele>
        <time>2021-07-19T09:35:40Z</time>
      </trkpt>
      <trkpt lat="44.83741" lon="4.14327">
        <ele>1231.54</ele>
        <time>2021-07-19T09:35:46Z</time>
      </trkpt>
      <trkpt lat="44.83815" lon="4.14235">
        <ele>1228.32</ele>
        <time>2021-07-19T09:35:55Z</time>
      </trkpt>
      <trkpt lat="44.83864" lon="4.14173">
        <ele>1224.54</ele>
        <time>2021-07-19T09:36:01Z</time>
      </trkpt>
      <trkpt lat="44.83872" lon="4.14163">
        <ele>1224.54</ele>
        <time>2021-07-19T09:36:02Z</time>
      </trkpt>
      <trkpt lat="44.83924" lon="4.14081">
        <ele>1221.34</ele>
        <time>2021-07-19T09:36:09Z</time>
      </trkpt>
      <trkpt lat="44.83976" lon="4.13977">
        <ele>1217.94</ele>
        <time>2021-07-19T09:36:17Z</time>
      </trkpt>
      <trkpt lat="44.84025" lon="4.13893">
        <ele>1214.44</ele>
        <time>2021-07-19T09:36:24Z</time>
      </trkpt>
      <trkpt lat="44.84043" lon="4.13873">
        <ele>1213.2</ele>
        <time>2021-07-19T09:36:26Z</time>
      </trkpt>
      <trkpt lat="44.84071" lon="4.13848">
        <ele>1211.06</ele>
        <time>2021-07-19T09:36:29Z</time>
      </trkpt>
      <trkpt lat="44.84081" lon="4.13843">
        <ele>1210.55</ele>
        <time>2021-07-19T09:36:30Z</time>
      </trkpt>
      <trkpt lat="44.84092" lon="4.13841">
        <ele>1210.04</ele>
        <time>2021-07-19T09:36:31Z</time>
      </trkpt>
      <trkpt lat="44.84103" lon="4.1384">
        <ele>1209.55</ele>
        <time>2021-07-19T09:36:32Z</time>
      </trkpt>
      <trkpt lat="44.84113" lon="4.13841">
        <ele>1209.1</ele>
        <time>2021-07-19T09:36:33Z</time>
      </trkpt>
      <trkpt lat="44.84123" lon="4.13842">
        <ele>1208.71</ele>
        <time>2021-07-19T09:36:34Z</time>
      </trkpt>
      <trkpt lat="44.84132" lon="4.1384">
        <ele>1208.38</ele>
        <time>2021-07-19T09:36:35Z</time>
      </trkpt>
      <trkpt lat="44.84141" lon="4.13835">
        <ele>1208.11</ele>
        <time>2021-07-19T09:36:36Z</time>
      </trkpt>
      <trkpt lat="44.84149" lon="4.13827">
        <ele>1207.87</ele>
        <time>2021-07-19T09:36:37Z</time>
      </trkpt>
      <trkpt lat="44.84155" lon="4.13817">
        <ele>1207.64</ele>
        <time>2021-07-19T09:36:38Z</time>
      </trkpt>
      <trkpt lat="44.84161" lon="4.13807">
        <ele>1207.41</ele>
        <time>2021-07-19T09:36:39Z</time>
      </trkpt>
      <trkpt lat="44.8422" lon="4.13711">
        <ele>1205.57</ele>
        <time>2021-07-19T09:36:51Z</time>
      </trkpt>
      <trkpt lat="44.84244" lon="4.13634">
        <ele>1206.42</ele>
        <time>2021-07-19T09:37:03Z</time>
      </trkpt>
      <trkpt lat="44.84249" lon="4.1355">
        <ele>1209.62</ele>
        <time>2021-07-19T09:37:21Z</time>
      </trkpt>
      <trkpt lat="44.84265" lon="4.13483">
        <ele>1212.26</ele>
        <time>2021-07-19T09:37:40Z</time>
      </trkpt>
      <trkpt lat="44.84283" lon="4.13423">
        <ele>1215.01</ele>
        <time>2021-07-19T09:38:01Z</time>
      </trkpt>
      <trkpt lat="44.84304" lon="4.13375">
        <ele>1217.18</ele>
        <time>2021-07-19T09:38:20Z</time>
      </trkpt>
      <trkpt lat="44.84329" lon="4.13319">
        <ele>1219.84</ele>
        <time>2021-07-19T09:38:43Z</time>
      </trkpt>
      <trkpt lat="44.84353" lon="4.13267">
        <ele>1222.22</ele>
        <time>2021-07-19T09:39:04Z</time>
      </trkpt>
      <trkpt lat="44.84375" lon="4.13215">
        <ele>1224.43</ele>
        <time>2021-07-19T09:39:25Z</time>
      </trkpt>
      <trkpt lat="44.8438" lon="4.13163">
        <ele>1226.15</ele>
        <time>2021-07-19T09:39:43Z</time>
      </trkpt>
      <trkpt lat="44.84364" lon="4.13115">
        <ele>1228.67</ele>
        <time>2021-07-19T09:40:01Z</time>
      </trkpt>
      <trkpt lat="44.8435" lon="4.13063">
        <ele>1230.06</ele>
        <time>2021-07-19T09:40:19Z</time>
      </trkpt>
      <trkpt lat="44.84363" lon="4.13013">
        <ele>1232.27</ele>
        <time>2021-07-19T09:40:37Z</time>
      </trkpt>
      <trkpt lat="44.84392" lon="4.12987">
        <ele>1234.6</ele>
        <time>2021-07-19T09:40:54Z</time>
      </trkpt>
      <trkpt lat="44.84393" lon="4.12986">
        <ele>1235.28</ele>
        <time>2021-07-19T09:41:10Z</time>
      </trkpt>
      <trkpt lat="44.84394" lon="4.12987">
        <ele>1234.95</ele>
        <time>2021-07-19T09:41:34Z</time>
      </trkpt>
      <trkpt lat="44.84394" lon="4.12989">
        <ele>1234.81</ele>
        <time>2021-07-19T09:42:30Z</time>
      </trkpt>
      <trkpt lat="44.84393" lon="4.12988">
        <ele>1234.66</ele>
        <time>2021-07-19T09:43:01Z</time>
      </trkpt>
      <trkpt lat="44.84396" lon="4.12986">
        <ele>1234.61</ele>
        <time>2021-07-19T09:43:22Z</time>
      </trkpt>
      <trkpt lat="44.84398" lon="4.12984">
        <ele>1234.59</ele>
        <time>2021-07-19T09:43:23Z</time>
      </trkpt>
      <trkpt lat="44.844" lon="4.12983">
        <ele>1234.58</ele>
        <time>2021-07-19T09:43:24Z</time>
      </trkpt>
      <trkpt lat="44.84402" lon="4.12983">
        <ele>1234.56</ele>
        <time>2021-07-19T09:43:25Z</time>
      </trkpt>
      <trkpt lat="44.84405" lon="4.12983">
        <ele>1234.51</ele>
        <time>2021-07-19T09:43:26Z</time>
      </trkpt>
      <trkpt lat="44.84409" lon="4.12983">
        <ele>1234.43</ele>
        <time>2021-07-19T09:43:27Z</time>
      </trkpt>
      <trkpt lat="44.84412" lon="4.12982">
        <ele>1234.33</ele>
        <time>2021-07-19T09:43:28Z</time>
      </trkpt>
      <trkpt lat="44.84482" lon="4.12973">
        <ele>1232.42</ele>
        <time>2021-07-19T09:43:41Z</time>
      </trkpt>
      <trkpt lat="44.84502" lon="4.12967">
        <ele>1231.73</ele>
        <time>2021-07-19T09:43:44Z</time>
      </trkpt>
      <trkpt lat="44.8451" lon="4.12963">
        <ele>1231.43</ele>
        <time>2021-07-19T09:43:45Z</time>
      </trkpt>
      <trkpt lat="44.84517" lon="4.12958">
        <ele>1231.15</ele>
        <time>2021-07-19T09:43:46Z</time>
      </trkpt>
      <trkpt lat="44.84523" lon="4.12951">
        <ele>1230.89</ele>
        <time>2021-07-19T09:43:47Z</time>
      </trkpt>
      <trkpt lat="44.84531" lon="4.12944">
        <ele>1230.55</ele>
        <time>2021-07-19T09:43:48Z</time>
      </trkpt>
      <trkpt lat="44.84579" lon="4.12888">
        <ele>1227.69</ele>
        <time>2021-07-19T09:43:55Z</time>
      </trkpt>
      <trkpt lat="44.84584" lon="4.12878">
        <ele>1227.26</ele>
        <time>2021-07-19T09:43:56Z</time>
      </trkpt>
      <trkpt lat="44.84589" lon="4.12867">
        <ele>1226.87</ele>
        <time>2021-07-19T09:43:57Z</time>
      </trkpt>
      <trkpt lat="44.84619" lon="4.12794">
        <ele>1223.39</ele>
        <time>2021-07-19T09:44:04Z</time>
      </trkpt>
      <trkpt lat="44.84626" lon="4.12777">
        <ele>1222.43</ele>
        <time>2021-07-19T09:44:06Z</time>
      </trkpt>
      <trkpt lat="44.84629" lon="4.1277">
        <ele>1222</ele>
        <time>2021-07-19T09:44:07Z</time>
      </trkpt>
      <trkpt lat="44.84632" lon="4.12764">
        <ele>1221.63</ele>
        <time>2021-07-19T09:44:08Z</time>
      </trkpt>
      <trkpt lat="44.84642" lon="4.12735">
        <ele>1218.62</ele>
        <time>2021-07-19T09:44:17Z</time>
      </trkpt>
      <trkpt lat="44.84642" lon="4.1271">
        <ele>1217.54</ele>
        <time>2021-07-19T09:44:36Z</time>
      </trkpt>
      <trkpt lat="44.84643" lon="4.12686">
        <ele>1216.54</ele>
        <time>2021-07-19T09:44:46Z</time>
      </trkpt>
      <trkpt lat="44.84645" lon="4.12644">
        <ele>1215.6</ele>
        <time>2021-07-19T09:45:00Z</time>
      </trkpt>
      <trkpt lat="44.84639" lon="4.12588">
        <ele>1215.75</ele>
        <time>2021-07-19T09:45:11Z</time>
      </trkpt>
      <trkpt lat="44.84639" lon="4.12538">
        <ele>1214.34</ele>
        <time>2021-07-19T09:45:17Z</time>
      </trkpt>
      <trkpt lat="44.8464" lon="4.1253">
        <ele>1214.05</ele>
        <time>2021-07-19T09:45:18Z</time>
      </trkpt>
      <trkpt lat="44.84642" lon="4.12524">
        <ele>1213.75</ele>
        <time>2021-07-19T09:45:19Z</time>
      </trkpt>
      <trkpt lat="44.84644" lon="4.12518">
        <ele>1213.44</ele>
        <time>2021-07-19T09:45:20Z</time>
      </trkpt>
      <trkpt lat="44.84646" lon="4.12513">
        <ele>1213.12</ele>
        <time>2021-07-19T09:45:21Z</time>
      </trkpt>
      <trkpt lat="44.84648" lon="4.12509">
        <ele>1212.81</ele>
        <time>2021-07-19T09:45:22Z</time>
      </trkpt>
      <trkpt lat="44.84661" lon="4.12487">
        <ele>1211.53</ele>
        <time>2021-07-19T09:45:27Z</time>
      </trkpt>
      <trkpt lat="44.84663" lon="4.12481">
        <ele>1211.31</ele>
        <time>2021-07-19T09:45:28Z</time>
      </trkpt>
      <trkpt lat="44.84692" lon="4.12398">
        <ele>1208.28</ele>
        <time>2021-07-19T09:45:40Z</time>
      </trkpt>
      <trkpt lat="44.8471" lon="4.12352">
        <ele>1206.22</ele>
        <time>2021-07-19T09:45:50Z</time>
      </trkpt>
      <trkpt lat="44.84713" lon="4.12346">
        <ele>1206.11</ele>
        <time>2021-07-19T09:45:51Z</time>
      </trkpt>
      <trkpt lat="44.84761" lon="4.12257">
        <ele>1203.03</ele>
        <time>2021-07-19T09:46:03Z</time>
      </trkpt>
      <trkpt lat="44.8478" lon="4.12224">
        <ele>1199.91</ele>
        <time>2021-07-19T09:46:11Z</time>
      </trkpt>
      <trkpt lat="44.84801" lon="4.12192">
        <ele>1198.08</ele>
        <time>2021-07-19T09:46:19Z</time>
      </trkpt>
      <trkpt lat="44.84805" lon="4.12188">
        <ele>1197.87</ele>
        <time>2021-07-19T09:46:20Z</time>
      </trkpt>
      <trkpt lat="44.84829" lon="4.12169">
        <ele>1195.17</ele>
        <time>2021-07-19T09:46:31Z</time>
      </trkpt>
      <trkpt lat="44.84857" lon="4.12151">
        <ele>1194.24</ele>
        <time>2021-07-19T09:46:45Z</time>
      </trkpt>
      <trkpt lat="44.84875" lon="4.12135">
        <ele>1193.75</ele>
        <time>2021-07-19T09:46:56Z</time>
      </trkpt>
      <trkpt lat="44.84903" lon="4.12112">
        <ele>1192.82</ele>
        <time>2021-07-19T09:47:07Z</time>
      </trkpt>
      <trkpt lat="44.84925" lon="4.1209">
        <ele>1191.54</ele>
        <time>2021-07-19T09:47:15Z</time>
      </trkpt>
      <trkpt lat="44.84963" lon="4.12064">
        <ele>1190.97</ele>
        <time>2021-07-19T09:47:29Z</time>
      </trkpt>
      <trkpt lat="44.84998" lon="4.1203">
        <ele>1192.71</ele>
        <time>2021-07-19T09:47:44Z</time>
      </trkpt>
      <trkpt lat="44.85005" lon="4.12025">
        <ele>1192.77</ele>
        <time>2021-07-19T09:47:46Z</time>
      </trkpt>
      <trkpt lat="44.85008" lon="4.12022">
        <ele>1192.76</ele>
        <time>2021-07-19T09:47:47Z</time>
      </trkpt>
      <trkpt lat="44.85019" lon="4.12011">
        <ele>1192.78</ele>
        <time>2021-07-19T09:47:50Z</time>
      </trkpt>
      <trkpt lat="44.85022" lon="4.12007">
        <ele>1192.8</ele>
        <time>2021-07-19T09:47:51Z</time>
      </trkpt>
      <trkpt lat="44.85059" lon="4.11949">
        <ele>1192.52</ele>
        <time>2021-07-19T09:48:05Z</time>
      </trkpt>
      <trkpt lat="44.85112" lon="4.11905">
        <ele>1192.32</ele>
        <time>2021-07-19T09:48:21Z</time>
      </trkpt>
      <trkpt lat="44.85159" lon="4.11883">
        <ele>1193.18</ele>
        <time>2021-07-19T09:48:37Z</time>
      </trkpt>
      <trkpt lat="44.85204" lon="4.11839">
        <ele>1192.91</ele>
        <time>2021-07-19T09:48:51Z</time>
      </trkpt>
      <trkpt lat="44.85229" lon="4.11811">
        <ele>1190.92</ele>
        <time>2021-07-19T09:49:03Z</time>
      </trkpt>
      <trkpt lat="44.85229" lon="4.11808">
        <ele>1190.72</ele>
        <time>2021-07-19T09:49:06Z</time>
      </trkpt>
      <trkpt lat="44.85229" lon="4.11805">
        <ele>1190.66</ele>
        <time>2021-07-19T09:49:07Z</time>
      </trkpt>
      <trkpt lat="44.85229" lon="4.11803">
        <ele>1190.6</ele>
        <time>2021-07-19T09:49:08Z</time>
      </trkpt>
      <trkpt lat="44.85228" lon="4.11797">
        <ele>1189.14</ele>
        <time>2021-07-19T09:49:24Z</time>
      </trkpt>
      <trkpt lat="44.85227" lon="4.11796">
        <ele>1188.97</ele>
        <time>2021-07-19T09:50:04Z</time>
      </trkpt>
      <trkpt lat="44.85228" lon="4.11796">
        <ele>1189.21</ele>
        <time>2021-07-19T09:50:34Z</time>
      </trkpt>
      <trkpt lat="44.85226" lon="4.11795">
        <ele>1188.92</ele>
        <time>2021-07-19T09:51:19Z</time>
      </trkpt>
      <trkpt lat="44.85227" lon="4.11795">
        <ele>1189.03</ele>
        <time>2021-07-19T09:51:51Z</time>
      </trkpt>
      <trkpt lat="44.85225" lon="4.11795">
        <ele>1189.03</ele>
        <time>2021-07-19T09:52:17Z</time>
      </trkpt>
      <trkpt lat="44.85224" lon="4.11794">
        <ele>1189</ele>
        <time>2021-07-19T09:52:19Z</time>
      </trkpt>
      <trkpt lat="44.85223" lon="4.11792">
        <ele>1188.95</ele>
        <time>2021-07-19T09:52:20Z</time>
      </trkpt>
      <trkpt lat="44.8522" lon="4.11787">
        <ele>1188.65</ele>
        <time>2021-07-19T09:52:39Z</time>
      </trkpt>
      <trkpt lat="44.85221" lon="4.11788">
        <ele>1188.59</ele>
        <time>2021-07-19T09:52:49Z</time>
      </trkpt>
    </trkseg>
  </trk>
</gpx>